[[{"header":{"parameterUnit":"m.s-1","parameterCategory":1,"la1":30.6,"la2":28.766,"lo1":-90.7593,"lo2":-88.6598,"dy":0.0162,"dx":0.0183,"nx":116,"ny":114,"refTime":"2024-07-09T06:00:00:Z","depth":0,"parameterNumber":2,"parameterNumberName":"U-component_of_WINDS"},"data":[0.0,0.0,0.0,0.0,0.0,0.0,0.0,0.0,0.0,0.0,0.0,0.0,0.0,0.0,0.0,0.0,0.0,0.0,0.0,0.0,0.0,0.0,0.0,0.0,0.0,0.0,0.0,0.0,0.0,0.0,0.0,0.0,0.0,0.0,0.0,0.0,0.0,0.0,0.0,0.0,0.0,0.0,0.0,0.0,0.0,0.0,0.0,0.0,0.0,0.0,0.0,0.0,0.0,0.0,0.0,0.0,0.0,0.0,0.0,0.0,0.0,0.0,0.0,0.0,0.0,0.0,0.0,0.0,0.0,0.0,0.0,0.0,0.0,0.0,0.0,0.0,0.0,0.0,0.0,0.0,0.0,0.0,0.0,0.0,0.0,0.0,0.0,0.0,0.0,0.0,0.0,0.0,0.0,0.0,0.0,0.0,0.0,0.0,0.0,0.0,0.0,0.0,0.0,0.0,0.0,0.0,0.0,0.0,0.0,0.0,0.0,0.0,0.0,0.0,0.0,0.0,0.0,0.0,0.0,0.0,0.0,0.0,0.0,0.0,0.0,0.0,0.0,0.0,0.0,0.0,0.0,0.0,0.0,0.0,0.0,0.0,0.0,0.0,0.0,0.0,0.0,0.0,0.0,0.0,0.0,0.0,0.0,0.0,0.0,0.0,0.0,0.0,0.0,0.0,0.0,0.0,0.0,0.0,0.0,0.0,0.0,0.0,0.0,0.0,0.0,0.0,0.0,0.0,0.0,0.0,0.0,0.0,0.0,0.0,0.0,0.0,0.0,0.0,0.0,0.0,0.0,0.0,0.0,0.0,0.0,0.0,0.0,0.0,0.0,0.0,0.0,0.0,0.0,0.0,0.0,0.0,0.0,0.0,0.0,0.0,0.0,0.0,0.0,0.0,0.0,0.0,0.0,0.0,0.0,0.0,0.0,0.0,0.0,0.0,0.0,0.0,0.0,0.0,0.0,0.0,0.0,0.0,0.0,0.0,0.0,0.0,0.0,0.0,0.0,0.0,0.0,0.0,0.0,0.0,0.0,0.0,0.0,0.0,0.0,0.0,0.0,0.0,0.0,0.0,0.0,0.0,0.0,0.0,0.0,0.0,0.0,0.0,0.0,0.0,0.0,0.0,0.0,0.0,0.0,0.0,0.0,0.0,0.0,0.0,0.0,0.0,0.0,0.0,0.0,0.0,0.0,0.0,0.0,0.0,0.0,0.0,0.0,0.0,0.0,0.0,0.0,0.0,0.0,0.0,0.0,0.0,0.0,0.0,0.0,0.0,0.0,0.0,0.0,0.0,0.0,0.0,0.0,0.0,0.0,0.0,0.0,0.0,0.0,0.0,0.0,0.0,0.0,0.0,0.0,0.0,0.0,0.0,0.0,0.0,0.0,0.0,0.0,0.0,0.0,0.0,0.0,0.0,0.0,0.0,0.0,0.0,0.0,0.0,0.0,0.0,0.0,0.0,0.0,0.0,0.0,0.0,0.0,0.0,0.0,0.0,0.0,0.0,0.0,0.0,0.0,0.0,0.0,0.0,0.0,0.0,0.0,0.0,0.0,0.0,0.0,0.0,0.0,0.0,0.0,0.0,0.0,0.0,0.0,0.0,0.0,0.0,0.0,0.0,0.0,0.0,0.0,0.0,0.0,0.0,0.0,0.0,0.0,0.0,0.0,0.0,0.0,0.0,0.0,0.0,0.0,0.0,0.0,0.0,0.0,0.0,0.0,0.0,0.0,0.0,0.0,0.0,0.0,0.0,0.0,0.0,0.0,0.0,0.0,0.0,0.0,0.0,0.0,0.0,0.0,0.0,0.0,0.0,0.0,0.0,0.0,0.0,0.0,0.0,0.0,0.0,0.0,0.0,0.0,0.0,0.0,0.0,0.0,0.0,0.0,0.0,0.0,0.0,0.0,0.0,0.0,0.0,0.0,0.0,0.0,0.0,0.0,0.0,0.0,0.0,0.0,0.0,0.0,0.0,0.0,0.0,0.0,0.0,0.0,0.0,0.0,0.0,0.0,0.0,0.0,0.0,0.0,0.0,0.0,0.0,0.0,0.0,0.0,0.0,0.0,0.0,0.0,0.0,0.0,0.0,0.0,0.0,0.0,0.0,0.0,0.0,0.0,0.0,0.0,0.0,0.0,0.0,0.0,0.0,0.0,0.0,0.0,0.0,0.0,0.0,0.0,0.0,0.0,0.0,0.0,0.0,0.0,0.0,0.0,0.0,0.0,0.0,0.0,0.0,0.0,0.0,0.0,0.0,0.0,0.0,0.0,0.0,0.0,0.0,0.0,0.0,0.0,0.0,0.0,0.0,0.0,0.0,0.0,0.0,0.0,0.0,0.0,0.0,0.0,0.0,0.0,0.0,0.0,0.0,0.0,0.0,0.0,0.0,0.0,0.0,0.0,0.0,0.0,0.0,0.0,0.0,0.0,0.0,0.0,0.0,0.0,0.0,0.0,0.0,0.0,0.0,0.0,0.0,0.0,0.0,0.0,0.0,0.0,0.0,0.0,0.0,0.0,0.0,0.0,0.0,0.0,0.0,0.0,0.0,0.0,0.0,0.0,0.0,0.0,0.0,0.0,0.0,0.0,0.0,0.0,0.0,0.0,0.0,0.0,0.0,0.0,0.0,0.0,0.0,0.0,0.0,0.0,0.0,0.0,0.0,0.0,0.0,0.0,0.0,0.0,0.0,0.0,0.0,0.0,0.0,0.0,0.0,0.0,0.0,0.0,0.0,0.0,0.0,0.0,0.0,0.0,0.0,0.0,0.0,0.0,0.0,0.0,0.0,0.0,0.0,0.0,0.0,0.0,0.0,0.0,0.0,0.0,0.0,0.0,0.0,0.0,0.0,0.0,0.0,0.0,0.0,0.0,0.0,0.0,0.0,0.0,0.0,0.0,0.0,0.0,0.0,0.0,0.0,0.0,0.0,0.0,0.0,0.0,0.0,0.0,0.0,0.0,0.0,0.0,0.0,0.0,0.0,0.0,0.0,0.0,0.0,0.0,0.0,0.0,0.0,0.0,0.0,0.0,0.0,0.0,0.0,0.0,0.0,0.0,0.0,0.0,0.0,0.0,0.0,0.0,0.0,0.0,0.0,0.0,0.0,0.0,0.0,0.0,0.0,0.0,0.0,0.0,0.0,0.0,0.0,0.0,0.0,0.0,0.0,0.0,0.0,0.0,0.0,0.0,0.0,0.0,0.0,0.0,0.0,0.0,0.0,0.0,0.0,0.0,0.0,0.0,0.0,0.0,0.0,0.0,0.0,0.0,0.0,0.0,0.0,0.0,0.0,0.0,0.0,0.0,0.0,0.0,0.0,0.0,0.0,0.0,0.0,0.0,0.0,0.0,0.0,0.0,0.0,0.0,0.0,0.0,0.0,0.0,0.0,0.0,0.0,0.0,0.0,0.0,0.0,0.0,0.0,0.0,0.0,0.0,0.0,0.0,0.0,0.0,0.0,0.0,0.0,0.0,0.0,0.0,0.0,0.0,0.0,0.0,0.0,0.0,0.0,0.0,0.0,0.0,0.0,0.0,0.0,0.0,0.0,0.0,0.0,0.0,0.0,0.0,0.0,0.0,0.0,0.0,0.0,0.0,0.0,0.0,0.0,0.0,0.0,0.0,0.0,0.0,0.0,0.0,0.0,0.0,0.0,0.0,0.0,0.0,0.0,0.0,0.0,0.0,0.0,0.0,0.0,0.0,0.0,0.0,0.0,0.0,0.0,0.0,0.0,0.0,0.0,0.0,0.0,0.0,0.0,0.0,0.0,0.0,0.0,0.0,0.0,0.0,0.0,0.0,0.0,0.0,0.0,0.0,0.0,0.0,0.0,0.0,0.0,0.0,0.0,0.0,0.0,0.0,0.0,0.0,0.0,0.0,0.0,0.0,0.0,0.0,0.0,0.0,0.0,0.0,0.0,0.0,0.0,0.0,0.0,0.0,0.0,0.0,0.0,0.0,0.0,0.0,0.0,0.0,0.0,0.0,0.0,0.0,0.0,0.0,0.0,0.0,0.0,0.0,0.0,0.0,0.0,0.0,0.0,0.0,0.0,0.0,0.0,0.0,0.0,0.0,0.0,0.0,0.0,0.0,0.0,0.0,0.0,0.0,0.0,0.0,0.0,0.0,0.0,0.0,0.0,0.0,0.0,0.0,0.0,0.0,0.0,0.0,0.0,0.0,0.0,0.0,0.0,0.0,0.0,0.0,0.0,0.0,0.0,0.0,0.0,0.0,0.0,0.0,0.0,0.0,0.0,0.0,0.0,0.0,0.0,0.0,0.0,0.0,0.0,0.0,0.0,0.0,0.0,0.0,0.0,0.0,0.0,0.0,0.0,0.0,0.0,0.0,0.0,0.0,0.0,0.0,0.0,0.0,0.0,0.0,0.0,0.0,0.0,0.0,0.0,0.0,0.0,0.0,0.0,0.0,0.0,0.0,0.0,0.0,0.0,0.0,0.0,0.0,0.0,0.0,0.0,0.0,0.0,0.0,0.0,0.0,0.0,0.0,0.0,0.0,0.0,0.0,0.0,0.0,0.0,0.0,0.0,0.0,0.0,0.0,0.0,0.0,0.0,0.0,0.0,0.0,0.0,0.0,0.0,0.0,0.0,0.0,0.0,0.0,0.0,0.0,0.0,0.0,0.0,0.0,0.0,0.0,0.0,0.0,0.0,0.0,0.0,0.0,0.0,0.0,0.0,0.0,0.0,0.0,0.0,0.0,0.0,0.0,0.0,0.0,0.0,0.0,0.0,0.0,0.0,0.0,0.0,0.0,0.0,0.0,0.0,0.0,0.0,0.0,0.0,0.0,0.0,0.0,0.0,0.0,0.0,0.0,0.0,0.0,0.0,0.0,0.0,0.0,0.0,0.0,0.0,0.0,0.0,0.0,0.0,0.0,0.0,0.0,0.0,0.0,0.0,0.0,0.0,0.0,0.0,0.0,0.0,0.0,0.0,0.0,0.0,0.0,0.0,0.0,0.0,0.0,0.0,0.0,0.0,0.0,0.0,0.0,0.0,0.0,0.0,0.0,0.0,0.0,0.0,0.0,0.0,0.0,0.0,0.0,0.0,0.0,0.0,0.0,0.0,0.0,0.0,0.0,0.0,0.0,0.0,0.0,0.0,0.0,0.0,0.0,0.0,0.0,0.0,0.0,0.0,0.0,0.0,0.0,0.0,0.0,0.0,0.0,0.0,0.0,0.0,0.0,0.0,0.0,0.0,0.0,0.0,0.0,0.0,0.0,0.0,0.0,0.0,0.0,0.0,0.0,0.0,0.0,0.0,0.0,0.0,0.0,0.0,0.0,0.0,0.0,0.0,0.0,0.0,0.0,0.0,0.0,0.0,0.0,0.0,0.0,0.0,0.0,0.0,0.0,0.0,0.0,0.0,0.0,0.0,0.0,0.0,0.0,0.0,0.0,0.0,0.0,0.0,0.0,0.0,0.0,0.0,0.0,0.0,0.0,0.0,0.0,0.0,0.0,0.0,0.0,0.0,0.0,0.0,0.0,0.0,0.0,0.0,0.0,0.0,0.0,0.0,0.0,0.0,0.0,0.0,0.0,0.0,0.0,0.0,0.0,0.0,0.0,0.0,0.0,0.0,0.0,0.0,0.0,0.0,0.0,0.0,0.0,0.0,0.0,0.0,0.0,0.0,0.0,0.0,0.0,0.0,0.0,0.0,0.0,0.0,0.0,0.0,0.0,0.0,0.0,0.0,0.0,0.0,0.0,0.0,0.0,0.0,0.0,0.0,0.0,0.0,0.0,0.0,0.0,0.0,0.0,0.0,0.0,0.0,0.0,0.0,0.0,0.0,0.0,0.0,0.0,0.0,0.0,0.0,0.0,0.0,0.0,0.0,0.0,0.0,0.0,0.0,0.0,0.0,0.0,0.0,0.0,0.0,0.0,0.0,0.0,0.0,0.0,0.0,0.0,0.0,0.0,0.0,0.0,0.0,0.0,0.0,0.0,0.0,0.0,0.0,0.0,0.0,0.0,0.0,0.0,0.0,0.0,0.0,0.0,0.0,0.0,0.0,0.0,0.0,0.0,0.0,0.0,0.0,0.0,0.0,0.0,0.0,0.0,0.0,0.0,0.0,-0.3578,0.0,0.0,0.0,0.0,0.0,0.0,0.0,0.0,0.0,0.0,0.0,0.0,0.0,0.0,0.0,0.0,0.0,0.0,0.0,0.0,0.0,0.0,0.0,0.0,-0.5901,-0.6383,-0.6304,-0.6295,-0.6295,-0.6295,0.0,0.0,0.0,0.0,0.0,-0.6153,-0.6144,-0.6215,-0.6373,-0.6373,-0.6857,-0.7792,-0.7579,-0.6927,-0.5968,0.0,0.0,0.0,0.0,0.0,0.0,0.0,0.0,0.0,0.0,0.0,0.0,0.0,0.0,0.0,0.0,0.0,0.0,0.0,0.0,0.0,0.0,0.0,0.0,0.0,0.0,0.0,0.0,0.0,0.0,0.0,0.0,0.0,0.0,0.0,0.0,0.0,0.0,0.0,0.0,0.0,0.0,0.0,0.0,0.0,0.0,0.0,0.0,0.0,0.0,0.0,0.0,0.0,0.0,0.0,0.0,0.0,0.0,0.0,0.0,0.0,0.0,0.0,0.0,0.0,0.0,0.0,0.0,0.0,0.0,0.0,-0.4714,0.0,0.0,0.0,0.0,0.0,0.0,0.0,0.0,0.0,0.0,0.0,0.0,0.0,0.0,0.0,0.0,0.0,0.0,0.0,0.0,0.0,-0.5105,-0.546,-0.5975,-0.6295,-0.6295,-0.6295,-0.6295,-0.6295,-0.6295,0.0,0.0,0.0,-0.6295,-0.6295,-0.6391,-0.67,-0.7239,-0.7624,-0.8442,-0.9681,-1.0063,-0.9356,-0.7807,-0.7682,0.0,0.0,0.0,0.0,0.0,0.0,0.0,0.0,0.0,0.0,0.0,0.0,0.0,0.0,0.0,0.0,0.0,0.0,0.0,0.0,0.0,0.0,0.0,0.0,0.0,0.0,0.0,0.0,0.0,0.0,0.0,0.0,0.0,0.0,0.0,0.0,0.0,0.0,0.0,0.0,0.0,0.0,0.0,0.0,0.0,0.0,0.0,0.0,0.0,0.0,0.0,0.0,0.0,0.0,0.0,0.0,0.0,0.0,0.0,0.0,0.0,0.0,0.0,-0.9787,-0.9883,-1.0063,-1.0063,-1.0063,-0.9919,-0.7309,-0.6844,-0.7913,0.0,0.0,0.0,0.0,0.0,0.0,0.0,0.0,0.0,0.0,0.0,0.0,0.0,0.0,0.0,0.0,0.0,0.0,0.0,0.0,-0.5623,-0.5512,-0.5975,-0.6295,-0.6295,-0.6295,-0.6295,-0.6295,-0.6295,0.0,0.0,-0.6295,-0.6295,-0.6295,-0.676,-0.7263,-0.7792,-0.9656,-1.0918,-1.1559,-1.2058,0.0,-1.1417,-0.9647,-0.9251,-0.9728,0.0,0.0,0.0,0.0,0.0,0.0,0.0,0.0,0.0,0.0,0.0,0.0,0.0,0.0,0.0,0.0,0.0,0.0,0.0,0.0,0.0,0.0,0.0,0.0,0.0,0.0,0.0,0.0,0.0,0.0,0.0,0.0,0.0,0.0,0.0,0.0,0.0,0.0,0.0,0.0,0.0,-0.6236,-0.6009,0.0,0.0,0.0,0.0,0.0,0.0,0.0,0.0,0.0,0.0,0.0,0.0,0.0,0.0,-0.9262,-1.0208,-1.0767,-1.0906,-1.0906,-1.1389,-1.2288,-1.2288,-1.2288,-1.2264,-1.1842,0.0,-0.7973,-0.8896,0.0,0.0,0.0,0.0,0.0,0.0,0.0,0.0,0.0,0.0,0.0,0.0,0.0,0.0,0.0,0.0,0.0,0.0,0.0,0.0,0.0,-0.6616,-0.6868,-0.7179,-0.7479,-0.7395,-0.6784,0.0,0.0,-0.6331,-0.6295,-0.6439,-0.6748,-0.7275,-0.8249,-0.9692,-1.1548,-1.2716,-1.3264,-1.3756,0.0,-1.416,-1.272,-1.1633,-1.0758,-0.9429,0.0,0.0,0.0,0.0,0.0,0.0,0.0,0.0,0.0,0.0,0.0,0.0,0.0,0.0,0.0,0.0,0.0,0.0,0.0,0.0,0.0,0.0,0.0,0.0,0.0,0.0,0.0,0.0,0.0,0.0,0.0,0.0,0.0,0.0,0.0,0.0,0.0,0.0,0.0,-0.5542,-0.668,-0.6821,-0.7508,-0.7315,0.0,0.0,0.0,0.0,0.0,0.0,0.0,0.0,0.0,-1.0566,-0.9976,-0.9919,-1.0382,-1.1479,-1.2005,-1.2005,-1.2005,-1.2252,-1.2705,-1.2705,-1.2705,-1.279,-1.43,-1.4155,-1.2716,-1.1067,-0.9769,-0.8687,0.0,0.0,0.0,0.0,-0.7762,-1.0638,0.0,0.0,0.0,0.0,0.0,0.0,0.0,0.0,0.0,0.0,0.0,0.0,-0.701,-0.7227,-0.7515,-0.8068,-0.8465,0.0,0.0,0.0,-0.7347,-0.6544,-0.6367,-0.6547,-0.7085,-0.8165,-0.9778,-1.1921,-1.3246,-1.4161,0.0,0.0,0.0,0.0,0.0,0.0,0.0,0.0,0.0,0.0,0.0,0.0,0.0,0.0,0.0,0.0,0.0,0.0,0.0,0.0,0.0,0.0,0.0,0.0,0.0,0.0,0.0,0.0,0.0,0.0,0.0,0.0,0.0,0.0,0.0,0.0,0.0,0.0,0.0,0.0,0.0,0.0,0.0,0.0,0.0,0.0,0.0,-0.6181,-0.7188,-0.7405,-0.8648,-0.9073,0.0,0.0,0.0,0.0,0.0,0.0,-1.1594,-1.4939,-1.5465,-1.2808,-1.2595,-1.2548,-1.2548,-1.3321,-1.3711,-1.3711,-1.3039,-1.2705,-1.2753,-1.3758,-1.4278,-1.4365,-1.6362,-1.7228,-1.6991,-1.3812,-1.1643,-1.0307,-1.0204,-0.9482,-0.8484,-0.8484,-1.0666,-1.3775,0.0,0.0,0.0,0.0,0.0,0.0,0.0,0.0,0.0,0.0,0.0,-0.6753,-0.7066,0.0,-0.808,-0.861,-0.8682,-0.867,0.0,0.0,-0.7109,-0.7061,-0.658,-0.6547,-0.7085,-0.962,-1.1993,0.0,0.0,0.0,0.0,0.0,0.0,0.0,0.0,0.0,0.0,0.0,0.0,0.0,0.0,0.0,0.0,0.0,0.0,0.0,0.0,0.0,0.0,0.0,0.0,0.0,0.0,0.0,0.0,0.0,0.0,0.0,0.0,0.0,0.0,0.0,0.0,0.0,0.0,0.0,0.0,0.0,0.0,0.0,0.0,0.0,0.0,0.0,0.0,0.0,0.0,0.0,0.0,-0.812,-0.936,0.0,0.0,0.0,0.0,-1.0181,-1.1435,-1.2598,-1.3719,-1.5635,-1.5582,-1.3135,-1.5263,-1.6423,-1.6423,-1.6486,-1.6484,-1.6484,-1.3922,-1.2705,-1.282,-1.6705,-1.8487,-1.8487,-1.8632,-1.8678,-1.8567,-1.7038,-1.4884,-1.2788,-1.5294,-1.5402,-1.4183,-1.4183,-1.5186,-1.6491,0.0,0.0,0.0,-0.3598,-0.4093,-0.4625,-0.5018,-0.5701,-0.6226,-0.637,-0.6797,-0.7421,0.0,-0.8705,-0.9348,-1.0403,0.0,-1.0464,0.0,0.0,-0.8646,-0.8646,-0.7881,-0.8373,-1.0349,-1.226,-1.3812,0.0,0.0,0.0,0.0,0.0,0.0,0.0,0.0,0.0,0.0,0.0,0.0,0.0,0.0,0.0,0.0,0.0,0.0,0.0,0.0,0.0,0.0,0.0,0.0,0.0,0.0,0.0,0.0,0.0,0.0,0.0,0.0,0.0,0.0,0.0,0.0,0.0,0.0,0.0,0.0,0.0,0.0,0.0,0.0,0.0,0.0,0.0,0.0,0.0,0.0,0.0,0.0,-0.9785,-1.0493,0.0,0.0,-1.0019,-0.9882,-1.0931,-1.2818,-1.4438,-1.5622,-1.6351,-1.52,-1.1924,-1.4999,-1.7125,-1.8028,-1.8036,-1.8036,-1.8036,-1.7086,-1.663,-1.669,-1.8133,-1.8781,-1.8781,-1.8781,-1.8781,-1.8742,-1.8242,-1.7495,-1.6639,-1.6702,-1.6388,-1.5944,-1.5944,-1.6269,-1.6689,-0.3634,-0.362,0.0,-0.3598,-0.4261,-0.4936,-0.5346,-0.5947,-0.6511,-0.6914,-0.7405,-0.8089,0.0,0.0,0.0,0.0,0.0,0.0,0.0,0.0,-0.969,-0.951,-0.929,-1.0288,-1.2623,-1.3858,-1.4861,0.0,0.0,0.0,0.0,0.0,0.0,0.0,0.0,0.0,0.0,0.0,0.0,0.0,0.0,0.0,-1.0829,0.0,0.0,0.0,0.0,0.0,0.0,0.0,0.0,0.0,0.0,0.0,0.0,0.0,0.0,0.0,0.0,0.0,0.0,0.0,0.0,0.0,0.0,0.0,0.0,0.0,0.0,0.0,0.0,0.0,0.0,0.0,0.0,0.0,0.0,0.0,-1.0602,-1.1259,-1.1868,-1.2205,-1.2043,-1.167,-1.168,-1.2349,-1.4196,-1.5714,-1.6642,-1.6689,-1.5572,-1.306,-1.539,-1.7363,-1.8765,-1.8781,-1.8781,-1.8781,-1.8781,-1.8781,-1.8781,-1.8781,-1.8781,-1.8781,-1.8781,-1.8781,-1.8781,-1.8781,-1.8781,-1.8686,-1.7759,-1.7402,-1.7402,-1.7402,-1.7402,-1.7402,-0.3697,-0.3642,-0.3607,-0.3629,-0.4618,-0.5407,-0.5421,-0.6272,-0.7045,-0.7452,-0.8093,-0.8776,0.0,0.0,0.0,0.0,0.0,0.0,0.0,-1.0618,-1.0087,-0.9594,-1.0751,-1.2115,-1.3636,-1.4305,0.0,0.0,0.0,0.0,0.0,0.0,0.0,0.0,0.0,0.0,0.0,0.0,0.0,0.0,0.0,0.0,-1.2656,0.0,0.0,0.0,0.0,0.0,0.0,0.0,0.0,0.0,0.0,0.0,0.0,0.0,0.0,0.0,0.0,0.0,0.0,0.0,0.0,0.0,0.0,0.0,0.0,0.0,0.0,0.0,0.0,0.0,0.0,0.0,0.0,0.0,-0.9899,-1.102,-1.2155,-1.2459,-1.3466,-1.3998,-1.363,-1.3624,-1.3934,-1.4581,-1.5952,-1.6761,-1.6761,-1.6761,-1.6761,-1.6761,-1.6761,-1.741,-1.8765,-1.8781,-1.8781,-1.8781,-1.8781,-1.8781,-1.8781,-1.8781,-1.8781,-1.8781,-1.8781,-1.8781,-1.8781,-1.8781,-1.8781,-1.8781,-1.8781,-1.8781,-1.8781,-1.8781,-1.8781,-1.8781,-0.3705,-0.3642,-0.373,-0.418,-0.4895,-0.5549,-0.599,-0.6616,-0.7206,-0.7655,-0.822,0.0,0.0,0.0,0.0,0.0,0.0,-1.2077,-1.2246,-1.1027,-1.0655,-1.1416,-1.3161,0.0,-1.4962,0.0,0.0,0.0,0.0,0.0,0.0,0.0,0.0,0.0,0.0,0.0,0.0,0.0,0.0,0.0,0.0,0.0,-1.4301,0.0,0.0,0.0,0.0,0.0,0.0,0.0,0.0,0.0,0.0,0.0,0.0,0.0,0.0,0.0,0.0,0.0,0.0,0.0,0.0,0.0,0.0,0.0,0.0,0.0,0.0,0.0,0.0,0.0,0.0,0.0,0.0,-1.423,-1.2062,-1.2767,-1.3731,-1.4371,-1.4909,-1.531,-1.5457,-1.5233,-1.5181,-1.5372,-1.7167,-1.8211,-1.8211,-1.8211,-1.8211,-1.8211,-1.8211,-1.8393,-1.8781,-1.8781,-1.8781,-1.8781,-1.8781,-1.8781,-1.8781,-1.8781,-1.8781,-1.8781,-1.8781,-1.8781,-1.8781,-1.8781,-1.8781,-1.8781,-1.8781,-1.8781,-1.8781,-1.8781,-1.8781,-1.8781,-0.3709,-0.3852,-0.4089,-0.4439,-0.5208,-0.5895,-0.6255,-0.6716,-0.7291,-0.8039,-0.8649,0.0,0.0,0.0,0.0,0.0,0.0,-1.2099,-1.1769,-1.1262,-1.1709,-1.3374,0.0,0.0,0.0,0.0,0.0,0.0,0.0,0.0,0.0,0.0,0.0,0.0,0.0,0.0,0.0,0.0,0.0,0.0,0.0,0.0,-1.5934,-1.5199,-1.4021,-1.2806,-1.3029,-1.2788,-1.2258,-1.1644,0.0,0.0,0.0,0.0,0.0,0.0,0.0,0.0,0.0,0.0,0.0,0.0,0.0,0.0,0.0,0.0,0.0,0.0,0.0,0.0,0.0,0.0,0.0,0.0,-1.6066,-1.6313,-1.4913,-1.4768,-1.4997,-1.5569,-1.5912,-1.6261,-1.6619,-1.6595,-1.6596,-1.6596,-1.7969,-1.8781,-1.8781,-1.8781,-1.8781,-1.8781,-1.8781,-1.8781,-1.8781,-1.8781,-1.8781,-1.8781,-1.8781,-1.8781,-1.8781,-1.8781,-1.8781,0.0,-1.8781,-1.8781,-1.8781,-1.8781,-1.8781,0.0,0.0,0.0,0.0,0.0,-1.8781,-1.8781,-0.3821,-0.4189,-0.4559,-0.4685,-0.5595,-0.6323,-0.6384,-0.6695,-0.7306,-0.8388,0.0,0.0,0.0,0.0,0.0,0.0,0.0,-1.205,0.0,0.0,0.0,-1.5154,-1.5417,0.0,0.0,0.0,0.0,0.0,0.0,0.0,0.0,0.0,0.0,0.0,0.0,0.0,0.0,0.0,0.0,0.0,0.0,0.0,-1.7388,-1.6331,-1.5864,-1.5708,-1.5127,-1.4919,-1.4654,-1.2914,0.0,0.0,0.0,0.0,0.0,0.0,0.0,0.0,0.0,0.0,0.0,0.0,0.0,0.0,0.0,0.0,0.0,0.0,0.0,0.0,0.0,0.0,0.0,0.0,-1.8715,-1.8141,-1.7821,-1.6865,-1.6244,-1.6293,-1.6603,-1.6945,-1.7334,-1.7655,-1.7846,-1.7926,-1.847,-1.8781,-1.8781,0.0,0.0,0.0,0.0,-1.8781,-1.8781,-1.8781,-1.8781,-1.8781,-1.8781,-1.8781,-1.8781,-1.8781,-1.8781,-1.8781,-1.8781,-1.8781,-1.8781,-1.8781,-1.8874,-1.8966,-1.8827,-1.8781,-1.8827,-1.905,-1.9004,-1.8781,-0.4463,-0.4514,-0.4867,-0.5792,-0.6146,-0.6452,-0.6877,-0.7015,-0.7314,-0.8022,-0.8655,0.0,0.0,0.0,0.0,0.0,0.0,0.0,0.0,0.0,-1.4511,0.0,0.0,0.0,0.0,0.0,0.0,0.0,0.0,0.0,0.0,0.0,0.0,0.0,0.0,0.0,0.0,0.0,0.0,0.0,0.0,0.0,-1.7953,-1.7027,-1.6329,-1.578,-1.5658,-1.561,-1.555,-1.5178,-1.4502,-1.3795,-1.359,0.0,0.0,0.0,0.0,0.0,0.0,0.0,0.0,0.0,0.0,0.0,0.0,0.0,0.0,0.0,0.0,0.0,0.0,0.0,0.0,-1.9146,-1.9173,-1.9045,-1.8985,-1.8784,-1.822,-1.7223,-1.7127,-1.7382,-1.7906,-1.7842,-1.8009,-1.8581,-1.8748,-1.8781,-1.8781,-1.8781,0.0,-1.8781,-1.8781,-1.8781,-1.8781,-1.8781,-1.8781,-1.8781,0.0,0.0,-1.8781,-1.8781,-1.8781,-1.8781,-1.8781,-1.8781,-1.8781,-1.8781,-1.9271,-1.994,-1.9142,-1.8781,-1.9004,-2.0574,-2.0175,-1.8781,-0.5561,-0.557,-0.5685,-0.6256,-0.6549,-0.679,-0.7058,-0.7099,-0.734,-0.8013,-0.8299,0.0,0.0,0.0,0.0,0.0,0.0,0.0,0.0,0.0,0.0,0.0,0.0,0.0,0.0,0.0,0.0,0.0,0.0,0.0,0.0,0.0,0.0,0.0,0.0,0.0,0.0,0.0,0.0,0.0,0.0,0.0,-1.8644,-1.8134,-1.7724,-1.7255,-1.6199,-1.6042,-1.6283,-1.5912,-1.5466,-1.4995,-1.473,-1.3744,-1.2613,0.0,0.0,0.0,0.0,0.0,0.0,0.0,0.0,0.0,0.0,0.0,0.0,0.0,0.0,-1.1008,0.0,0.0,-1.8935,-1.9613,-1.9683,-1.9698,-1.9596,-1.9596,-1.9174,-1.8038,-1.8029,-1.8145,-1.8097,-1.8224,-1.8446,-1.8758,-1.8781,-1.8781,-1.8781,-1.8781,-1.8781,-1.8781,-1.8781,-1.8781,-1.8781,-1.8781,-1.8781,-1.8781,-1.8781,-1.8781,-1.8781,-1.8781,-1.8781,-1.8781,-1.8781,-1.9903,-2.1596,-2.097,-2.0836,-2.0934,-2.0439,-2.0039,-1.9857,-2.0844,-2.1373,-2.1641,-0.6563,-0.6656,-0.6596,-0.6575,-0.6865,-0.7099,-0.7099,-0.7099,-0.7308,-0.7911,-0.8013,-0.8264,-0.8857,-0.8853,-0.8933,0.0,0.0,0.0,0.0,0.0,0.0,0.0,0.0,0.0,0.0,0.0,0.0,0.0,0.0,0.0,0.0,0.0,0.0,0.0,0.0,0.0,0.0,0.0,0.0,0.0,0.0,0.0,-1.9158,-1.8895,-1.8867,-1.8734,-1.6727,-1.6295,-1.6594,-1.6006,-1.5792,-1.572,-1.5289,-1.4818,-1.4277,-1.3402,-1.2704,0.0,0.0,0.0,0.0,0.0,0.0,0.0,0.0,0.0,-1.5658,-1.7385,-1.6503,-1.5707,-1.6569,-1.7614,-1.8676,-1.9765,-2.0067,-2.0158,-2.0021,-2.0005,-1.9803,-1.9185,-1.9054,-1.8876,-1.8479,-1.8643,-1.8781,-1.8781,-1.8781,-1.8781,-1.8781,-1.8781,-1.8781,-1.8781,-1.8781,-1.8781,-1.8781,-1.8781,-1.8781,-1.8781,-1.8781,-1.8781,-1.8781,-1.8781,-1.8781,-1.8827,-1.9188,-2.1105,-2.3874,-2.3062,-2.2394,-2.1952,-2.1952,-2.173,-2.1418,-2.123,-2.2438,-2.4186,-0.6847,-0.7098,-0.7262,-0.7219,-0.7144,-0.7099,-0.7099,-0.7099,-0.7134,-0.721,-0.7776,-0.8208,-0.8286,-0.86,-0.9298,0.0,0.0,0.0,0.0,0.0,0.0,0.0,0.0,0.0,0.0,0.0,0.0,0.0,0.0,0.0,0.0,0.0,0.0,0.0,0.0,0.0,0.0,0.0,0.0,0.0,0.0,0.0,-1.9109,-1.8327,-1.842,-1.8794,-1.7303,-1.6414,-1.5922,-1.5816,-1.5792,-1.578,-1.572,-1.5336,-1.4893,-1.4773,0.0,-1.3409,-1.3819,-1.3773,0.0,-1.5495,-1.5341,-1.5459,0.0,0.0,-2.0516,-1.9813,-1.9171,-1.8797,-1.8926,-1.9063,-1.9219,-1.9366,-2.0008,-2.0442,-2.0428,-2.0428,-2.0659,-2.1246,-1.9951,-1.9178,-1.9575,-1.9109,-1.8781,-1.8781,-1.8781,-1.8781,-1.8781,-1.8781,-1.8781,-1.8781,-1.8781,-1.8781,-1.8781,-1.8781,-1.8781,-1.8781,-1.8781,-1.8781,-1.8781,-1.8781,-1.8781,-1.892,-2.0619,-2.1606,-2.205,-2.2746,-2.3008,-2.2921,-2.2921,-2.342,-2.396,-2.3149,-2.2833,-2.2974,-0.7584,-0.771,-0.7717,-0.7611,-0.7328,-0.7155,-0.7306,-0.7264,-0.7246,-0.7321,-0.7567,-0.7751,-0.7792,-0.794,-0.8586,-0.9919,-1.0859,0.0,-1.5143,0.0,0.0,0.0,0.0,0.0,0.0,0.0,0.0,0.0,0.0,0.0,0.0,0.0,0.0,0.0,0.0,0.0,0.0,0.0,0.0,0.0,0.0,0.0,-1.9774,-1.8707,-1.8211,-1.7917,-1.6691,-1.6331,0.0,0.0,-1.5792,-1.5792,-1.5792,-1.5432,-1.5013,-1.5013,-1.4926,0.0,-1.6051,0.0,0.0,0.0,-1.754,-1.779,-1.92,-1.9911,-2.0379,-2.0741,-2.011,-1.959,-1.9963,-1.9657,-1.9457,0.0,-2.0292,-2.0644,-2.1119,-2.1183,-2.1193,-2.122,-2.0819,-2.0381,-1.9849,-1.9882,-1.9982,-1.9982,-1.9982,-1.9745,-1.9279,-1.9279,-1.9096,-1.8827,-1.8781,-1.8781,-1.8781,-1.8781,-1.9034,-1.9431,-1.9431,-1.9431,-1.9415,-1.901,-1.9685,-2.1328,-2.3295,-2.3812,-2.3396,-2.4351,-2.4567,-2.4301,-2.4301,-2.441,-2.4411,-2.3454,-2.3367,-2.3787,-0.8118,-0.8076,-0.7948,-0.7891,-0.7499,-0.7251,-0.7438,-0.7373,-0.7332,-0.7429,-0.7444,-0.7446,-0.7492,-0.7514,-0.7972,-0.9061,-1.0204,-1.1927,0.0,-1.5518,0.0,0.0,0.0,0.0,0.0,0.0,0.0,0.0,0.0,0.0,0.0,0.0,0.0,0.0,0.0,0.0,0.0,0.0,0.0,0.0,0.0,0.0,-1.985,-1.8784,-1.802,-1.74,-1.6471,-1.616,0.0,0.0,-1.5298,-1.5358,-1.5202,-1.4998,-1.4866,-1.5133,-1.5696,-1.6465,-1.7468,0.0,0.0,-1.8794,-1.9439,-2.0009,-2.0576,-2.0416,-2.0453,-2.1611,-2.0982,-2.0366,-2.0855,-2.005,0.0,-2.0081,-2.0558,-2.1019,-2.1604,-2.1302,-2.1136,-2.1344,-2.1444,-2.1256,-2.0664,-2.0654,-2.0708,-2.0843,-2.0753,-2.0391,-1.9828,-1.9691,-1.9417,-1.905,-1.8874,-1.9006,-1.9372,-1.9142,-1.9272,-1.9773,-2.0035,-2.0491,-2.1046,-2.1122,-2.2166,-2.4,-2.5406,-2.5594,-2.4955,-2.5603,-2.5689,-2.5409,-2.5409,-2.5202,-2.4805,-2.3998,-2.4018,-2.4497,-0.8197,-0.8043,-0.7949,-0.8075,-0.7709,-0.7392,-0.7399,-0.7341,-0.7306,-0.7314,-0.7427,-0.7492,-0.7499,-0.7552,-0.7856,-0.8473,-0.9744,-1.1343,-1.3321,-1.5167,0.0,0.0,0.0,0.0,0.0,0.0,0.0,0.0,0.0,0.0,0.0,0.0,0.0,0.0,0.0,0.0,0.0,0.0,0.0,0.0,0.0,0.0,-1.8759,-1.808,-1.7798,-1.7725,-1.7238,0.0,0.0,0.0,-1.4021,-1.4241,-1.3734,-1.3915,0.0,-1.549,-1.6523,0.0,0.0,0.0,-1.7912,-1.9941,-2.0732,-2.1265,-2.2037,-2.2212,-2.2353,-2.2844,-2.2306,-2.1749,-2.1769,-2.0401,-1.9311,-1.9329,-2.0668,-2.1668,-2.1687,-2.0374,-2.0172,-2.23,-2.1583,-2.138,0.0,-2.1275,-2.051,-2.0952,-2.0555,-2.0292,-2.0292,-1.9874,-1.9592,-1.9592,-1.905,-1.948,-2.0826,-1.9914,-1.9479,-1.951,-2.0406,-2.1979,-2.4051,-2.6098,-2.6775,-2.6315,-2.6361,-2.6175,-2.5875,-2.5875,-2.5875,-2.5854,-2.5854,-2.5854,-2.5792,-2.5313,-2.489,-2.4497,-0.8265,-0.8203,-0.8176,-0.8218,-0.7956,-0.7717,-0.7672,-0.7498,-0.7382,-0.7421,-0.7513,0.0,0.0,0.0,0.0,0.0,-0.9754,-1.1151,-1.2642,-1.4906,0.0,0.0,0.0,0.0,0.0,0.0,0.0,0.0,0.0,0.0,0.0,0.0,0.0,0.0,0.0,0.0,0.0,0.0,0.0,0.0,0.0,0.0,-2.0226,-1.8711,-1.8106,-1.7727,0.0,0.0,0.0,0.0,0.0,0.0,-1.4454,0.0,0.0,-1.5922,0.0,0.0,0.0,0.0,-2.0484,-2.1395,-2.1944,-2.2395,-2.2703,-2.2772,-2.2728,-2.2575,-2.2126,-2.1949,-2.2515,-2.0769,-1.9659,-2.0698,-2.214,-2.3105,-2.3105,-2.265,-2.2291,-2.2369,-2.2368,0.0,0.0,0.0,0.0,-2.2167,-2.2043,-2.1802,-2.1472,-2.0546,-2.0192,-2.0501,-2.0322,-2.0408,-2.0814,-2.0838,-2.0925,-2.1176,-2.2425,-2.3642,-2.4796,-2.5528,-2.626,-2.7009,-2.7009,-2.6946,-2.6843,-2.6843,-2.6656,-2.6376,-2.6376,-2.6144,-2.5854,-2.572,-2.5378,-2.491,-0.8293,-0.8293,-0.8302,-0.8298,-0.8075,0.0,0.0,0.0,0.0,0.0,0.0,0.0,0.0,0.0,0.0,0.0,0.0,-1.0368,-1.1632,0.0,0.0,0.0,0.0,0.0,0.0,0.0,0.0,0.0,0.0,0.0,0.0,0.0,0.0,0.0,0.0,0.0,0.0,0.0,0.0,0.0,0.0,0.0,-1.9349,-1.7881,-1.7329,0.0,0.0,0.0,0.0,0.0,0.0,0.0,0.0,0.0,0.0,0.0,0.0,-1.9066,0.0,-2.1292,-2.2036,-2.2742,-2.3218,-2.3453,-2.3257,-2.3165,-2.2947,-2.2185,-2.1407,-2.1037,-2.1566,-2.0237,-1.9743,-2.1703,-2.2616,-2.342,-2.4413,-2.3791,-2.3333,-2.3552,-2.33,0.0,0.0,0.0,0.0,-2.3178,-2.2925,-2.2662,-2.2325,-2.1392,-2.114,-2.1654,-2.156,-2.1865,-2.2479,-2.2316,-2.2404,-2.2791,-2.4067,-2.4894,-2.5343,-2.5732,-2.6418,-2.7309,-2.7309,-2.7309,-2.7309,-2.7309,-2.7133,-2.6864,-2.6864,-2.6677,-2.6397,-2.6231,-2.5947,-2.5627,-0.8293,-0.8293,-0.8293,0.0,0.0,0.0,0.0,0.0,0.0,0.0,0.0,0.0,0.0,0.0,0.0,0.0,0.0,0.0,-1.0314,0.0,0.0,0.0,0.0,-1.5388,-1.5552,-1.6258,-1.6881,0.0,0.0,0.0,0.0,0.0,0.0,0.0,0.0,0.0,0.0,0.0,0.0,0.0,0.0,0.0,-1.6451,-1.5815,0.0,0.0,0.0,0.0,0.0,0.0,0.0,0.0,0.0,0.0,0.0,0.0,0.0,-2.0193,-2.1419,-2.206,-2.2711,-2.3966,-2.4452,-2.4465,-2.3754,-2.3478,-2.3002,-2.1755,-2.0249,-1.9133,0.0,0.0,-1.9489,-2.2066,-2.2078,-2.2698,-2.5454,-2.3918,-2.3303,0.0,0.0,0.0,0.0,0.0,0.0,-2.3973,0.0,-2.2925,-2.2925,-2.2378,-2.2344,-2.2892,-2.2884,-2.3741,-2.5501,-2.4326,-2.3897,-2.4187,-2.5285,-2.579,-2.5839,-2.6822,-2.7309,-2.7309,-2.7309,-2.7309,-2.7309,-2.7309,-2.7309,-2.7309,-2.7309,-2.7309,-2.7258,-2.6812,-2.6635,-2.6444,0.0,0.0,0.0,0.0,0.0,0.0,0.0,0.0,0.0,0.0,0.0,0.0,0.0,0.0,0.0,0.0,0.0,0.0,0.0,0.0,0.0,0.0,0.0,0.0,0.0,-1.538,0.0,0.0,0.0,0.0,0.0,0.0,0.0,0.0,0.0,0.0,0.0,0.0,0.0,0.0,0.0,0.0,-1.6639,0.0,0.0,0.0,0.0,0.0,0.0,0.0,0.0,0.0,0.0,0.0,-1.8554,0.0,0.0,-2.1921,-2.3365,-2.4426,-2.5134,-2.5164,-2.5232,-2.4948,-2.3727,-2.312,-2.232,-2.0681,-1.9331,-1.8163,-1.7213,0.0,0.0,-2.0862,-2.1953,0.0,-2.4935,-2.5062,0.0,0.0,0.0,-2.4555,-2.4893,-2.4903,0.0,0.0,-2.4733,-2.4348,-2.4348,-2.3717,-2.3722,-2.4553,-2.4906,-2.5262,-2.5668,-2.5523,-2.5412,-2.5294,-2.637,-2.687,-2.6918,-2.7167,-2.7309,-2.7309,-2.7309,-2.7309,-2.7309,-2.7309,-2.7309,-2.7309,-2.7309,-2.7309,-2.7299,-2.7175,-2.6915,-2.6584,0.0,0.0,0.0,0.0,0.0,0.0,0.0,0.0,0.0,0.0,0.0,0.0,0.0,0.0,0.0,0.0,0.0,0.0,0.0,0.0,0.0,0.0,0.0,0.0,0.0,0.0,0.0,0.0,0.0,0.0,0.0,0.0,0.0,0.0,0.0,0.0,0.0,0.0,0.0,0.0,0.0,0.0,0.0,0.0,0.0,0.0,0.0,0.0,0.0,0.0,0.0,-1.6811,-1.8061,-1.9023,-1.9916,-2.0983,0.0,-2.346,-2.4566,-2.5648,-2.6332,-2.5872,-2.561,-2.4956,-2.319,-2.2324,-2.1221,-1.8885,-1.7861,0.0,0.0,0.0,0.0,0.0,0.0,0.0,-2.4751,-2.5293,-2.5422,0.0,-2.5338,0.0,-2.5338,-2.553,-2.5787,0.0,-2.5605,-2.5208,-2.5208,-2.5013,-2.5251,-2.5962,-2.6324,-2.6491,-2.6404,-2.6574,-2.6562,-2.6428,-2.7013,-2.7309,-2.7309,-2.7309,-2.7309,-2.7309,0.0,-2.7309,-2.7309,-2.7309,-2.7309,-2.7309,-2.7309,-2.7309,-2.7309,-2.7309,-2.7143,-2.6915,0.0,0.0,0.0,0.0,0.0,0.0,0.0,0.0,0.0,0.0,0.0,0.0,0.0,0.0,0.0,0.0,0.0,0.0,0.0,0.0,0.0,0.0,0.0,0.0,0.0,0.0,0.0,0.0,0.0,0.0,0.0,0.0,0.0,0.0,0.0,0.0,0.0,0.0,0.0,0.0,0.0,0.0,0.0,0.0,0.0,0.0,0.0,0.0,0.0,0.0,-1.7171,-1.7375,-1.9456,-2.0494,-2.1133,-2.2185,-2.346,-2.464,-2.5348,-2.6177,-2.6777,-2.6334,-2.5757,-2.474,-2.2544,-2.1354,-1.9878,-1.7033,0.0,0.0,-1.4532,0.0,-1.6978,-1.9049,0.0,-2.2184,-2.4839,-2.5068,-2.5179,-2.5801,-2.5895,-2.5895,-2.5895,-2.6301,-2.6584,-2.6584,-2.6172,-2.5897,-2.5834,-2.6256,-2.6756,-2.7222,-2.7402,-2.7476,-2.7452,-2.7394,-2.7404,-2.7357,-2.7309,-2.7309,-2.7309,-2.7309,-2.7309,-2.7309,0.0,0.0,-2.7309,-2.7309,-2.7309,-2.7309,-2.7309,-2.7309,-2.7309,-2.7309,-2.7309,-2.7309,0.0,0.0,0.0,0.0,0.0,0.0,0.0,0.0,0.0,0.0,-0.7946,-0.7605,0.0,0.0,0.0,0.0,0.0,0.0,0.0,0.0,0.0,0.0,0.0,0.0,0.0,0.0,0.0,0.0,0.0,0.0,0.0,0.0,0.0,0.0,0.0,0.0,0.0,0.0,0.0,0.0,0.0,0.0,0.0,0.0,0.0,0.0,0.0,0.0,0.0,0.0,-1.7869,-1.9528,-2.1235,-2.2137,-2.2763,-2.3809,-2.428,-2.4796,-2.6225,-2.6753,-2.6873,-2.6777,-2.6009,-2.4748,-2.2647,-2.0569,0.0,0.0,0.0,-1.4362,-1.3905,-1.4657,0.0,-1.8971,0.0,0.0,0.0,0.0,-2.5324,0.0,0.0,0.0,0.0,0.0,0.0,0.0,0.0,0.0,-2.703,-2.7464,-2.7952,-2.8476,-2.8533,-2.8448,-2.8207,-2.8008,-2.7762,-2.7547,-2.7404,-2.7309,-2.7309,-2.7309,-2.7309,-2.7309,-2.7309,0.0,-2.7309,-2.7309,-2.7309,-2.7309,-2.7309,-2.7309,-2.7309,-2.7309,-2.7309,-2.7309,0.0,0.0,0.0,0.0,0.0,0.0,0.0,-0.8207,-0.836,-0.9031,-0.9106,-0.8865,-0.8201,-0.7808,0.0,0.0,0.0,0.0,0.0,0.0,0.0,0.0,0.0,0.0,0.0,0.0,0.0,0.0,0.0,0.0,0.0,0.0,0.0,0.0,0.0,0.0,0.0,0.0,0.0,0.0,0.0,0.0,0.0,0.0,0.0,0.0,0.0,0.0,0.0,0.0,-1.7411,-1.9336,-2.1512,-2.2558,-2.3216,-2.4184,-2.4723,-2.5155,-2.6214,-2.6681,-2.6825,-2.6562,-2.5373,-2.3694,-2.1641,0.0,0.0,0.0,0.0,-1.3375,-1.2985,0.0,0.0,0.0,0.0,0.0,0.0,0.0,0.0,0.0,0.0,0.0,0.0,0.0,0.0,0.0,0.0,0.0,-2.7674,-2.8145,-2.847,-2.8571,-2.8581,-2.8477,-2.8196,-2.7914,-2.7726,-2.7584,-2.7404,-2.7309,-2.7309,-2.7309,-2.7309,-2.7309,-2.7309,0.0,-2.7309,-2.7309,-2.7309,-2.7309,-2.7309,-2.7309,-2.7309,-2.7309,-2.7309,-2.7309,0.0,0.0,0.0,0.0,0.0,0.0,0.0,-0.8678,-0.8886,-0.9691,-1.0088,-0.9928,-0.8915,-0.8346,-0.7916,0.0,0.0,0.0,0.0,0.0,0.0,0.0,0.0,0.0,0.0,0.0,0.0,0.0,0.0,0.0,0.0,0.0,0.0,0.0,0.0,0.0,0.0,0.0,0.0,0.0,0.0,0.0,0.0,0.0,0.0,0.0,0.0,0.0,0.0,0.0,-1.6379,-1.7928,-2.0394,-2.1765,-2.2698,-2.3713,-2.447,-2.5119,-2.5757,-2.6334,-2.6585,-2.6069,-2.4562,-2.2681,-2.0523,-1.7977,0.0,0.0,0.0,-1.2529,-1.2254,0.0,0.0,0.0,0.0,0.0,0.0,0.0,0.0,0.0,0.0,0.0,0.0,0.0,0.0,0.0,0.0,0.0,-2.8211,-2.8549,-2.871,-2.8488,-2.8488,-2.8384,-2.8186,-2.7857,-2.7678,-2.7678,-2.7404,-2.7309,-2.7309,-2.7309,-2.7309,-2.7309,-2.7309,0.0,0.0,-2.7309,-2.7309,-2.7309,-2.7309,-2.7309,-2.7309,-2.7309,-2.7309,-2.7309,0.0,0.0,0.0,0.0,0.0,0.0,0.0,-0.8678,-0.9037,-1.0266,-0.9986,-0.9642,-0.9511,-0.9453,-0.8935,0.0,0.0,0.0,0.0,0.0,0.0,0.0,0.0,0.0,0.0,0.0,0.0,0.0,0.0,0.0,0.0,0.0,0.0,0.0,0.0,0.0,0.0,0.0,0.0,0.0,0.0,0.0,0.0,0.0,0.0,0.0,0.0,0.0,0.0,0.0,0.0,-1.5588,-1.7303,-1.9203,-2.1036,-2.2089,0.0,0.0,-2.5107,-2.5769,-2.6045,-2.5516,-2.4206,-2.2392,-2.002,0.0,0.0,0.0,-1.2401,-1.1755,-1.2134,0.0,0.0,0.0,0.0,0.0,0.0,0.0,0.0,0.0,0.0,0.0,0.0,0.0,0.0,0.0,0.0,0.0,0.0,-2.8781,-2.8803,-2.8757,-2.8757,-2.8757,-2.871,-2.8233,-2.7951,-2.7951,-2.7489,-2.7309,-2.7309,-2.7309,-2.7309,-2.7309,-2.7309,0.0,0.0,-2.7309,-2.7309,-2.7309,-2.7309,-2.7309,-2.7309,-2.7309,-2.7309,-2.7309,0.0,0.0,0.0,0.0,0.0,0.0,-0.8582,-0.8628,-0.9051,-1.0328,-1.0639,-1.0587,-1.0189,-1.0076,-0.937,0.0,0.0,0.0,0.0,0.0,0.0,0.0,0.0,0.0,0.0,0.0,0.0,0.0,0.0,0.0,0.0,0.0,0.0,0.0,0.0,0.0,0.0,0.0,0.0,0.0,0.0,0.0,0.0,0.0,0.0,0.0,0.0,0.0,0.0,0.0,0.0,0.0,-1.4955,-1.6269,0.0,0.0,-2.1783,-2.2642,-2.4047,-2.4759,-2.5095,-2.4879,-2.3171,-2.1183,-1.9722,0.0,0.0,-1.3451,-1.2335,-1.1646,-1.2103,-1.2343,-1.2921,0.0,-1.4864,0.0,0.0,0.0,0.0,0.0,0.0,0.0,0.0,0.0,0.0,0.0,0.0,0.0,0.0,-2.8803,-2.8803,-2.8803,-2.8803,-2.8803,-2.8803,-2.8279,-2.7998,-2.7987,-2.7536,-2.7309,-2.7309,-2.7309,-2.7309,-2.7309,-2.7309,0.0,0.0,-2.7309,-2.7309,-2.7309,-2.7309,-2.7309,-2.7309,-2.7309,-2.7309,-2.7309,0.0,0.0,0.0,0.0,0.0,-0.7822,-0.8493,-0.8603,-0.9002,-1.0092,-1.0635,-1.0762,-1.0291,-0.9889,-0.9157,-0.7915,0.0,0.0,0.0,0.0,0.0,0.0,0.0,0.0,0.0,0.0,0.0,0.0,0.0,0.0,0.0,0.0,0.0,0.0,0.0,0.0,0.0,0.0,0.0,0.0,0.0,0.0,0.0,0.0,0.0,0.0,0.0,0.0,0.0,0.0,0.0,0.0,0.0,0.0,0.0,0.0,-2.0073,-2.1129,-2.254,-2.3412,-2.3845,-2.3589,-2.1977,-2.0158,0.0,0.0,-1.3707,-1.3281,-1.2276,-1.1602,-1.1929,-1.2213,-1.2638,0.0,-1.3838,-1.4908,-1.7197,0.0,0.0,0.0,0.0,0.0,0.0,0.0,0.0,0.0,0.0,0.0,0.0,-2.8377,-2.8508,-2.8792,-2.8803,-2.8803,-2.8803,-2.8326,-2.8092,-2.7998,-2.7584,-2.7357,-2.7309,-2.7309,-2.7309,-2.7309,0.0,0.0,0.0,-2.7309,-2.7309,-2.7309,-2.7309,-2.7309,-2.7309,-2.7309,-2.7309,-2.7309,0.0,0.0,0.0,0.0,0.0,0.0,-0.8493,-0.8603,-0.8842,-0.9526,-0.9613,-0.9613,-0.9613,-0.8724,-0.8171,-0.8289,0.0,0.0,0.0,0.0,0.0,0.0,0.0,0.0,0.0,0.0,0.0,-0.9697,-0.9633,0.0,0.0,0.0,0.0,0.0,0.0,0.0,0.0,0.0,0.0,0.0,0.0,0.0,0.0,0.0,0.0,0.0,0.0,0.0,0.0,0.0,0.0,0.0,0.0,0.0,0.0,0.0,-1.7966,-1.9646,-2.0658,-2.1714,-2.2321,-2.1467,-2.0717,-1.9643,0.0,-1.5498,-1.3868,-1.3072,-1.2169,-1.1504,-1.1515,-1.2278,-1.291,-1.29,-1.4132,-1.5771,0.0,0.0,0.0,0.0,0.0,0.0,0.0,0.0,0.0,0.0,0.0,0.0,0.0,-2.7326,-2.7763,-2.8771,-2.8803,-2.8803,-2.8803,-2.8535,-2.8243,-2.7998,-2.7726,-2.7489,-2.7309,-2.7309,-2.7309,0.0,0.0,0.0,0.0,-2.7309,-2.7309,-2.7309,-2.7309,-2.7309,-2.7309,-2.7309,-2.7309,-2.7309,0.0,0.0,0.0,0.0,0.0,0.0,0.0,-0.7909,-0.8149,-0.8828,-0.8915,-0.9089,-0.954,-0.8664,-0.805,-0.8086,0.0,0.0,0.0,0.0,0.0,0.0,0.0,0.0,0.0,0.0,-0.8593,-0.9633,-0.9608,-0.9958,0.0,0.0,0.0,0.0,0.0,0.0,0.0,0.0,0.0,0.0,0.0,0.0,0.0,0.0,0.0,0.0,0.0,0.0,0.0,0.0,0.0,0.0,0.0,0.0,0.0,-1.3583,0.0,0.0,-1.8756,-1.9487,-1.9738,-1.9108,-1.8274,-1.724,-1.5888,-1.4373,-1.3124,-1.2538,-1.1929,-1.1504,-1.1504,-1.1744,-1.2376,-1.3707,0.0,0.0,0.0,0.0,0.0,0.0,0.0,0.0,0.0,0.0,0.0,0.0,0.0,0.0,0.0,-2.7315,-2.761,-2.8244,-2.7949,-2.8091,-2.8792,-2.8199,-2.7968,-2.7998,-2.7726,-2.7489,-2.7309,-2.7309,0.0,0.0,0.0,0.0,0.0,-2.7309,-2.7309,-2.7309,-2.7309,-2.7309,-2.7309,-2.7309,-2.7309,-2.7309,0.0,0.0,0.0,0.0,0.0,0.0,0.0,-0.7605,-0.7742,-0.8172,-0.8215,-0.8445,-0.9048,-0.8243,-0.7725,-0.791,0.0,0.0,0.0,0.0,0.0,0.0,0.0,0.0,0.0,-0.7956,-0.8465,-0.9567,-0.9967,-1.0278,-1.051,-1.0642,0.0,0.0,0.0,0.0,0.0,0.0,0.0,0.0,0.0,0.0,-0.9222,0.0,0.0,0.0,0.0,0.0,0.0,0.0,0.0,0.0,0.0,0.0,0.0,0.0,-1.3203,-1.4974,0.0,-1.7254,-1.7417,-1.6952,-1.6318,-1.5604,-1.4653,-1.3519,-1.2551,-1.2265,-1.182,-1.1504,-1.1504,-1.1798,-1.2431,-1.3641,0.0,0.0,0.0,0.0,0.0,0.0,0.0,0.0,0.0,0.0,0.0,0.0,0.0,0.0,0.0,0.0,-2.7009,-2.7445,-2.7381,-2.7687,-2.8473,-2.8052,-2.7909,-2.8149,-2.7857,-2.7631,-2.7404,-2.7309,0.0,0.0,0.0,0.0,0.0,-2.7309,-2.7309,-2.7309,-2.7309,-2.7309,-2.7309,-2.7309,-2.7309,-2.7309,0.0,0.0,0.0,0.0,0.0,0.0,0.0,-0.7605,-0.7605,-0.7605,-0.7597,-0.7751,-0.818,-0.7532,-0.724,-0.7693,0.0,0.0,0.0,0.0,0.0,0.0,0.0,0.0,-0.7794,-0.7665,-0.8216,-0.951,-1.057,-1.063,-0.9774,-1.1764,-1.1644,-0.9738,0.0,0.0,0.0,0.0,0.0,0.0,0.0,-0.9211,0.0,0.0,0.0,0.0,0.0,0.0,0.0,0.0,0.0,0.0,0.0,0.0,0.0,0.0,0.0,0.0,0.0,-1.4994,-1.5261,-1.4938,-1.4794,-1.4508,-1.3707,-1.2855,0.0,-1.2167,-1.1798,-1.1526,-1.1591,-1.228,-1.29,-1.3096,0.0,0.0,0.0,0.0,0.0,0.0,0.0,0.0,0.0,0.0,0.0,0.0,0.0,0.0,0.0,0.0,-2.6103,-2.6519,-2.6988,-2.7413,-2.7936,-2.7903,-2.8017,-2.8294,-2.8049,-2.7825,-2.7584,-2.7404,0.0,0.0,0.0,0.0,0.0,-2.7309,-2.7309,-2.7309,-2.7309,-2.7309,-2.7309,-2.7309,-2.7309,-2.7309,0.0,0.0,0.0,0.0,0.0,0.0,0.0,0.0,0.0,0.0,-0.7507,-0.7471,-0.7525,-0.7093,-0.6842,0.0,0.0,0.0,0.0,0.0,0.0,0.0,0.0,0.0,-0.7048,-0.7369,-0.818,-0.951,-1.057,-1.1391,-1.1957,-1.2451,-1.2427,-1.1885,-1.0351,-0.9618,0.0,0.0,0.0,0.0,-0.945,-0.9426,0.0,0.0,0.0,0.0,-0.951,-0.951,0.0,0.0,0.0,0.0,0.0,0.0,0.0,0.0,-1.0046,-1.0244,-1.1223,0.0,-1.2749,-1.2608,-1.2709,-1.2685,0.0,-1.2103,0.0,0.0,0.0,0.0,0.0,0.0,0.0,0.0,0.0,0.0,0.0,0.0,0.0,0.0,0.0,0.0,0.0,0.0,0.0,0.0,0.0,0.0,0.0,0.0,-2.595,-2.607,-2.6179,-2.6638,-2.7479,-2.6965,-2.6992,-2.7533,-2.7349,-2.7295,-2.7357,-2.7309,0.0,0.0,0.0,0.0,-2.7809,-2.7441,-2.7404,-2.7489,-2.7357,-2.7309,-2.7309,-2.7309,-2.7309,-2.7309,0.0,0.0,0.0,0.0,0.0,0.0,0.0,0.0,0.0,0.0,0.0,0.0,0.0,0.0,0.0,0.0,0.0,0.0,0.0,0.0,0.0,0.0,0.0,-0.6336,-0.6792,-0.6989,-0.7744,-0.9083,-0.9947,-1.1196,-1.279,-1.279,-1.3263,-1.3997,-1.0879,-0.951,0.0,0.0,0.0,0.0,0.0,0.0,0.0,0.0,0.0,0.0,-0.951,-0.951,0.0,-0.951,-0.951,-0.9458,0.0,0.0,0.0,0.0,-0.9225,-0.9252,-0.9766,-1.0787,-1.1697,-1.1667,-1.1927,-1.2134,-1.1875,0.0,0.0,0.0,0.0,0.0,0.0,0.0,0.0,0.0,0.0,0.0,0.0,0.0,0.0,0.0,0.0,0.0,0.0,0.0,0.0,0.0,0.0,0.0,0.0,0.0,-2.5895,-2.5895,-2.5812,-2.6171,-2.6988,-2.6617,-2.6736,-2.7315,-2.7099,-2.6999,-2.6955,-2.6862,-2.6806,0.0,0.0,0.0,-2.8177,-2.7996,-2.8351,-2.8841,-2.8211,-2.8211,-2.8527,-2.762,-2.7584,-2.7857,0.0,0.0,0.0,0.0,0.0,0.0,0.0,0.0,0.0,0.0,0.0,0.0,0.0,0.0,0.0,0.0,0.0,0.0,0.0,0.0,0.0,0.0,0.0,-0.6093,-0.6647,-0.6607,-0.707,-0.8074,-0.8842,-1.034,-1.2514,-1.2778,-1.3506,-1.4417,-1.1002,-0.951,0.0,0.0,0.0,0.0,0.0,0.0,0.0,0.0,0.0,0.0,0.0,0.0,0.0,-0.9474,-0.951,-0.9457,-0.9188,0.0,0.0,0.0,0.0,0.0,-0.9275,-1.0484,-1.1591,-1.1526,-1.1907,-1.232,0.0,0.0,0.0,0.0,0.0,0.0,0.0,0.0,0.0,0.0,0.0,0.0,0.0,0.0,0.0,0.0,0.0,0.0,0.0,0.0,0.0,0.0,0.0,0.0,0.0,0.0,0.0,-2.5895,-2.5728,-2.5881,-2.6432,-2.6432,-2.6661,-2.7118,-2.6919,-2.674,-2.6525,-2.628,-2.61,0.0,0.0,0.0,-2.8366,-2.8499,-2.9317,-3.0302,-2.9315,-2.9441,-2.9988,-2.8175,-2.8045,-2.8585,0.0,0.0,0.0,0.0,0.0,0.0,0.0,0.0,0.0,0.0,0.0,0.0,0.0,0.0,0.0,0.0,0.0,0.0,0.0,0.0,0.0,-0.6168,-0.6039,-0.5988,-0.6031,-0.6296,-0.6168,-0.5642,-0.7202,-0.8921,-1.0733,-1.221,-1.1489,-0.8968,-0.9331,-0.951,-0.951,0.0,0.0,0.0,0.0,0.0,0.0,0.0,0.0,0.0,0.0,0.0,0.0,-0.9342,-0.951,-0.9457,-0.9188,0.0,0.0,0.0,0.0,0.0,-0.9725,-1.1009,-1.2014,-1.1602,-1.2158,-1.2781,0.0,0.0,0.0,0.0,0.0,0.0,0.0,0.0,0.0,0.0,0.0,0.0,0.0,0.0,0.0,0.0,0.0,0.0,0.0,0.0,0.0,0.0,0.0,0.0,0.0,0.0,0.0,-2.5895,-2.5853,-2.5813,-2.5763,-2.5529,-2.5723,-2.6357,-2.615,-2.6133,-2.628,-2.6235,-2.6201,0.0,0.0,-2.6779,-2.8064,-2.8096,-2.8779,-2.9839,-2.9919,-3.0079,-3.0079,-2.8899,-2.8585,-2.8585,0.0,0.0,0.0,0.0,0.0,0.0,0.0,0.0,0.0,0.0,0.0,0.0,0.0,0.0,0.0,0.0,0.0,0.0,0.0,0.0,0.0,-0.6254,-0.5922,-0.5712,-0.5686,-0.6617,-0.6447,-0.5098,-0.6849,-0.9065,-1.1712,-1.1565,-1.0635,-0.9114,-0.9379,-0.9137,-0.8469,-0.7527,0.0,-0.861,0.0,0.0,0.0,0.0,0.0,0.0,0.0,0.0,0.0,0.0,-0.8964,-0.896,-0.8937,0.0,0.0,0.0,0.0,0.0,-0.9163,-1.0529,-1.182,-1.1864,-1.2987,-1.4012,0.0,0.0,0.0,0.0,0.0,0.0,0.0,0.0,0.0,0.0,0.0,0.0,0.0,0.0,0.0,0.0,0.0,0.0,0.0,0.0,0.0,0.0,0.0,0.0,0.0,0.0,-2.5895,-2.5895,-2.577,-2.5686,-2.5601,-2.5327,-2.5445,-2.5883,-2.5797,-2.569,-2.5665,-2.5665,-2.5784,-2.6055,0.0,-2.7225,-2.889,-2.902,-2.9789,-3.0803,-3.0276,-3.0581,-3.1117,-2.9931,-2.8863,-2.7904,0.0,0.0,0.0,0.0,0.0,0.0,0.0,0.0,0.0,0.0,0.0,0.0,0.0,0.0,0.0,0.0,0.0,0.0,0.0,0.0,-0.5839,-0.6157,-0.5874,-0.576,-0.5843,-0.6668,-0.6839,-0.6326,-0.8071,-1.0078,-1.2269,-1.0929,-1.0087,-0.9674,-0.9258,-0.8339,-0.7005,-0.5661,-0.6105,-0.7646,0.0,0.0,0.0,0.0,0.0,0.0,0.0,0.0,0.0,0.0,0.0,0.0,0.0,0.0,0.0,-0.8645,-0.86,-0.8658,-0.8887,-1.0206,-1.1646,-1.2213,0.0,0.0,0.0,0.0,0.0,0.0,0.0,0.0,0.0,0.0,0.0,0.0,0.0,0.0,0.0,0.0,0.0,0.0,0.0,0.0,0.0,0.0,0.0,0.0,0.0,0.0,0.0,0.0,-2.5937,-2.6177,-2.5812,-2.5686,-2.579,-2.5622,-2.5496,-2.5517,-2.5717,-2.5675,-2.5443,-2.5642,-2.5883,-2.6133,-2.6466,-2.7671,-2.9371,-2.9723,-3.0491,-3.1438,-3.0638,-3.0964,-3.1746,-3.0738,-2.9214,-2.7631,0.0,0.0,0.0,0.0,0.0,0.0,0.0,0.0,0.0,0.0,0.0,0.0,0.0,0.0,0.0,0.0,0.0,0.0,0.0,0.0,-0.5631,-0.5485,-0.6024,-0.6508,-0.6884,-0.5845,-0.6813,-0.9931,-1.1682,-1.1839,-1.0488,-1.0361,-0.9434,-0.7885,-0.7847,-0.6878,-0.5282,-0.5156,-0.5856,-0.706,-0.7016,0.0,0.0,0.0,0.0,0.0,0.0,0.0,0.0,0.0,0.0,0.0,0.0,0.0,-0.8775,-0.8645,-0.86,-0.881,-0.9736,-1.0725,-1.1722,-1.2606,0.0,0.0,0.0,0.0,0.0,0.0,0.0,0.0,0.0,0.0,0.0,0.0,0.0,0.0,0.0,0.0,0.0,0.0,0.0,0.0,0.0,0.0,0.0,0.0,0.0,0.0,0.0,0.0,0.0,-2.7062,-2.6135,-2.5874,-2.6442,-2.6434,-2.603,-2.5242,-2.603,-2.6321,-2.6155,-2.6946,-2.7221,-2.7028,-2.7021,-2.7655,-2.8638,-2.9128,-2.9857,-3.0721,-3.1157,-3.1132,-3.0886,-3.0793,-2.9857,-2.8585,0.0,0.0,0.0,0.0,0.0,0.0,0.0,0.0,0.0,0.0,0.0,0.0,0.0,0.0,0.0,0.0,0.0,0.0,0.0,-0.5319,-0.5421,-0.5642,-0.5613,-0.6175,-0.7404,-0.6956,-0.7895,-1.0303,-1.0958,-1.0948,-1.0283,-0.9189,-0.8334,-0.7656,-0.6567,-0.6324,-0.6657,-0.5827,-0.6016,-0.6845,-0.6509,-0.6476,0.0,0.0,0.0,0.0,0.0,0.0,0.0,0.0,-0.7554,-0.7742,0.0,0.0,0.0,0.0,-0.86,-0.8676,-0.9065,-1.0529,-1.2016,-1.2376,0.0,0.0,0.0,0.0,0.0,0.0,0.0,0.0,0.0,0.0,0.0,0.0,0.0,0.0,0.0,0.0,0.0,0.0,0.0,0.0,0.0,0.0,0.0,0.0,0.0,0.0,0.0,0.0,0.0,-2.7742,-2.7244,-2.6999,-2.7139,-2.711,-2.6864,-2.6381,-2.6864,-2.7069,-2.7028,-2.7354,-2.7678,-2.7971,-2.7971,-2.8462,-2.9312,-2.951,-2.9806,-3.0156,-3.0696,-3.0429,-2.9834,-3.0548,-2.9716,-2.8228,0.0,0.0,0.0,0.0,0.0,0.0,0.0,0.0,0.0,0.0,0.0,0.0,0.0,0.0,0.0,0.0,0.0,0.0,-0.5127,-0.5098,-0.5244,-0.5566,-0.5263,-0.5651,-0.6849,-0.6878,-0.8002,-1.0303,-1.0303,-1.0019,-0.9453,-0.8256,-0.7695,-0.7627,-0.5875,-0.6027,-0.7511,-0.653,-0.6376,-0.6754,-0.6223,-0.6126,0.0,0.0,0.0,0.0,0.0,0.0,0.0,0.0,-0.6867,-0.7146,0.0,0.0,0.0,0.0,-0.8821,-0.9076,-0.9076,-1.0605,-1.2256,0.0,0.0,0.0,0.0,0.0,0.0,0.0,0.0,0.0,0.0,0.0,0.0,0.0,0.0,0.0,0.0,0.0,0.0,0.0,0.0,0.0,0.0,0.0,0.0,0.0,0.0,0.0,0.0,0.0,0.0,0.0,-2.8011,-2.7758,-2.7931,-2.7931,-2.781,-2.7557,-2.8011,-2.8091,-2.7839,-2.8091,-2.8462,-2.8922,-2.8922,-2.9248,-2.9792,-2.9792,-2.9792,-2.9829,-3.0206,-3.0034,-2.9667,-3.0462,-2.9793,-2.86,0.0,0.0,0.0,0.0,0.0,0.0,0.0,0.0,0.0,0.0,0.0,0.0,0.0,0.0,0.0,0.0,0.0,0.0,-0.5127,-0.5098,-0.5098,-0.5098,-0.5098,-0.5098,-0.5098,-0.5117,-0.6823,-1.0283,-1.0283,-0.9385,-0.7695,-0.7695,-0.7695,-0.7627,-0.5914,-0.5951,-0.7292,-0.7096,-0.6936,-0.6748,-0.6224,-0.6126,-0.6295,0.0,0.0,0.0,0.0,0.0,0.0,0.0,-0.656,-0.6662,0.0,0.0,0.0,0.0,-0.9305,-1.0102,-1.0102,-1.1136,0.0,0.0,0.0,0.0,0.0,0.0,0.0,0.0,0.0,0.0,0.0,0.0,0.0,0.0,0.0,0.0,0.0,0.0,0.0,0.0,0.0,0.0,0.0,0.0,0.0,0.0,0.0,0.0,0.0,0.0,0.0,0.0,-2.8199,-2.7931,-2.8791,-2.8791,-2.8712,-2.8542,-2.9378,-2.9339,-2.8542,-2.9417,-2.9792,-2.9792,-2.9792,-2.9792,-2.9792,-2.9792,-2.9792,-2.9792,-2.9792,-3.0131,-3.0608,-3.062,-3.0355,-2.9941,0.0,0.0,0.0,0.0,0.0,0.0,0.0,0.0,0.0,0.0,0.0,0.0,0.0,0.0,0.0,0.0,0.0,0.0,-0.5146,-0.5098,-0.5098,-0.5098,-0.5098,-0.5098,-0.5098,-0.6304,-0.7433,-0.847,-0.847,-0.8207,-0.7695,-0.7695,-0.7695,-0.7725,-0.8447,-0.8137,-0.7108,-0.7474,-0.7276,-0.6733,-0.6761,-0.6584,-0.6343,0.0,0.0,0.0,0.0,0.0,0.0,0.0,0.0,0.0,0.0,0.0,0.0,-0.8655,-0.9546,-1.0524,-1.019,0.0,0.0,0.0,0.0,0.0,0.0,0.0,0.0,0.0,0.0,0.0,0.0,0.0,0.0,0.0,0.0,0.0,0.0,0.0,0.0,0.0,0.0,0.0,0.0,0.0,0.0,0.0,0.0,0.0,0.0,0.0,0.0,0.0,-2.947,-2.9248,-2.9507,-2.9507,-2.9456,-2.9417,-2.9675,-2.9663,-2.9417,-2.9663,-2.9792,-2.9792,-2.9792,-2.9792,-2.9792,-2.9792,-2.9792,-2.9792,-2.9792,-2.9892,-3.008,-3.047,-3.0068,-2.9421,0.0,0.0,0.0,0.0,0.0,0.0,0.0,0.0,0.0,0.0,0.0,-0.6295,0.0,0.0,0.0,0.0,0.0,0.0,0.0,-0.5338,-0.5272,-0.5108,-0.5098,-0.5098,-0.5098,-0.6129,-0.6664,-0.6664,-0.6664,-0.6664,-0.6696,-0.7876,-0.808,-0.7548,-0.8732,-0.8562,-0.7361,-0.7297,-0.7231,-0.7166,-0.7059,-0.6849,-0.6608,0.0,0.0,0.0,0.0,0.0,0.0,0.0,0.0,0.0,0.0,0.0,0.0,-0.8742,-0.976,-1.0818,-1.1285,0.0,0.0,0.0,0.0,0.0,0.0,0.0,0.0,0.0,0.0,0.0,0.0,0.0,0.0,0.0,0.0,0.0,0.0,0.0,0.0,0.0,0.0,0.0,0.0,0.0,0.0,0.0,0.0,0.0,0.0,0.0,0.0,0.0,-2.9972,-2.9792,-2.9792,-2.9792,-2.9792,-2.9792,-2.9792,-2.9792,-2.9792,-2.9792,-2.9792,-2.9792,-2.9792,-2.9792,-2.9792,-2.9792,-2.9792,-2.9792,-2.9792,-2.9792,-2.9829,-3.0168,-2.9901,-2.9379,0.0,0.0,-0.6381,-0.6357,0.0,0.0,0.0,0.0,0.0,0.0,-0.6413,-0.6295,0.0,0.0,0.0,-0.6295,0.0,0.0,0.0,0.0,-0.5537,-0.5175,-0.5117,-0.5098,-0.5098,-0.5098,-0.5137,-0.5214,-0.5137,-0.5098,-0.5166,-0.8006,-0.8592,-0.727,-0.7686,-0.7941,-0.7972,-0.6796,-0.6847,-0.7686,-0.7135,-0.6905,-0.6898,-0.6837,0.0,0.0,0.0,0.0,0.0,0.0,0.0,0.0,0.0,0.0,0.0,-0.8676,-0.988,-1.1056,0.0,0.0,0.0,0.0,0.0,0.0,0.0,0.0,0.0,0.0,0.0,0.0,0.0,0.0,0.0,0.0,0.0,0.0,0.0,0.0,0.0,0.0,0.0,0.0,0.0,0.0,0.0,0.0,0.0,0.0,0.0,0.0,0.0,0.0,-2.9895,-2.9792,-2.9792,-2.9792,-2.9792,0.0,-2.9792,-2.9792,-2.9792,-2.9792,-2.9792,-2.9792,-2.9792,-2.9792,-2.9792,-2.9792,-2.9792,-2.9792,-2.9792,-2.9792,-2.9792,-2.9792,-2.9792,-2.9738,0.0,0.0,-0.6417,-0.6716,0.0,0.0,0.0,0.0,-0.6655,-0.6404,-0.6334,-0.6295,-0.6295,-0.6295,0.0,-0.6295,-0.6144,0.0,0.0,0.0,-0.5658,-0.5574,-0.5272,-0.5098,-0.5098,-0.5098,-0.5404,-0.6034,-0.5404,-0.5098,-0.5146,-0.7151,-0.7904,-0.7642,-0.8659,-0.9128,-0.903,-0.7111,-0.6373,-0.6512,-0.6839,-0.6673,-0.6262,-0.6655,-0.6424,0.0,0.0,0.0,0.0,0.0,0.0,0.0,-0.6344,-0.7001,-0.7667,-0.8082,-0.9604,0.0,0.0,0.0,0.0,0.0,0.0,0.0,0.0,0.0,0.0,0.0,0.0,0.0,0.0,0.0,0.0,0.0,0.0,0.0,0.0,0.0,0.0,0.0,0.0,0.0,0.0,0.0,0.0,0.0,0.0,0.0,0.0,0.0,0.0,-3.0113,-2.9895,-2.9792,-2.9792,-2.9792,-2.9792,0.0,-2.9792,-2.9792,-2.9792,-2.9792,-2.9792,-2.9792,-2.9792,-2.9792,-2.9792,-2.9792,-2.9792,-2.9792,-2.9792,-2.9792,-2.9792,-2.9792,-2.9792,-2.9804,0.0,0.0,0.0,0.0,0.0,0.0,0.0,0.0,-0.6744,-0.6348,-0.6295,-0.6295,-0.6295,-0.6295,0.0,0.0,-0.6295,-0.6216,0.0,0.0,-0.5943,-0.5843,-0.5366,-0.5166,-0.529,-0.5546,-0.5695,-0.5723,-0.5695,-0.5677,-0.5701,-0.6908,-0.785,-0.8586,-0.9217,-0.8833,-0.7656,-0.6612,-0.6266,-0.6452,-0.6712,-0.6626,-0.6371,-0.6652,-0.6377,-0.5847,-0.5847,0.0,0.0,0.0,0.0,0.0,0.0,0.0,-0.7362,-0.8025,-0.9169,-1.0552,0.0,0.0,0.0,0.0,0.0,0.0,0.0,0.0,0.0,0.0,0.0,0.0,0.0,0.0,0.0,0.0,0.0,0.0,0.0,0.0,0.0,0.0,0.0,0.0,0.0,0.0,0.0,0.0,0.0,0.0,0.0,-3.0164,-2.9934,-2.9972,-2.9869,-2.9792,-2.9792,-2.9792,-2.9792,-2.9792,-2.9792,-2.9792,-2.9792,-2.9792,-2.9792,-2.9792,-2.9792,-2.9792,-2.9792,-2.9792,-2.9792,-2.9792,-2.9792,-2.9792,-2.9792,-2.9792,-2.9792,-2.9792,0.0,0.0,0.0,0.0,0.0,0.0,0.0,0.0,0.0,-0.6357,-0.6295,-0.6295,-0.6295,-0.6295,-0.6295,0.0,0.0,0.0,-0.5824,0.0,0.0,-0.5952,-0.5471,-0.5309,-0.5535,-0.6034,-0.5943,-0.5214,-0.5891,-0.6218,0.0,-0.7056,-0.8369,-1.0027,-0.9558,-0.8027,-0.5811,-0.6051,-0.6343,-0.6617,-0.6518,-0.6498,-0.6539,-0.654,-0.6235,-0.5802,-0.5802,-0.5802,-0.5813,-0.5892,0.0,0.0,0.0,0.0,-0.6728,-0.7882,-0.8531,-0.9435,0.0,0.0,0.0,0.0,0.0,0.0,0.0,0.0,0.0,0.0,0.0,0.0,0.0,0.0,0.0,0.0,0.0,0.0,0.0,0.0,0.0,0.0,0.0,0.0,0.0,0.0,0.0,0.0,0.0,0.0,-3.0111,-2.9986,-2.9859,-2.9641,-2.9741,-2.9792,-2.9792,-2.9792,-2.9792,-2.9792,-2.9792,-2.9792,-2.9792,-2.9792,-2.9792,-2.9792,-2.9792,-2.9792,-2.9792,-2.9792,-2.9792,-2.9792,-2.9792,-2.9792,-2.9792,-2.9792,-2.9792,-2.9792,0.0,0.0,0.0,0.0,0.0,0.0,0.0,0.0,0.0,0.0,-0.6295,-0.6295,-0.6295,-0.6295,-0.6295,-0.6295,-0.6295,-0.6278,0.0,0.0,0.0,-0.5751,-0.5667,-0.5639,-0.5677,-0.609,-0.6099,-0.5698,-0.5821,0.0,0.0,0.0,0.0,-1.2169,-0.9791,-0.7631,-0.5845,-0.6498,-0.6453,-0.5937,-0.5984,-0.5965,-0.592,-0.5923,-0.587,-0.5802,-0.5802,-0.5802,-0.5868,-0.6277,-0.6454,0.0,0.0,0.0,0.0,0.0,0.0,0.0,0.0,0.0,0.0,0.0,0.0,0.0,0.0,0.0,0.0,0.0,0.0,0.0,0.0,0.0,0.0,0.0,0.0,0.0,0.0,0.0,0.0,0.0,0.0,0.0,0.0,0.0,0.0,0.0,0.0,0.0,-2.892,-2.9184,-2.9214,-2.9051,-2.9528,-2.9792,-2.9792,-2.9792,-2.9792,-2.9792,-2.9792,-2.9792,-2.9792,-2.9792,-2.9792,-2.9792,-2.9792,-2.9792,-2.9792,-2.9792,-2.9792,-2.9792,-2.9792,-2.9792,-2.9792,-2.9792,-2.9792,-2.9792,0.0,0.0,0.0,0.0,0.0,0.0,0.0,0.0,0.0,0.0,0.0,-0.6295,-0.6295,-0.6295,-0.6295,-0.6295,-0.6295,0.0,0.0,0.0,0.0,-0.6034,-0.6034,-0.6034,-0.6034,-0.6018,-0.5948,-0.5802,0.0,0.0,0.0,-0.9955,-1.2496,0.0,0.0,0.0,-0.7878,0.0,-0.6551,-0.6168,-0.5941,-0.583,-0.5802,-0.5802,-0.5802,-0.5802,-0.5802,-0.5802,-0.5879,-0.6333,-0.6673,-0.6837,0.0,0.0,0.0,0.0,0.0,0.0,0.0,0.0,0.0,0.0,0.0,0.0,0.0,0.0,0.0,0.0,0.0,0.0,0.0,0.0,0.0,0.0,0.0,0.0,0.0,0.0,0.0,0.0,0.0,0.0,0.0,0.0,0.0,0.0,0.0,-2.869,-2.869,-2.8848,-2.8792,-2.8461,-2.8712,-2.9001,-2.9302,-2.9315,-2.9478,-2.9792,-2.9792,-2.9792,-2.9792,-2.9792,-2.9792,-2.9792,-2.9792,-2.9792,-2.9792,-2.9792,-2.9792,-2.9792,-2.9792,-2.9792,-2.9792,-2.9792,-2.9792,-2.9792,0.0,0.0,0.0,0.0,0.0,0.0,0.0,0.0,0.0,0.0,0.0,-0.6295,-0.6295,0.0,0.0,0.0,-0.6242,0.0,0.0,0.0,0.0,0.0,0.0,-0.6251,-0.6251,-0.5957,-0.5802,-0.5802,0.0,0.0,-0.7353,-1.2049,-1.4204,0.0,-1.0954,-0.9502,0.0,0.0,0.0,-0.6793,-0.609,-0.5802,-0.5802,-0.5802,-0.5802,-0.5835,-0.6079,0.0,0.0,0.0,0.0,0.0,0.0,0.0,0.0,0.0,0.0,0.0,0.0,0.0,0.0,0.0,0.0,0.0,0.0,0.0,0.0,0.0,0.0,0.0,0.0,0.0,0.0,0.0,0.0,0.0,0.0,0.0,0.0,0.0,0.0,0.0,0.0,0.0,0.0,0.0,0.0,-2.8219,-2.8267,-2.8372,-2.827,-2.7981,-2.807,-2.8298,-2.8675,-2.8813,-2.9151,-2.9578,-2.9729,-2.9792,-2.9792,-2.9792,-2.9792,-2.9792,-2.9792,-2.9792,-2.9792,-2.9792,-2.9792,-2.9792,-2.9792,-2.9792,-2.9792,-2.9792,-2.9792,-2.9792,0.0,0.0,0.0,0.0,0.0,0.0,0.0,0.0,0.0,0.0,0.0,-0.6295,-0.6295,-0.602,-0.583,-0.583,-0.612,0.0,0.0,0.0,0.0,0.0,0.0,0.0,-0.6103,-0.5911,-0.5802,0.0,0.0,0.0,-1.1246,-1.3012,-1.3697,-1.3412,-1.2636,-1.0944,-0.8647,0.0,0.0,-0.7712,-0.6343,-0.5802,-0.5802,-0.5802,-0.5802,-0.5914,0.0,0.0,0.0,0.0,0.0,0.0,0.0,0.0,0.0,0.0,0.0,0.0,0.0,0.0,0.0,0.0,0.0,0.0,0.0,0.0,0.0,0.0,0.0,0.0,0.0,0.0,0.0,0.0,0.0,0.0,0.0,0.0,0.0,0.0,0.0,0.0,0.0,0.0,0.0,0.0,0.0,-2.6883,-2.708,-2.7452,-2.7627,-2.764,-2.7942,-2.8122,-2.8147,-2.8662,-2.8913,-2.8938,-2.9528,-2.9792,-2.9792,-2.9792,-2.9792,-2.9792,-2.9792,-2.9792,-2.9792,-2.9792,-2.9792,-2.9792,-2.9792,-2.9792,-2.9792,-2.9792,-2.9792,-2.9792,0.0,0.0,0.0,0.0,0.0,0.0,0.0,0.0,0.0,0.0,0.0,0.0,0.0,-0.5876,-0.5802,-0.5802,-0.6111,0.0,0.0,0.0,0.0,0.0,0.0,0.0,0.0,-0.6063,0.0,0.0,0.0,-0.661,-0.8206,-1.0185,-1.0684,-0.9977,-1.0746,-1.116,-1.116,-0.9046,0.0,-0.9351,-0.6817,-0.7263,-0.973,-1.2187,-1.3124,-1.3158,0.0,0.0,0.0,0.0,0.0,0.0,0.0,-0.7535,-0.6911,-0.5971,0.0,0.0,0.0,0.0,0.0,0.0,0.0,0.0,0.0,0.0,0.0,0.0,0.0,0.0,0.0,0.0,0.0,0.0,0.0,0.0,0.0,0.0,0.0,0.0,0.0,0.0,0.0,0.0,0.0,0.0,0.0,0.0,-2.6794,-2.7067,-2.7112,-2.6905,-2.7024,-2.7253,-2.757,-2.8122,-2.8574,-2.8888,-2.9139,-2.9428,-2.9792,-2.9792,-2.9792,-2.9792,-2.9792,-2.9792,-2.9792,-2.9792,-2.9792,-2.9792,-2.9792,-2.9792,-2.9792,-2.9792,-2.9792,-2.9792,0.0,0.0,0.0,-0.7099,0.0,-0.7099,-0.7099,-0.6944,-0.6908,-0.7075,0.0,0.0,0.0,0.0,-0.602,-0.6153,-0.6242,-0.6339,-0.6423,-0.6465,0.0,0.0,0.0,0.0,0.0,0.0,0.0,0.0,0.0,0.0,0.0,-0.8694,-0.917,-0.8669,-0.9497,-1.072,0.0,0.0,0.0,-1.0588,0.0,0.0,-1.1914,0.0,-1.7199,0.0,0.0,0.0,0.0,0.0,0.0,0.0,0.0,-0.8118,-0.6881,-0.6101,0.0,0.0,0.0,0.0,0.0,0.0,0.0,0.0,0.0,0.0,0.0,0.0,0.0,0.0,0.0,0.0,0.0,0.0,0.0,0.0,0.0,0.0,0.0,0.0,0.0,0.0,0.0,0.0,0.0,0.0,0.0,0.0,-2.6679,-2.6773,-2.6739,-2.6499,-2.6499,-2.6663,-2.704,-2.7557,-2.8009,-2.8386,-2.8561,-2.885,-2.9239,-2.9415,-2.9503,-2.9515,-2.9704,-2.9792,-2.9792,-2.9792,-2.9792,-2.9792,-2.9792,-2.9792,-2.9792,-2.9792,-2.9792,-2.9792,-0.7099,-0.7099,-0.7099,-0.7099,-0.7099,-0.7099,-0.7099,-0.7099,-0.7099,-0.7099,0.0,0.0,0.0,0.0,0.0,-0.6861,-0.654,-0.6374,-0.651,-0.6509,0.0,0.0,0.0,0.0,0.0,0.0,0.0,0.0,0.0,0.0,0.0,0.0,-0.9392,-0.982,-0.9254,-0.9659,-1.0794,0.0,-1.1652,-1.135,0.0,-1.0526,-1.1967,0.0,0.0,0.0,-1.7225,-1.7212,0.0,0.0,0.0,0.0,0.0,-0.8776,-0.6841,-0.6252,-0.6512,0.0,0.0,0.0,0.0,0.0,0.0,0.0,0.0,0.0,0.0,0.0,0.0,0.0,0.0,0.0,0.0,0.0,0.0,0.0,0.0,0.0,0.0,0.0,0.0,0.0,0.0,0.0,0.0,0.0,0.0,-2.6505,-2.6629,-2.653,-2.6474,-2.6499,-2.6499,-2.6499,-2.6499,-2.7027,-2.7268,-2.7329,-2.7821,-2.8084,-2.8122,-2.8624,-2.8875,-2.8925,-2.9528,-2.9779,-2.9792,-2.9792,-2.9792,-2.9792,-2.9792,-2.9792,-2.9792,-2.9792,-2.9792,-2.9792,-0.7099,-0.7099,-0.7099,-0.7099,-0.7099,-0.7099,-0.7099,-0.7018,-0.6985,0.0,0.0,0.0,-0.6744,-0.6736,-0.6778,-0.6899,-0.6794,-0.6774,-0.6854,-0.6727,-0.6693,-0.6808,-0.6651,-0.6556,-0.6521,0.0,0.0,0.0,0.0,-0.671,-0.7108,-0.7441,-0.7941,0.0,-0.886,-0.9237,-0.9611,-0.9136,0.0,0.0,-1.1211,-1.1763,0.0,0.0,0.0,0.0,0.0,-1.7735,0.0,0.0,-1.5235,-1.3871,0.0,0.0,-0.812,-0.8045,-0.8417,-0.8754,-0.8329,0.0,0.0,0.0,0.0,0.0,0.0,0.0,0.0,0.0,0.0,0.0,0.0,0.0,0.0,0.0,0.0,0.0,0.0,0.0,0.0,0.0,0.0,0.0,0.0,0.0,0.0,0.0,-2.5541,-2.5489,-2.5456,-2.5723,-2.6059,-2.6474,-2.6499,-2.6499,-2.6499,-2.665,-2.6927,-2.7281,-2.7444,-2.772,-2.8109,-2.826,-2.8512,-2.89,-2.9063,-2.9402,-2.9792,-2.9792,-2.9792,-2.9792,-2.9792,-2.9792,-2.9792,-2.9792,-2.9792,-2.9792,-0.7099,-0.7099,-0.7099,-0.7099,-0.7099,-0.7099,-0.7099,-0.7034,-0.7009,0.0,0.0,0.0,-0.6985,-0.6927,-0.6908,-0.6908,-0.6908,-0.6916,-0.6946,-0.6854,-0.6833,-0.6959,-0.6812,-0.6723,-0.6723,-0.6723,-0.6672,0.0,0.0,-0.6723,-0.6727,-0.6885,-0.7168,-0.7558,-0.7943,-0.8341,-0.8645,-0.7782,0.0,0.0,-1.2665,0.0,0.0,-1.6323,-1.8057,0.0,0.0,0.0,-1.9509,-1.8506,-1.6988,0.0,0.0,-1.1048,-1.0052,-0.9441,-0.9812,0.0,-0.9817,0.0,0.0,0.0,0.0,0.0,0.0,0.0,0.0,0.0,0.0,0.0,0.0,0.0,0.0,0.0,0.0,0.0,0.0,0.0,0.0,0.0,0.0,0.0,0.0,0.0,0.0,-2.5211,-2.5116,-2.5033,-2.4904,-2.5141,-2.5523,-2.6122,-2.6135,-2.6248,-2.6499,-2.6499,-2.6663,-2.6977,-2.6977,-2.714,-2.7431,-2.7657,-2.7946,-2.8273,-2.87,-2.9076,-2.9453,-2.9691,-2.9792,-2.9792,-2.9792,-2.9792,-2.9792,-2.9792,-2.9792,-2.9792,0.0,-0.7099,-0.7099,-0.7099,-0.7099,-0.7193,-0.745,-0.7465,-0.7363,0.0,-0.6969,-0.7134,-0.778,-0.7279,-0.696,-0.7083,-0.6965,-0.6934,-0.6991,-0.6934,-0.6908,-0.6908,-0.6908,-0.6908,-0.6908,-0.6908,-0.6908,0.0,-0.6908,-0.6908,-0.6908,-0.6908,-0.6908,-0.6908,-0.6908,-0.7258,-0.7854,-0.7454,0.0,-1.0928,-1.3904,-1.4807,0.0,0.0,-1.7578,0.0,-1.9941,-2.0699,-2.0594,-1.9799,-1.8107,0.0,0.0,-1.2979,-1.2411,-1.085,-1.1102,0.0,-1.1804,-1.2178,0.0,0.0,0.0,0.0,-1.4192,-1.3576,0.0,0.0,0.0,0.0,0.0,0.0,0.0,0.0,0.0,0.0,0.0,0.0,0.0,0.0,0.0,0.0,0.0,-2.4705,-2.5101,-2.4988,-2.4906,-2.4817,-2.4732,-2.47,-2.4971,-2.5485,-2.5511,-2.5787,-2.6386,-2.6399,-2.6436,-2.6499,-2.6499,-2.6499,-2.6512,-2.7002,-2.7218,-2.7379,-2.8386,-2.8838,-2.8938,-2.9553,-2.9792,-2.9792,-2.9792,-2.9792,-2.9792,-2.9792,-2.9792,-2.9792,-0.7099,-0.7099,-0.7099,-0.7099,-0.7099,-0.7757,-0.9703,-0.9807,-0.9011,-0.7178,-0.6924,-0.8326,-1.2082,-0.914,-0.7271,-0.8184,-0.7428,-0.7087,-0.7519,-0.714,-0.6908,-0.6908,-0.6908,-0.6908,-0.6908,-0.6908,-0.6908,-0.6908,0.0,0.0,0.0,0.0,0.0,-0.6908,-0.6908,-0.6978,-0.7227,-0.8915,0.0,-1.0508,-1.2069,0.0,-1.8061,-1.947,-2.0031,-2.0083,-2.0542,-2.0699,-2.0607,0.0,-1.8836,-1.7527,0.0,0.0,0.0,0.0,0.0,-1.3576,-1.3031,-1.3308,-1.3607,-1.291,0.0,0.0,0.0,-1.3338,0.0,0.0,0.0,0.0,0.0,0.0,0.0,0.0,0.0,0.0,0.0,0.0,0.0,0.0,0.0,0.0,0.0,-2.2913,-2.3255,-2.4056,-2.3961,-2.3954,-2.413,-2.4167,-2.4406,-2.4958,-2.4938,-2.5222,-2.5762,-2.5774,-2.6034,-2.6499,-2.6499,-2.6499,-2.6499,-2.6612,-2.6901,-2.7354,-2.7984,-2.8511,-2.8938,-2.9553,-2.9792,-2.9792,-2.9792,-2.9792,-2.9792,-2.9792,-2.9792,-2.9792,-0.7099,-0.7099,-0.7099,-0.7099,-0.8095,-0.931,-1.0516,-1.0474,-0.9895,-0.8743,-0.9617,-1.1214,-1.3556,-1.1724,-0.9642,-0.7894,-0.8273,-0.822,-0.7358,-0.7292,-0.717,-0.6921,-0.6908,-0.6908,-0.6908,-0.6908,-0.6908,-0.6908,0.0,0.0,0.0,-0.6908,0.0,0.0,-0.761,-0.7354,-0.7524,0.0,-0.9921,-1.1276,-1.2829,0.0,-1.9028,-2.0229,-2.0699,-2.0699,-2.0699,-2.0699,-2.0555,-1.9447,-1.88,0.0,0.0,-1.685,-1.6347,0.0,-1.5248,-1.531,0.0,0.0,-1.4821,-1.4525,0.0,0.0,0.0,0.0,0.0,0.0,0.0,0.0,0.0,0.0,0.0,0.0,0.0,0.0,0.0,0.0,0.0,0.0,0.0,0.0,0.0,-2.1941,-2.2461,-2.318,-2.3118,-2.3213,-2.354,-2.3534,-2.3797,-2.4393,-2.4406,-2.4669,-2.5209,-2.5473,-2.5737,-2.6072,-2.6361,-2.6499,-2.6499,-2.6499,-2.665,-2.6939,-2.7457,-2.7846,-2.8172,-2.9013,-2.9365,-2.939,-2.9679,-2.9792,-2.9792,-2.9792,-2.9792,-2.9792,-0.726,-0.7195,-0.7099,-0.7099,-0.9097,-1.0668,-1.062,-1.0437,-1.0469,-1.0912,-1.2625,-1.3804,-1.3804,-1.3804,-1.2116,-0.7926,-0.9242,-0.9552,-0.7769,-0.7614,-0.7482,-0.7216,-0.704,-0.6936,-0.6908,-0.6908,-0.6908,-0.6908,0.0,0.0,0.0,-0.6908,-0.7906,-0.9694,0.0,0.0,0.0,0.0,0.0,-1.2477,0.0,-1.6068,-1.831,-1.9876,-2.0581,-2.0699,-2.0699,-2.0699,-2.0502,-1.913,0.0,-1.875,-1.764,-1.7579,0.0,0.0,0.0,0.0,0.0,0.0,0.0,0.0,0.0,-1.5537,0.0,0.0,0.0,-1.5304,0.0,0.0,0.0,0.0,0.0,0.0,0.0,0.0,0.0,0.0,0.0,0.0,0.0,0.0,0.0,-2.1213,-2.1843,-2.235,-2.2185,-2.2302,-2.2907,-2.2945,-2.3208,-2.3816,-2.3841,-2.4104,-2.4625,-2.5184,-2.5498,-2.5598,-2.6223,-2.6499,-2.6499,-2.6499,-2.6499,-2.6524,-2.7077,-2.7281,-2.7392,-2.836,-2.88,-2.895,-2.9566,-2.9792,-2.9792,-2.9792,-2.9792,-2.9792,-0.7861,-0.7508,-0.7099,-0.7099,-0.9097,-1.0621,-1.0374,-1.0312,-1.1056,-1.3121,-1.3634,-1.3804,-1.3804,0.0,0.0,0.0,0.0,0.0,-1.0346,0.0,-0.757,-0.8286,-0.7587,-0.7083,-0.6908,-0.6908,-0.6908,-0.6908,-0.6908,0.0,0.0,-0.6908,-0.7819,-0.9527,-1.1387,0.0,0.0,0.0,-1.2179,0.0,-1.3844,-1.4507,0.0,-1.8535,-2.0074,-2.0699,-2.0699,-2.0699,-2.0607,0.0,-1.9584,-1.9331,0.0,-1.8299,0.0,0.0,0.0,0.0,0.0,0.0,0.0,0.0,-1.7174,0.0,0.0,0.0,-1.5919,-1.5148,0.0,0.0,0.0,0.0,0.0,0.0,0.0,0.0,0.0,0.0,0.0,0.0,0.0,0.0,0.0,0.0,-2.0689,-2.1562,-2.0852,-2.0966,-2.2322,-2.2397,-2.2631,-2.3183,-2.3195,-2.3484,-2.4092,-2.4632,-2.5146,-2.5598,-2.6223,-2.6499,-2.6499,-2.6499,-2.6499,-2.6524,-2.7077,-2.7281,-2.7331,-2.7946,-2.8486,-2.895,-2.9566,-2.9792,-2.9792,-2.9792,-2.9792,-2.9792,-0.7546,-0.7292,-0.7099,-0.7099,-0.7946,-0.899,-1.0128,-1.0299,-1.0651,-1.1643,-1.2951,-1.4664,0.0,0.0,0.0,0.0,0.0,-1.5196,0.0,0.0,-0.9481,-0.9266,-0.8457,-0.7667,-0.6921,-0.6908,-0.7091,-0.7476,-0.7476,0.0,0.0,0.0,-0.8581,-1.0985,-1.1604,0.0,-1.3137,0.0,0.0,0.0,0.0,0.0,0.0,-1.9057,-1.9904,-2.1503,-2.1503,-2.1503,-2.1421,0.0,-2.0215,0.0,0.0,0.0,0.0,0.0,0.0,0.0,0.0,0.0,0.0,0.0,0.0,0.0,0.0,0.0,-1.6007,0.0,0.0,0.0,0.0,0.0,0.0,0.0,0.0,0.0,0.0,0.0,0.0,0.0,0.0,0.0,0.0,0.0,0.0,0.0,0.0,-2.0207,-2.1363,-2.1986,-2.2393,-2.2619,-2.2945,-2.3221,-2.3471,-2.4054,-2.4619,-2.5159,-2.5699,-2.6172,-2.6499,-2.6499,-2.6499,-2.6512,-2.6738,-2.6839,-2.6889,-2.7394,-2.7821,-2.8197,-2.8888,-2.9415,-2.9792,-2.9792,-2.9792,-2.9792,-0.747,0.0,0.0,-0.737,-0.7227,-0.782,-0.9972,-1.0299,-1.0756,-1.2035,0.0,0.0,-1.8743,-1.9406,0.0,0.0,0.0,-1.9038,0.0,0.0,-1.1887,-1.0406,-0.9786,0.0,0.0,-0.7532,-0.7415,-0.7899,-0.7899,-0.8014,0.0,0.0,-0.8931,-1.167,0.0,-1.2881,-1.4181,0.0,0.0,-1.2315,-1.3737,-1.8035,-2.3255,-2.0036,-2.018,-2.2081,-2.2025,-2.1978,-2.1932,-2.1622,-2.1075,0.0,-2.0265,0.0,0.0,0.0,0.0,0.0,-1.7989,0.0,0.0,0.0,0.0,0.0,0.0,0.0,0.0,0.0,0.0,0.0,0.0,0.0,0.0,0.0,0.0,0.0,0.0,0.0,0.0,0.0,0.0,0.0,0.0,0.0,0.0,0.0,0.0,0.0,-2.0444,-2.137,-2.1995,-2.2297,-2.2819,-2.3108,-2.3108,-2.3703,-2.4205,-2.4575,-2.5272,-2.5812,-2.626,-2.6424,-2.6499,-2.6499,-2.6499,-2.6499,-2.6524,-2.6927,-2.7253,-2.758,-2.8184,-2.8837,-2.9515,-2.9716,-2.9792,-2.9792,-0.8066,-0.8066,0.0,0.0,0.0,-0.782,-0.9972,-1.0299,-1.1917,-1.6388,0.0,0.0,0.0,0.0,0.0,0.0,0.0,-2.0085,-1.9624,0.0,-1.4483,0.0,0.0,-1.1683,0.0,0.0,-0.7878,-0.7899,-0.7899,-0.9187,0.0,0.0,0.0,0.0,0.0,-1.3645,-1.2503,-1.4443,-1.592,-1.6967,-1.691,-1.9591,-2.3359,0.0,-2.1076,-2.2058,-2.1817,0.0,0.0,-2.1997,-2.2271,0.0,0.0,0.0,0.0,0.0,0.0,0.0,0.0,0.0,0.0,-1.8353,0.0,0.0,0.0,0.0,-1.7174,0.0,0.0,0.0,0.0,0.0,-1.5492,-1.4984,0.0,0.0,0.0,0.0,0.0,0.0,0.0,0.0,0.0,0.0,0.0,0.0,0.0,0.0,-1.9685,-2.0427,-2.1232,-2.2284,-2.2819,-2.3108,-2.3108,-2.3703,-2.4004,-2.4042,-2.5096,-2.5598,-2.5636,-2.6235,-2.6499,-2.6499,-2.6499,-2.6499,-2.6499,-2.6512,-2.6839,-2.7341,-2.7555,-2.8096,-2.8812,-2.9528,-2.9792,-2.9792,0.0,0.0,0.0,0.0,0.0,-0.7719,-0.996,-1.237,-1.4501,0.0,0.0,0.0,0.0,0.0,-2.2278,0.0,0.0,-1.9851,-1.9708,-1.8869,0.0,0.0,0.0,-1.445,0.0,0.0,-0.9629,-0.7899,-0.7899,0.0,0.0,0.0,0.0,0.0,0.0,-1.3016,0.0,0.0,0.0,0.0,0.0,-2.2254,-2.3528,0.0,0.0,-2.3076,-2.2987,-2.2965,0.0,-2.3054,-2.3165,-2.3142,-2.2402,-2.1787,-2.1397,-2.1502,-2.073,0.0,0.0,0.0,-1.9373,-1.8952,0.0,0.0,0.0,0.0,0.0,0.0,0.0,0.0,0.0,0.0,-1.563,-1.5462,-1.4821,0.0,0.0,0.0,0.0,0.0,0.0,0.0,0.0,0.0,0.0,0.0,0.0,0.0,0.0,-1.9447,-2.0439,-2.1232,-2.2121,-2.2732,-2.3108,-2.3296,-2.3584,-2.4004,-2.4745,-2.5259,-2.5611,-2.6223,-2.6499,-2.6499,-2.6499,-2.6499,-2.6499,-2.6499,-2.66,-2.6826,-2.7379,-2.836,-2.9453,-2.9704,-2.9792,-2.9792,-0.9244,0.0,0.0,0.0,0.0,0.0,0.0,0.0,0.0,0.0,-1.961,0.0,-2.112,0.0,-2.3595,0.0,-2.2054,-2.11,-2.11,-2.1177,0.0,-2.002,-1.7982,0.0,0.0,0.0,-1.2852,-1.0717,0.0,-0.9749,0.0,0.0,0.0,0.0,0.0,0.0,0.0,0.0,-2.0438,0.0,0.0,-2.3595,0.0,0.0,-2.3595,-2.3595,0.0,-2.3595,-2.3595,-2.3595,-2.3595,-2.3595,-2.3595,-2.297,-2.2308,-2.2603,-2.1761,-2.072,-2.0784,-2.0505,0.0,-1.9644,-1.9214,0.0,-1.7688,0.0,0.0,0.0,0.0,0.0,0.0,0.0,-1.5713,-1.5754,-1.4821,-1.3632,0.0,0.0,0.0,0.0,0.0,0.0,0.0,0.0,-1.4205,-1.5325,0.0,0.0,0.0,0.0,-1.9874,-2.0666,-2.1732,-2.2543,-2.3095,-2.3108,-2.3296,-2.3703,-2.4424,-2.4996,-2.5347,-2.6147,-2.6499,-2.6499,-2.6499,-2.6499,-2.6499,-2.6499,-2.6499,-2.6562,-2.7304,-2.8259,-2.9239,-2.9641,-2.9792,-2.9792,0.0,0.0,0.0,0.0,-0.9922,0.0,0.0,0.0,-1.9753,0.0,-2.2467,-2.4114,-2.3638,-2.3595,-2.3595,-2.3595,-2.3595,0.0,-2.3595,-2.3719,0.0,0.0,-2.0637,-1.9284,-1.9993,0.0,0.0,0.0,0.0,0.0,0.0,0.0,0.0,0.0,-1.2373,0.0,-1.4752,-1.9046,-2.1919,-2.355,-2.3595,-2.3595,-2.3595,-2.3595,-2.3595,-2.3595,-2.3595,-2.3595,-2.3595,-2.3595,-2.3595,-2.3595,-2.3595,-2.3595,-2.3508,-2.3068,-2.2912,-2.2777,-2.2128,-2.1609,-2.1089,-2.0442,0.0,0.0,0.0,0.0,-1.8312,0.0,0.0,0.0,0.0,0.0,0.0,-1.5901,-1.4917,-1.3569,0.0,0.0,0.0,0.0,0.0,0.0,0.0,0.0,-1.3536,-1.5524,-1.4727,0.0,0.0,0.0,-1.9459,-2.0616,-2.1694,-2.2518,-2.3095,-2.3108,-2.3108,-2.312,-2.4224,-2.4763,-2.4825,-2.5959,-2.6461,-2.6499,-2.6499,-2.6499,-2.6499,-2.6499,-2.6499,-2.6562,-2.7291,-2.7819,-2.8285,-2.939,-2.9792,-2.9792,-1.2061,-1.198,-1.2164,0.0,-1.421,-1.5549,0.0,0.0,0.0,0.0,-2.3506,-2.3724,-2.3616,-2.3595,-2.3595,-2.3595,-2.3595,0.0,0.0,0.0,0.0,-2.4023,-2.2224,-2.0871,-2.0233,-1.8704,0.0,-1.7205,0.0,0.0,-1.179,0.0,0.0,0.0,0.0,0.0,-1.5604,-1.8194,-2.0692,-2.2972,-2.3415,-2.3595,0.0,0.0,-2.3595,-2.3595,-2.3595,-2.3595,-2.3595,-2.3595,-2.3595,-2.3595,-2.3595,-2.3595,-2.3573,-2.3465,-2.3179,-2.2867,-2.2694,-2.2244,-2.1805,-2.1535,-2.0803,-2.005,0.0,0.0,0.0,0.0,0.0,0.0,0.0,0.0,0.0,-1.6435,-1.5419,-1.4412,0.0,0.0,0.0,0.0,0.0,0.0,0.0,-1.2889,-1.3416,-1.3912,-1.4406,0.0,0.0,0.0,0.0,-1.9974,-2.1117,-2.2159,-2.3095,-2.3108,-2.3108,-2.3108,-2.3866,-2.4418,-2.4813,-2.5511,-2.6084,-2.6499,-2.6499,-2.6499,-2.6499,-2.6499,-2.6499,-2.6549,-2.7153,-2.7908,-2.8762,-2.9528,-2.9792,-2.9792,-1.22,0.0,0.0,-1.7288,0.0,0.0,-1.7941,0.0,0.0,-2.3624,-2.3745,0.0,-2.3595,-2.3595,-2.3595,-2.3595,-2.3595,0.0,0.0,0.0,0.0,-2.422,-2.3458,-2.2489,-2.1363,-1.9813,0.0,-1.7525,0.0,0.0,-1.1805,0.0,0.0,0.0,0.0,-1.4543,0.0,-1.8807,-2.1036,-2.2748,-2.3355,0.0,0.0,-2.3595,-2.3595,-2.3595,-2.3595,-2.3595,-2.3595,-2.3595,-2.3595,-2.3595,-2.3595,-2.3595,-2.3595,-2.3595,-2.3421,-2.3201,-2.3201,-2.283,-2.2397,-2.2058,-2.1399,-2.0688,-2.0075,-1.9688,-1.9394,0.0,0.0,0.0,0.0,0.0,0.0,0.0,0.0,0.0,0.0,0.0,0.0,0.0,0.0,0.0,0.0,-1.2478,-1.3086,-1.3242,-1.3828,0.0,0.0,0.0,0.0,-1.9422,-2.0552,-2.1656,-2.2732,-2.2982,-2.3108,-2.3108,-2.3715,-2.4293,-2.4813,-2.536,-2.5912,-2.6499,-2.6499,-2.6499,-2.6499,-2.6499,-2.6499,-2.6562,-2.719,-2.8021,-2.8963,-2.9578,-2.9792,-2.9792,0.0,0.0,0.0,0.0,0.0,0.0,0.0,-1.8749,0.0,-2.2832,0.0,-2.3221,-2.3565,-2.3595,-2.3595,-2.3595,0.0,-2.3696,-2.3696,-2.3696,-2.3867,-2.4281,-2.4302,-2.3871,-2.2919,-2.1369,0.0,0.0,0.0,0.0,-1.1805,0.0,0.0,0.0,0.0,0.0,0.0,-2.0142,-2.2104,0.0,-2.3355,-2.3595,-2.3595,-2.3595,-2.3595,-2.3595,-2.3595,-2.3595,-2.3595,-2.3595,-2.3595,-2.3595,-2.3595,-2.3595,-2.3595,-2.3595,-2.3595,-2.3595,-2.3595,-2.3312,-2.2889,-2.2406,-2.1931,-2.1322,-2.0271,-1.9985,-1.9937,-1.9937,-1.9449,-1.942,0.0,0.0,0.0,0.0,0.0,0.0,0.0,0.0,0.0,0.0,0.0,0.0,0.0,-1.2238,-1.2704,-1.2977,0.0,0.0,0.0,0.0,0.0,-1.8958,-2.01,0.0,-2.2297,0.0,-2.3108,-2.3108,-2.364,-2.4217,-2.4813,-2.5285,-2.585,-2.6499,-2.6499,-2.6499,-2.6499,-2.6499,-2.6499,-2.6575,-2.7354,-2.8122,-2.8863,-2.9553,-2.9792,-2.9792,0.0,0.0,0.0,0.0,0.0,-2.0277,-2.1964,-2.2622,-2.2308,-2.0621,-2.0382,-2.1186,-2.3355,-2.3595,-2.3595,-2.3595,-2.3952,0.0,0.0,0.0,0.0,-2.4302,-2.4302,-2.4204,-2.403,-2.2671,-2.0481,0.0,-1.5237,-1.3346,-1.1805,0.0,0.0,0.0,0.0,0.0,-1.8343,-2.0692,0.0,-2.2748,-2.3355,-2.3595,-2.3595,-2.3595,-2.3595,-2.3595,-2.3595,-2.3595,-2.3595,-2.3595,-2.3595,-2.3595,-2.3595,-2.3595,-2.3595,-2.3595,-2.3595,-2.3595,-2.3595,-2.353,-2.3465,-2.3377,-2.2987,-2.2589,-2.2369,-2.1974,-2.1657,-2.1657,-2.1573,-2.1398,-2.1098,0.0,0.0,0.0,0.0,0.0,0.0,0.0,0.0,0.0,0.0,0.0,0.0,0.0,-1.2726,0.0,0.0,0.0,0.0,0.0,0.0,0.0,-2.01,0.0,0.0,0.0,-2.3108,-2.3108,-2.3208,-2.3797,-2.4788,-2.4888,-2.5511,-2.6499,-2.6499,-2.6499,-2.6499,-2.6499,-2.6499,-2.66,-2.7607,-2.8109,-2.8373,-2.9415,-2.9792,-2.9792,0.0,0.0,0.0,0.0,0.0,0.0,0.0,-2.5908,0.0,-2.4004,-2.3796,-2.4275,-2.5548,-2.5916,-2.5507,-2.4095,-2.5463,-2.6441,-2.6441,-2.6441,-2.5685,-2.4013,-2.3931,0.0,-2.4281,-2.3432,-2.1599,-1.8796,-1.6198,-1.4229,-1.281,0.0,0.0,0.0,0.0,-1.749,0.0,0.0,0.0,-2.2748,-2.3355,-2.3595,-2.364,-2.3999,-2.3909,-2.3684,-2.4388,-2.4418,-2.4111,-2.4111,-2.3894,-2.3714,-2.4418,-2.4163,-2.367,-2.4029,-2.3879,-2.3595,-2.3595,-2.3595,-2.353,-2.329,-2.3068,-2.2822,-2.2558,-2.2291,-2.2105,-2.2105,-2.2105,-2.1899,-2.1215,-2.0106,0.0,0.0,0.0,0.0,0.0,0.0,0.0,0.0,0.0,0.0,0.0,0.0,0.0,0.0,0.0,0.0,0.0,0.0,0.0,0.0,0.0,0.0,0.0,0.0,0.0,-2.3108,-2.3108,-2.3697,-2.4788,-2.4788,-2.5423,-2.6499,-2.6499,-2.6499,-2.6499,-2.6499,-2.6499,-2.66,-2.767,-2.8109,-2.8247,-2.9377,-2.9792,-2.9792,0.0,-2.252,0.0,0.0,-2.1268,0.0,-2.7176,-2.8039,-2.8088,-2.765,-2.7968,-2.8116,-2.78,-2.8137,-2.7534,-2.5364,-2.7149,-2.8411,-2.8411,-2.8299,-2.7096,-2.456,-2.4448,-2.4626,-2.4991,-2.409,-2.2716,0.0,0.0,0.0,0.0,-1.2822,-1.3107,-1.453,0.0,0.0,0.0,0.0,-2.2488,-2.3167,-2.3774,-2.4029,-2.4088,-2.4605,-2.447,-2.4163,-2.5226,-2.5247,-2.4829,-2.4978,-2.4575,-2.4208,-2.527,-2.4881,-2.4133,-2.4649,-2.4448,-2.4029,-2.4029,-2.3924,-2.3732,-2.3355,-2.3148,-2.2957,-2.2521,-2.2429,-2.2429,-2.2429,-2.2429,-2.2184,-2.1417,-2.0617,0.0,0.0,0.0,0.0,0.0,0.0,0.0,0.0,0.0,0.0,0.0,0.0,0.0,0.0,0.0,0.0,0.0,0.0,0.0,0.0,0.0,-2.0175,-2.1333,0.0,-2.2995,0.0,-2.3108,-2.3697,-2.4788,-2.4788,-2.5423,-2.6499,-2.6499,-2.6499,-2.6499,-2.6499,-2.6499,-2.66,-2.7544,-2.7996,-2.8235,-2.9239,-2.9691,-2.9792,0.0,0.0,0.0,0.0,0.0,0.0,0.0,-2.7965,-2.765,-2.7625,-2.9134,-2.9728,-2.8453,-2.8372,-2.8304,-2.8042,-2.8258,-2.8411,-2.8411,-2.7925,-2.753,-2.724,-2.7225,-2.725,-2.73,-2.4859,-2.3704,0.0,0.0,0.0,0.0,-1.412,-1.5022,-1.6487,0.0,0.0,0.0,-2.2622,-2.3819,-2.4485,-2.5151,-2.542,-2.5435,-2.5495,-2.548,-2.5435,-2.5555,-2.557,-2.5615,-2.6213,-2.5974,-2.5435,-2.557,-2.5501,-2.5435,-2.5495,-2.5457,-2.542,-2.542,-2.4963,-2.4492,-2.4447,-2.397,-2.3508,-2.3465,-2.3465,-2.3465,-2.3465,-2.3465,-2.3126,-2.2026,-2.222,-2.1851,0.0,0.0,0.0,0.0,0.0,0.0,0.0,0.0,0.0,0.0,0.0,0.0,0.0,0.0,0.0,0.0,0.0,0.0,-1.7398,0.0,-1.9623,-2.0754,-2.1832,-2.2606,-2.3108,-2.3108,-2.3697,-2.4788,-2.4788,-2.5423,-2.6499,-2.6499,-2.6499,-2.6499,-2.6499,-2.6499,-2.6549,-2.7165,-2.7657,-2.8185,-2.8787,-2.934,-2.9792,0.0,0.0,0.0,0.0,0.0,0.0,0.0,-2.9711,-2.9767,-2.9767,-2.9461,-2.9029,-2.8468,-2.8411,-2.8275,-2.794,-2.7915,-2.7915,-2.7915,-2.7725,-2.8255,-2.9701,-2.9767,-2.9767,-2.9767,-2.7602,-2.5771,0.0,0.0,0.0,0.0,0.0,0.0,0.0,0.0,-2.0961,-2.2532,-2.3693,-2.459,-2.5217,-2.5495,-2.5615,-2.5636,-2.6048,-2.5959,-2.5719,-2.6497,-2.6527,-2.6303,-2.6986,-2.6482,-2.5749,-2.6542,-2.6243,-2.5689,-2.6078,-2.5914,-2.5615,-2.5615,-2.5397,-2.5098,-2.4709,-2.4395,-2.4081,-2.3684,-2.3595,-2.3595,-2.3595,-2.3595,-2.3455,-2.2993,-2.2586,-2.22,0.0,0.0,0.0,0.0,0.0,0.0,0.0,0.0,0.0,0.0,0.0,0.0,0.0,0.0,-1.0734,-1.2626,0.0,0.0,-1.6785,0.0,-1.9964,-2.0679,-2.2083,-2.2882,-2.3108,-2.3108,-2.3521,-2.4343,-2.4637,-2.5423,-2.6499,-2.6499,-2.6499,-2.6499,-2.6499,-2.6499,-2.6549,-2.7102,-2.762,-2.8172,-2.8687,-2.9289,-2.9792,-2.59,0.0,-3.119,0.0,-3.0097,-2.9566,-3.0551,-3.0975,-3.119,-3.119,-2.9941,-2.8795,-2.821,-2.8162,-2.8014,-2.7625,-2.76,-2.7845,-2.8439,-2.7919,-2.8678,-3.1095,-3.119,0.0,-3.0797,-2.9205,-2.7457,-2.5518,-2.2813,0.0,0.0,-1.86,0.0,0.0,-2.122,-2.2562,-2.3954,-2.4814,-2.5457,-2.5914,-2.6108,-2.6183,-2.6243,-2.6692,-2.6587,-2.6303,-2.727,-2.73,-2.6971,-2.7435,-2.6986,-2.6348,-2.73,-2.6956,-2.6273,-2.6761,-2.6557,-2.6183,-2.6183,-2.6048,-2.5779,-2.5307,-2.4889,-2.4485,-2.4014,-2.3744,-2.3595,-2.3595,-2.3595,-2.3595,-2.3595,-2.2942,-2.2534,-2.303,0.0,0.0,0.0,0.0,0.0,0.0,0.0,-1.7515,0.0,0.0,0.0,0.0,0.0,-1.1868,-1.3095,0.0,0.0,0.0,0.0,0.0,0.0,-2.2216,-2.3004,-2.3108,-2.3108,-2.3409,-2.4017,-2.4732,-2.5561,-2.6499,-2.6499,-2.6499,-2.6499,-2.6499,-2.6499,-2.6537,-2.6927,-2.7482,-2.8134,-2.8423,-2.9063,-2.9792,-3.112,-3.1173,-3.119,-3.119,-3.1171,-3.1171,-3.119,-3.119,-3.119,-3.119,-3.0773,-2.9733,-2.7835,-2.7625,-2.7625,-2.76,-2.76,-2.8439,-3.0342,-2.8662,-2.8678,0.0,0.0,-3.0757,-2.9837,-2.8889,-2.8381,-2.835,0.0,0.0,-1.9768,-2.2308,-2.352,-2.3535,-2.3565,-2.3954,-2.4679,-2.6019,-2.6572,-2.6632,-2.7315,-2.757,-2.757,-2.7585,-2.7585,-2.757,-2.7585,-2.7585,-2.7585,-2.76,-2.7585,-2.757,-2.7585,-2.7585,-2.757,-2.7585,-2.7585,-2.757,-2.757,-2.7091,-2.6572,-2.6572,-2.5585,-2.4605,-2.459,-2.4066,-2.3595,-2.3595,-2.3595,-2.3595,-2.3595,-2.3595,-2.322,-2.2091,0.0,0.0,0.0,0.0,0.0,0.0,-1.6902,-1.6386,-1.7572,0.0,0.0,0.0,0.0,0.0,0.0,0.0,0.0,-1.7635,-1.9374,0.0,-2.0877,-2.202,-2.2757,-2.3108,-2.3108,-2.3409,-2.4029,-2.5096,-2.59,-2.6499,-2.6499,-2.6499,-2.6499,-2.6499,-2.6499,-2.6499,-2.6499,-2.7178,-2.8059,-2.7744,-2.8548,-2.9792,-3.119,-3.119,-3.119,-3.119,-3.119,-3.119,-3.119,-3.119,-3.119,-3.119,-3.0794,-3.0262,-2.9645,-2.84,-2.8125,0.0,-2.987,-3.0314,0.0,-3.0414,-3.0398,-3.1171,-3.119,-3.0757,-2.9815,-2.9522,-2.9677,-3.0305,0.0,0.0,0.0,-2.5462,-2.6879,-2.6855,-2.6486,-2.6132,-2.5833,-2.6851,-2.7285,-2.73,-2.751,-2.76,-2.76,-2.76,-2.76,-2.76,-2.76,-2.76,-2.76,-2.76,-2.76,-2.76,-2.76,-2.76,-2.76,-2.76,-2.76,-2.76,-2.76,-2.745,-2.718,-2.6692,-2.5944,-2.5158,-2.4709,-2.4066,-2.3595,-2.3595,-2.3595,-2.3595,-2.3595,-2.3595,-2.3492,-2.3132,-2.248,0.0,0.0,0.0,0.0,0.0,0.0,-1.8644,0.0,-1.7459,0.0,0.0,0.0,0.0,0.0,0.0,0.0,0.0,-2.0331,0.0,-2.1381,-2.3042,-2.3628,-2.3108,-2.3241,-2.3732,-2.4569,-2.4908,-2.5573,-2.6499,-2.6499,-2.6499,-2.6499,-2.6499,-2.6499,-2.6499,-2.6499,-2.7014,-2.7756,-2.763,-2.8548,-2.9792,-3.119,-3.119,-3.119,-3.119,-3.119,-3.119,-3.119,-3.119,-3.1131,-3.0955,-3.0692,-3.0568,-3.0753,-2.9695,0.0,-3.0654,-3.1032,-3.119,-3.119,-3.119,-3.119,-3.119,-3.119,-3.0935,-3.0347,0.0,0.0,-3.0156,-2.8967,-2.7377,-2.5455,-2.7454,-2.8299,-2.8088,-2.775,-2.7285,-2.6806,-2.736,-2.76,-2.76,-2.76,-2.76,-2.76,-2.76,-2.76,-2.76,-2.76,-2.76,-2.76,-2.76,-2.76,-2.76,-2.76,-2.76,-2.76,-2.76,-2.76,-2.76,-2.76,-2.76,-2.7495,-2.7091,-2.6467,-2.5734,-2.4814,-2.4066,-2.3595,-2.3595,-2.3595,-2.3595,-2.3595,-2.3595,-2.352,-2.3295,-2.2383,-2.1605,-2.1365,0.0,0.0,0.0,0.0,0.0,0.0,-1.9031,0.0,0.0,0.0,0.0,0.0,0.0,0.0,-1.939,-2.1645,0.0,-2.276,-2.419,-2.4439,-2.3543,-2.3606,-2.4078,-2.4917,-2.5053,-2.5632,-2.6555,-2.6521,-2.6499,-2.6499,-2.6499,-2.6499,-2.6499,-2.6499,-2.6939,-2.7555,-2.7278,-2.8309,-2.9792,-3.119,-3.119,0.0,0.0,-3.136,0.0,-3.1512,-3.1326,-3.1119,-3.0875,-3.085,-3.1012,-3.1455,-3.1512,-3.1512,-3.1512,0.0,0.0,0.0,-3.119,-3.119,-3.119,-3.119,-3.119,-3.119,-3.0054,-2.9136,-2.8493,-2.842,-2.8411,-2.8411,-2.8411,-2.8113,-2.76,-2.76,-2.76,-2.76,-2.76,-2.76,-2.76,-2.76,-2.76,-2.76,-2.76,-2.76,-2.76,-2.76,-2.76,-2.76,-2.76,-2.76,-2.76,-2.76,-2.76,-2.76,-2.76,-2.76,-2.76,-2.76,-2.76,-2.76,-2.76,-2.7106,-2.6243,-2.4903,-2.4111,-2.3655,-2.361,-2.3595,-2.3595,-2.3595,-2.3595,-2.3385,-2.2808,-2.2149,-2.147,-2.0793,0.0,0.0,0.0,0.0,0.0,0.0,-2.0351,-2.1019,0.0,0.0,0.0,0.0,0.0,-2.0154,-2.1421,-2.3152,-2.4292,-2.4736,-2.5352,-2.5231,-2.4334,-2.4162,-2.4488,-2.5192,-2.561,-2.6135,-2.6782,-2.6679,-2.6589,-2.6499,-2.6568,-2.6555,-2.6499,-2.6521,-2.6949,-2.7429,-2.6751,-2.7907,-2.983,0.0,0.0,-3.119,-3.119,-3.3068,-3.4551,-3.4551,-3.2662,-3.1962,-3.4117,-3.4381,-3.4425,-3.4551,-3.4551,-3.4551,-3.4551,-3.251,-3.119,-3.119,-3.119,-3.119,-3.119,-3.119,-3.119,-3.119,-3.0898,-3.0326,-2.9477,-2.8748,-2.8411,-2.8411,-2.8411,-2.8113,-2.76,-2.76,-2.76,-2.76,-2.76,-2.76,-2.76,-2.76,-2.76,-2.76,-2.76,-2.76,-2.76,-2.76,-2.76,-2.76,-2.76,-2.76,-2.76,-2.76,-2.76,-2.76,-2.76,-2.76,-2.76,-2.76,-2.76,-2.76,-2.76,-2.7106,-2.6243,-2.4903,-2.4485,-2.4216,-2.3714,-2.3595,-2.3595,-2.3595,-2.3595,-2.3385,-2.2808,-2.2149,-2.147,-2.0793,-2.0554,0.0,0.0,-2.0896,-2.1258,-2.106,-2.1347,-2.1213,0.0,0.0,0.0,0.0,-2.1831,-2.2728,-2.3039,-2.4112,-2.4887,-2.5297,-2.606,-2.581,-2.4595,-2.4961,-2.5453,-2.6065,-2.709,-2.7554,-2.7484,-2.8012,-2.7597,-2.6555,-2.7222,-2.7087,-2.6521,-2.6692,-2.6725,-2.6725,-2.6562,-2.7907,-3.0152,-3.119,-3.119,-3.163,-3.2983,-3.4535,-3.56,-3.56,-3.423,-3.3795,-3.538,-3.56,-3.56,-3.56,-3.56,-3.56,-3.56,-3.2899,-3.119,-3.119,-3.119,-3.119,-3.119,-3.119,-3.1833,-3.3186,-3.1884,-3.0736,-2.9793,-2.8865,-2.8411,-2.8411,-2.8275,-2.8005,-2.76,-2.76,-2.76,-2.76,-2.76,-2.76,-2.76,-2.76,-2.76,-2.76,-2.76,-2.76,-2.76,-2.76,-2.76,-2.76,-2.76,-2.76,-2.76,-2.76,-2.76,-2.76,-2.76,-2.76,-2.76,-2.76,-2.76,-2.76,-2.76,-2.7106,-2.6408,-2.5689,-2.5038,-2.45,-2.4126,-2.3819,-2.3595,-2.3595,-2.337,-2.2987,-2.2358,-2.168,-2.1021,-2.0348,-2.0494,0.0,-2.0703,-2.156,-2.2044,-2.1724,-2.2218,-2.2232,-2.1395,0.0,0.0,-2.2218,-2.3382,-2.4073,-2.4073,-2.5103,-2.5933,-2.6451,-2.6573,-2.6229,-2.5522,-2.6036,-2.6476,-2.6906,-2.8043,-2.851,-2.8454,-2.8776,-2.839,-2.7597,-2.8059,-2.7796,-2.7129,-2.7604,-2.7263,-2.6679,-2.8214,-3.0315,-3.2648,-3.119,-3.1562,-3.2662,-3.516,-3.56,-3.56,-3.56,-3.56,-3.56,-3.56,-3.56,-3.56,-3.56,-3.56,-3.56,-3.56,-3.3322,-3.185,-3.185,-3.185,-3.185,-3.185,-3.185,-3.3051,-3.5549,-3.3152,-3.1269,-3.0011,-2.9205,-2.8692,-2.8411,-2.8903,-2.8587,-2.7625,-2.8006,-2.7966,-2.76,-2.7735,-2.7794,-2.7809,-2.7869,-2.7899,-2.7899,-2.7899,-2.7899,-2.7899,-2.7899,-2.7899,-2.7899,-2.7899,-2.7824,-2.775,-2.775,-2.7675,-2.76,-2.76,-2.76,-2.76,-2.76,-2.76,-2.76,-2.76,-2.718,-2.6707,-2.6617,-2.5734,-2.4874,-2.4769,-2.4216,-2.3759,-2.3759,-2.3236,-2.2598,-2.1814,-2.1321,-2.0707,-1.9828,0.0,-2.0957,-2.0853,-2.2024,-2.2613,-2.2039,-2.2966,-2.343,-2.3017,-2.346,-2.4044,0.0,-2.4844,-2.4903,-2.4903,-2.6019,-2.6926,-2.7585,-2.6878,-2.6537,-2.6551,-2.7145,-2.7531,-2.772,-2.8851,-2.9393,-2.9453,-2.9393,-2.9142,-2.8853,-2.898,-2.8648,-2.8117,-2.8812,-2.833,-2.7604,-3.045,-3.3185,-3.5504,-3.119,-3.322,-3.5059,-3.5515,-3.56,-3.56,-3.56,-3.56,-3.56,-3.56,-3.56,-3.56,-3.56,-3.56,-3.56,-3.56,-3.5177,-3.4906,-3.4906,-3.4906,-3.4906,-3.4906,-3.4906,-3.5126,-3.5583,-3.5143,-3.363,-3.0975,-3.0838,-2.9946,-2.8506,-3.2537,-3.1973,-2.7695,-2.9969,-2.9722,-2.7645,-2.8378,-2.8682,-2.8715,-2.9116,-2.9292,-2.9292,-2.9292,-2.9292,-2.9292,-2.9292,-2.9292,-2.9292,-2.9292,-2.8906,-2.8442,-2.8442,-2.8064,-2.76,-2.76,-2.76,-2.76,-2.76,-2.76,-2.76,-2.76,-2.7525,-2.73,-2.6746,-2.6437,-2.6123,-2.557,-2.4903,-2.444,-2.444,-2.3924,-2.3071,-2.1889,-2.2104,-2.1759,-1.9947,0.0,-2.2179,-2.1605,-2.2682,-2.3415,-2.331,-2.3475,-2.3804,-2.4261,-2.4395,-2.4739,-2.5397,-2.5989,-2.6288,-2.6288,-2.6482,-2.6926,-2.7585,-2.6997,-2.6669,-2.6698,-2.7903,-2.8482,-2.8582,-3.0308,-3.0748,-3.0178,-3.0703,-3.0208,-2.9048,-2.9763,-2.9732,-2.9254,-2.938,-2.995,-3.0807,-3.1307,-3.3185,-3.5439,-3.3575,-3.467,-3.56,-3.56,-3.56,-3.56,-3.56,-3.56,-3.56,-3.56,-3.56,-3.56,-3.56,-3.56,-3.56,-3.56,-3.56,-3.56,-3.56,-3.56,-3.56,-3.56,-3.56,-3.56,-3.56,-3.56,-3.4923,-3.3575,-3.3575,-3.3133,-3.232,-3.4565,-3.4289,-3.1838,-3.0176,-2.9225,-2.896,-2.9904,-3.0069,-2.9711,-2.9636,-2.9606,-2.9606,-2.9606,-2.9606,-2.9606,-2.9606,-2.9606,-2.9606,-2.9606,-2.9385,-2.9071,-2.8712,-2.8382,-2.8079,-2.7705,-2.76,-2.76,-2.76,-2.76,-2.76,-2.76,-2.76,-2.7525,-2.721,-2.6866,-2.6497,-2.6198,-2.5615,-2.5023,-2.4664,-2.4036,-2.3415,-2.2817,-2.2418,0.0,0.0,-2.2104,-2.2583,-2.2283,-2.3026,-2.3595,-2.3595,-2.3939,-2.4261,-2.459,-2.4933,-2.5427,-2.6093,-2.6422,-2.6776,-2.7136,-2.7151,-2.7285,-2.76,-2.7331,-2.7178,-2.7192,-2.8178,-2.8828,-2.9224,-3.0425,-3.0965,-3.097,-3.1278,-3.097,-3.0269,-3.0658,-3.0658,-3.0419,-3.0419,-3.0866,-3.1511,-3.1511,-3.2288,-3.3409,-3.56,-3.56,-3.56,-3.56,-3.56,-3.56,-3.56,-3.56,-3.56,-3.56,-3.56,-3.56,-3.56,-3.56,-3.56,-3.56,-3.56,-3.56,-3.56,-3.56,-3.56,-3.56,-3.56,-3.56,-3.56,-3.56,-3.56,-3.56,-3.56,-3.56,-3.56,-3.56,-3.56,-3.5414,-3.131,-3.0143,-3.134,-3.2009,-3.1658,-3.0601,-3.0205,-3.0043,-3.0043,-3.0043,-3.0043,-3.0043,-3.0043,-3.0043,-3.0043,-3.0043,-2.9924,-2.9726,-2.9205,-2.8951,-2.8697,-2.8034,-2.772,-2.76,-2.76,-2.76,-2.76,-2.76,-2.76,-2.76,-2.76,-2.721,-2.6811,-2.6811,-2.6303,-2.5689,-2.5158,-2.4522,-2.3969,-2.3655,0.0,0.0,0.0,-2.2868,-2.3092,-2.2927,-2.358,-2.4059,-2.4059,-2.4515,-2.4903,-2.5053,-2.5555,-2.6123,-2.6806,-2.6811,-2.7076,-2.7585,-2.76,-2.76,-2.76,-2.76,-2.76,-2.76,-2.8263,-2.8951,-2.9636,-3.0223,-3.0881,-3.1511,-3.1511,-3.1438,-3.1351,-3.1351,-3.1322,-3.1278,-3.1278,-3.1351,-3.1511,-3.1511,-3.163,-3.1899,-3.56,-3.56,-3.56,-3.56,-3.56,-3.56,-3.56,-3.56,-3.56,-3.56,-3.56,-3.56,-3.56,-3.56,-3.56,-3.56,-3.56,-3.56,-3.56,-3.56,-3.56,-3.56,-3.56,-3.56,-3.56,-3.56,-3.56,-3.56,-3.56,-3.56,-3.56,-3.56,-3.56,-3.5583,-3.5189,-3.5076,-3.516,-3.48,-3.3386,-3.1419,-3.139,-3.1361,-3.1361,-3.1361,-3.1361,-3.1361,-3.1361,-3.1361,-3.1361,-3.1361,-3.0943,-3.0432,-3.0372,-2.9968,-2.9397,-2.8712,-2.8094,-2.76,-2.76,-2.76,-2.76,-2.76,-2.76,-2.76,-2.76,-2.7555,-2.7525,-2.7525,-2.7001,-2.6497,-2.6452,-2.5899,-2.5061,-2.3804,0.0,0.0,-2.2024,-2.3319,-2.4231,-2.361,-2.4672,-2.545,-2.545,-2.551,-2.5794,-2.6393,-2.6497,-2.6811,-2.748,-2.7525,-2.754,-2.76,-2.76,-2.76,-2.76,-2.76,-2.76,-2.76,-2.8263,-2.8951,-2.9636,-3.0223,-3.0881,-3.1511,-3.1511,-3.1511,-3.1511,-3.1511,-3.1467,-3.1467,-3.1467,-3.1511,-3.1511,-3.1511,-3.2019,-3.2721,-3.56,-3.56,-3.56,-3.56,-3.56,-3.56,-3.56,-3.56,-3.56,-3.56,-3.56,-3.56,-3.56,-3.56,-3.56,-3.56,-3.56,-3.56,-3.56,-3.56,-3.56,-3.56,-3.56,-3.56,-3.56,-3.56,-3.56,-3.56,-3.56,-3.56,-3.56,-3.56,-3.56,-3.56,-3.56,-3.56,-3.56,-3.5418,-3.4666,-3.3527,-3.2629,-3.2231,-3.2231,-3.2092,-3.2051,-3.2023,-3.164,-3.1511,-3.1511,-3.1511,-3.1331,-3.1032,-3.0642,-3.0342,-2.9953,-2.8906,-2.8412,-2.819,-2.8075,-2.782,-2.76,-2.76,-2.76,-2.76,-2.76,-2.76,-2.76,-2.76,-2.7405,-2.7091,-2.6686,-2.6378,-2.6048,-2.554,0.0,-2.5121,-2.4777,-2.5016,-2.5113,-2.4881,-2.53,-2.5615,-2.5615,-2.5974,-2.6318,-2.6572,-2.7001,-2.733,-2.7585,-2.76,-2.76,-2.76,-2.76,-2.76,-2.76,-2.76,-2.76,-2.76,-2.7869,-2.8334,-2.8996,-2.9639,-3.0283,-3.0883,-3.1316,-3.1511,-3.1511,-3.1511,-3.1511,-3.1511,-3.1511,-3.1511,-3.1511,-3.1511,-3.172,-3.2004,-3.56,-3.56,-3.56,-3.56,-3.56,-3.56,-3.56,-3.56,-3.56,-3.56,-3.56,-3.56,-3.56,-3.56,-3.56,-3.56,-3.56,-3.56,-3.56,-3.56,-3.56,-3.56,-3.56,-3.56,-3.56,-3.56,-3.56,-3.56,-3.56,-3.56,-3.56,-3.56,-3.56,-3.56,-3.56,-3.56,-3.56,-3.5441,-3.5188,-3.4811,-3.3799,-3.323,-3.3007,-3.2629,-3.2453,-3.2315,-3.1726,-3.1511,-3.1524,-3.1726,-3.1668,-3.145,-3.1181,-3.0812,-3.0328,-2.946,-2.9012,-2.8783,-2.8642,-2.8342,-2.8042,-2.787,-2.782,-2.782,-2.782,-2.7944,-2.8018,-2.7845,-2.782,-2.7634,-2.7025,-2.6926,-2.6866,-2.6617,-2.6213,-2.6004,-2.6243,-2.6078,-2.5914,-2.5914,-2.6093,-2.6228,-2.6228,-2.6632,-2.6926,-2.6926,-2.7345,-2.76,-2.76,-2.76,-2.76,-2.76,-2.76,-2.76,-2.76,-2.76,-2.76,-2.76,-2.76,-2.7959,-2.8622,-2.928,-2.9924,-3.0537,-3.1212,-3.1511,-3.1511,-3.1511,-3.1511,-3.1511,-3.1511,-3.1511,-3.1511,-3.1511,-3.1511,-3.1511,-3.56,-3.56,-3.56,-3.56,-3.56,-3.56,-3.56,-3.56,-3.56,-3.56,-3.56,-3.56,-3.56,-3.56,-3.56,-3.56,-3.56,-3.56,-3.56,-3.56,-3.56,-3.56,-3.56,-3.56,-3.56,-3.56,-3.56,-3.56,-3.56,-3.56,-3.56,-3.56,-3.56,-3.56,-3.56,-3.56,-3.5577,-3.5095,-3.4899,-3.4899,-3.4899,-3.4456,-3.3729,-3.3007,-3.2574,-3.2342,-3.1726,-3.1511,-3.1611,-3.2203,-3.1994,-3.1611,-3.2231,-3.1536,-3.0507,-3.0507,-2.994,-2.93,-2.93,-2.9207,-2.8982,-2.8448,-2.8328,-2.8328,-2.8328,-2.8709,-2.8958,-2.8424,-2.8328,-2.8158,-2.771,-2.761,-2.7375,-2.6731,-2.6626,-2.6387,-2.5719,-2.6183,-2.6602,-2.6602,-2.721,-2.76,-2.76,-2.76,-2.76,-2.76,-2.76,-2.76,-2.76,-2.76,-2.76,-2.76,-2.76,-2.76,-2.76,-2.76,-2.76,-2.76,-2.76,-2.7959,-2.8622,-2.9307,-2.9924,-3.0537,-3.1212,-3.1511,-3.1511,-3.1511,-3.1511,-3.1511,-3.1511,-3.1511,-3.1511,-3.1511,-3.1511,-3.1511,-3.56,-3.56,-3.56,-3.56,-3.56,-3.56,-3.56,-3.56,-3.56,-3.56,-3.56,-3.56,-3.56,-3.56,-3.56,-3.56,-3.56,-3.56,-3.56,-3.56,-3.56,-3.56,-3.56,-3.56,-3.56,-3.56,-3.56,-3.56,-3.56,-3.56,-3.56,-3.56,-3.56,-3.56,-3.56,-3.56,-3.5577,-3.5095,-3.4899,-3.4899,-3.4899,-3.4763,-3.4546,-3.4333,-3.3968,-3.3455,-3.2465,-3.2382,-3.2652,-3.2465,-3.2532,-3.2718,-3.2906,-3.2712,-3.2313,-3.183,-3.117,-3.053,-3.0458,-2.9775,-2.9051,-2.8912,-2.8865,-2.8865,-2.8865,-2.8982,-2.9051,-2.8889,-2.8865,-2.8818,-2.8677,-2.8654,-2.8473,-2.7898,-2.7795,-2.7613,-2.708,-2.718,-2.73,-2.73,-2.748,-2.76,-2.76,-2.76,-2.76,-2.76,-2.76,-2.76,-2.76,-2.76,-2.76,-2.76,-2.76,-2.76,-2.76,-2.76,-2.76,-2.76,-2.76,-2.7705,-2.7944,-2.9082,-2.9711,-2.9924,-3.1017,-3.1511,-3.1511,-3.1511,-3.1511,-3.1511,-3.1511,-3.1511,-3.1511,-3.1511,-3.1511,-3.1511,-3.56,-3.56,-3.56,-3.56,-3.56,-3.56,-3.56,-3.56,-3.56,-3.56,-3.56,-3.56,-3.56,-3.56,-3.56,-3.56,-3.56,-3.56,-3.56,-3.56,-3.56,-3.56,-3.56,-3.56,-3.56,-3.56,-3.56,-3.56,-3.56,-3.56,-3.56,-3.56,-3.56,-3.56,-3.56,-3.56,-3.5577,-3.5304,-3.5165,-3.5165,-3.4954,-3.4899,-3.4899,-3.4899,-3.457,-3.3984,-3.3044,-3.2906,-3.3198,-3.3097,-3.3282,-3.3501,-3.3277,-3.3182,-3.3103,-3.2703,-3.2228,-3.1814,-3.1763,-3.0923,-3.0097,-3.0148,-2.9759,-2.9371,-2.9371,-2.9528,-2.9595,-2.9416,-2.9371,-2.9325,-2.912,-2.9097,-2.8935,-2.84,-2.8288,-2.8134,-2.7675,-2.76,-2.76,-2.76,-2.76,-2.76,-2.76,-2.76,-2.76,-2.76,-2.76,-2.76,-2.76,-2.76,-2.76,-2.76,-2.76,-2.76,-2.76,-2.76,-2.76,-2.76,-2.76,-2.76,-2.7645,-2.8992,-2.9606,-2.9681,-3.0943,-3.1511,-3.1511,-3.1511,-3.1511,-3.1511,-3.1511,-3.1511,-3.1511,-3.1511,-3.1511,-3.1511,-3.56,-3.56,-3.56,-3.56,-3.56,-3.56,-3.56,-3.56,-3.56,-3.56,-3.56,-3.56,-3.56,-3.56,-3.56,-3.56,-3.56,-3.56,-3.56,-3.56,-3.56,-3.56,-3.56,-3.56,-3.56,-3.56,-3.56,-3.56,-3.56,-3.56,-3.56,-3.56,-3.56,-3.56,-3.56,-3.56,-3.56,-3.56,-3.56,-3.5577,-3.5118,-3.497,-3.4947,-3.4923,-3.4618,-3.4126,-3.3501,-3.3303,-3.3433,-3.3984,-3.4176,-3.4084,-3.3527,-3.3339,-3.3339,-3.3339,-3.321,-3.3064,-3.3064,-3.24,-3.1702,-3.1781,-3.0892,-2.9962,-2.9897,-3.022,-3.0405,-2.9968,-2.9897,-2.975,-2.9325,-2.9234,-2.9051,-2.8496,-2.8376,-2.8183,-2.7685,-2.7625,-2.76,-2.76,-2.76,-2.76,-2.76,-2.76,-2.76,-2.76,-2.76,-2.76,-2.76,-2.76,-2.76,-2.76,-2.76,-2.76,-2.76,-2.76,-2.76,-2.76,-2.76,-2.76,-2.7645,-2.8992,-2.9592,-2.9621,-3.0913,-3.1511,-3.1511,-3.1511,-3.1511,-3.1511,-3.1511,-3.1511,-3.1511,-3.1511,-3.1511,-3.1511,-3.56,-3.56,-3.56,-3.56,-3.56,-3.56,-3.56,-3.56,-3.56,-3.56,-3.56,-3.56,-3.56,-3.56,-3.56,-3.56,-3.56,-3.56,-3.56,-3.56,-3.56,-3.56,-3.56,-3.56,-3.56,-3.56,-3.56,-3.56,-3.56,-3.56,-3.56,-3.56,-3.56,-3.56,-3.56,-3.56,-3.56,-3.56,-3.56,-3.56,-3.5487,-3.5389,-3.5274,-3.5118,-3.4977,-3.4804,-3.4134,-3.4168,-3.4554,-3.4691,-3.4732,-3.4691,-3.4578,-3.4529,-3.4529,-3.4529,-3.4116,-3.3627,-3.3627,-3.3075,-3.2354,-3.1898,-3.1568,-3.1243,-3.0784,-3.0651,-3.0651,-3.0671,-3.0572,-3.0468,-3.0384,-3.0363,-3.007,-2.9227,-2.8997,-2.8654,-2.7875,-2.7675,-2.76,-2.76,-2.76,-2.76,-2.76,-2.76,-2.76,-2.76,-2.76,-2.76,-2.76,-2.76,-2.76,-2.76,-2.76,-2.76,-2.76,-2.76,-2.76,-2.76,-2.76,-2.76,-2.7645,-2.8992,-2.9412,-2.9142,-3.0778,-3.1511,-3.1511,-3.1511,-3.1511,-3.1511,-3.1511,-3.1511,-3.1511,-3.1511,-3.1511,-3.1511,-3.688,-3.6841,-3.6841,-3.6841,-3.6161,-3.56,-3.56,-3.56,-3.56,-3.56,-3.56,-3.56,-3.56,-3.56,-3.56,-3.56,-3.56,-3.56,-3.56,-3.56,-3.56,-3.56,-3.56,-3.56,-3.56,-3.56,-3.56,-3.56,-3.56,-3.56,-3.56,-3.56,-3.56,-3.56,-3.56,-3.56,-3.56,-3.56,-3.56,-3.56,-3.56,-3.5509,-3.5389,-3.5281,-3.5228,-3.5152,-3.4732,-3.4732,-3.4899,-3.4899,-3.4947,-3.4994,-3.4923,-3.4947,-3.497,-3.4923,-3.4618,-3.4343,-3.4389,-3.3881,-3.3262,-3.3054,-3.2462,-3.1759,-3.1059,-3.0851,-3.0831,-3.0892,-3.0834,-3.081,-3.081,-3.081,-3.0551,-2.9793,-2.9617,-2.9332,-2.8677,-2.8319,-2.8125,-2.8125,-2.786,-2.7675,-2.7625,-2.76,-2.76,-2.76,-2.76,-2.76,-2.76,-2.76,-2.76,-2.76,-2.76,-2.76,-2.76,-2.76,-2.76,-2.76,-2.76,-2.76,-2.763,-2.8678,-2.9052,-2.9007,-3.0733,-3.1511,-3.1511,-3.1511,-3.1511,-3.1511,-3.1511,-3.1511,-3.1511,-3.1511,-3.1511,-3.1511,-3.8342,-3.8292,-3.8276,-3.8209,-3.7055,-3.6101,-3.6054,-3.6032,-3.6032,-3.6032,-3.5766,-3.56,-3.56,-3.56,-3.56,-3.56,-3.56,-3.56,-3.56,-3.56,-3.56,-3.56,-3.56,-3.56,-3.56,-3.56,-3.56,-3.56,-3.56,-3.56,-3.56,-3.56,-3.56,-3.56,-3.56,-3.56,-3.56,-3.56,-3.56,-3.56,-3.56,-3.5532,-3.5435,-3.5412,-3.5383,-3.5331,-3.5175,-3.5041,-3.4923,-3.4923,-3.4994,-3.5065,-3.497,-3.5018,-3.5111,-3.4994,-3.497,-3.4994,-3.5088,-3.4685,-3.423,-3.4286,-3.3371,-3.224,-3.1342,-3.1016,-3.0932,-3.0952,-3.0932,-3.0912,-3.0912,-3.0912,-3.0753,-3.0208,-3.0102,-2.9935,-2.9496,-2.9065,-2.8826,-2.8826,-2.8383,-2.7984,-2.781,-2.776,-2.771,-2.765,-2.7625,-2.76,-2.76,-2.76,-2.76,-2.76,-2.76,-2.76,-2.76,-2.76,-2.76,-2.76,-2.76,-2.76,-2.7615,-2.8278,-2.8622,-2.8783,-3.0673,-3.1511,-3.1511,-3.1511,-3.1511,-3.1511,-3.1511,-3.1511,-3.1511,-3.1511,-3.1511,-3.1511,-3.8645,-3.863,-3.8533,-3.8259,-3.8238,-3.8186,-3.7898,-3.7845,-3.7845,-3.7845,-3.6539,-3.56,-3.56,-3.56,-3.56,-3.56,-3.56,-3.56,-3.56,-3.56,-3.56,-3.56,-3.56,-3.56,-3.56,-3.56,-3.56,-3.56,-3.56,-3.56,-3.56,-3.56,-3.56,-3.56,-3.56,-3.56,-3.56,-3.56,-3.56,-3.56,-3.56,-3.56,-3.5554,-3.5498,-3.5492,-3.5446,-3.5314,-3.5198,-3.5065,-3.5065,-3.5105,-3.5088,-3.5065,-3.5158,-3.5268,-3.5245,-3.5245,-3.5245,-3.5268,-3.5201,-3.4996,-3.4443,-3.4145,-3.3662,-3.2401,-3.153,-3.1015,-3.1131,-3.1072,-3.0975,-3.0975,-3.0975,-3.0818,-3.0351,-3.0166,-2.9995,-2.9629,-2.9429,-2.9293,-2.9293,-2.9225,-2.9035,-2.8591,-2.8439,-2.8213,-2.78,-2.7675,-2.76,-2.76,-2.76,-2.76,-2.76,-2.76,-2.76,-2.76,-2.76,-2.76,-2.76,-2.76,-2.76,-2.7615,-2.8278,-2.8293,-2.7914,-3.0432,-3.1511,-3.1511,-3.1511,-3.1511,-3.1511,-3.1511,-3.1511,-3.1511,-3.1511,-3.1511,-3.1511,-3.8707,-3.8707,-3.8661,-3.8519,-3.8598,-3.8661,-3.8504,-3.8469,-3.8405,-3.8225,-3.7685,-3.7267,-3.7075,-3.7036,-3.6661,-3.5672,-3.6478,-3.6701,-3.5888,-3.6002,-3.598,-3.5711,-3.5644,-3.56,-3.56,-3.56,-3.56,-3.56,-3.56,-3.56,-3.56,-3.56,-3.56,-3.56,-3.56,-3.56,-3.56,-3.56,-3.56,-3.56,-3.56,-3.56,-3.56,-3.5571,-3.5549,-3.5526,-3.5389,-3.5291,-3.5198,-3.5135,-3.5205,-3.5314,-3.5245,-3.5291,-3.54,-3.5314,-3.5291,-3.5331,-3.54,-3.5423,-3.5345,-3.5105,-3.4705,-3.4255,-3.366,-3.2591,-3.1621,-3.1275,-3.1151,-3.1112,-3.1112,-3.1112,-3.1035,-3.0838,-3.074,-3.0658,-3.0518,-3.023,-2.9892,-2.9563,-2.9518,-2.9406,-2.9111,-2.9042,-2.8919,-2.8709,-2.8638,-2.8614,-2.8614,-2.8614,-2.8575,-2.8488,-2.8231,-2.8067,-2.7978,-2.7735,-2.76,-2.76,-2.76,-2.76,-2.76,-2.7914,-2.7884,-2.766,-2.8801,-3.0163,-3.1511,-3.1511,-3.1511,-3.1511,-3.1511,-3.1511,-3.1511,-3.1511,-3.1511,-3.1511]},{"header":{"parameterUnit":"m.s-1","parameterCategory":1,"la1":30.6,"la2":28.766,"lo1":-90.7593,"lo2":-88.6598,"dy":0.0162,"dx":0.0183,"nx":116,"ny":114,"refTime":"2024-07-09T06:00:00:Z","depth":0,"parameterNumber":3,"parameterNumberName":"V-component_of_WINDS"},"data":[0.0,0.0,0.0,0.0,0.0,0.0,0.0,0.0,0.0,0.0,0.0,0.0,0.0,0.0,0.0,0.0,0.0,0.0,0.0,0.0,0.0,0.0,0.0,0.0,0.0,0.0,0.0,0.0,0.0,0.0,0.0,0.0,0.0,0.0,0.0,0.0,0.0,0.0,0.0,0.0,0.0,0.0,0.0,0.0,0.0,0.0,0.0,0.0,0.0,0.0,0.0,0.0,0.0,0.0,0.0,0.0,0.0,0.0,0.0,0.0,0.0,0.0,0.0,0.0,0.0,0.0,0.0,0.0,0.0,0.0,0.0,0.0,0.0,0.0,0.0,0.0,0.0,0.0,0.0,0.0,0.0,0.0,0.0,0.0,0.0,0.0,0.0,0.0,0.0,0.0,0.0,0.0,0.0,0.0,0.0,0.0,0.0,0.0,0.0,0.0,0.0,0.0,0.0,0.0,0.0,0.0,0.0,0.0,0.0,0.0,0.0,0.0,0.0,0.0,0.0,0.0,0.0,0.0,0.0,0.0,0.0,0.0,0.0,0.0,0.0,0.0,0.0,0.0,0.0,0.0,0.0,0.0,0.0,0.0,0.0,0.0,0.0,0.0,0.0,0.0,0.0,0.0,0.0,0.0,0.0,0.0,0.0,0.0,0.0,0.0,0.0,0.0,0.0,0.0,0.0,0.0,0.0,0.0,0.0,0.0,0.0,0.0,0.0,0.0,0.0,0.0,0.0,0.0,0.0,0.0,0.0,0.0,0.0,0.0,0.0,0.0,0.0,0.0,0.0,0.0,0.0,0.0,0.0,0.0,0.0,0.0,0.0,0.0,0.0,0.0,0.0,0.0,0.0,0.0,0.0,0.0,0.0,0.0,0.0,0.0,0.0,0.0,0.0,0.0,0.0,0.0,0.0,0.0,0.0,0.0,0.0,0.0,0.0,0.0,0.0,0.0,0.0,0.0,0.0,0.0,0.0,0.0,0.0,0.0,0.0,0.0,0.0,0.0,0.0,0.0,0.0,0.0,0.0,0.0,0.0,0.0,0.0,0.0,0.0,0.0,0.0,0.0,0.0,0.0,0.0,0.0,0.0,0.0,0.0,0.0,0.0,0.0,0.0,0.0,0.0,0.0,0.0,0.0,0.0,0.0,0.0,0.0,0.0,0.0,0.0,0.0,0.0,0.0,0.0,0.0,0.0,0.0,0.0,0.0,0.0,0.0,0.0,0.0,0.0,0.0,0.0,0.0,0.0,0.0,0.0,0.0,0.0,0.0,0.0,0.0,0.0,0.0,0.0,0.0,0.0,0.0,0.0,0.0,0.0,0.0,0.0,0.0,0.0,0.0,0.0,0.0,0.0,0.0,0.0,0.0,0.0,0.0,0.0,0.0,0.0,0.0,0.0,0.0,0.0,0.0,0.0,0.0,0.0,0.0,0.0,0.0,0.0,0.0,0.0,0.0,0.0,0.0,0.0,0.0,0.0,0.0,0.0,0.0,0.0,0.0,0.0,0.0,0.0,0.0,0.0,0.0,0.0,0.0,0.0,0.0,0.0,0.0,0.0,0.0,0.0,0.0,0.0,0.0,0.0,0.0,0.0,0.0,0.0,0.0,0.0,0.0,0.0,0.0,0.0,0.0,0.0,0.0,0.0,0.0,0.0,0.0,0.0,0.0,0.0,0.0,0.0,0.0,0.0,0.0,0.0,0.0,0.0,0.0,0.0,0.0,0.0,0.0,0.0,0.0,0.0,0.0,0.0,0.0,0.0,0.0,0.0,0.0,0.0,0.0,0.0,0.0,0.0,0.0,0.0,0.0,0.0,0.0,0.0,0.0,0.0,0.0,0.0,0.0,0.0,0.0,0.0,0.0,0.0,0.0,0.0,0.0,0.0,0.0,0.0,0.0,0.0,0.0,0.0,0.0,0.0,0.0,0.0,0.0,0.0,0.0,0.0,0.0,0.0,0.0,0.0,0.0,0.0,0.0,0.0,0.0,0.0,0.0,0.0,0.0,0.0,0.0,0.0,0.0,0.0,0.0,0.0,0.0,0.0,0.0,0.0,0.0,0.0,0.0,0.0,0.0,0.0,0.0,0.0,0.0,0.0,0.0,0.0,0.0,0.0,0.0,0.0,0.0,0.0,0.0,0.0,0.0,0.0,0.0,0.0,0.0,0.0,0.0,0.0,0.0,0.0,0.0,0.0,0.0,0.0,0.0,0.0,0.0,0.0,0.0,0.0,0.0,0.0,0.0,0.0,0.0,0.0,0.0,0.0,0.0,0.0,0.0,0.0,0.0,0.0,0.0,0.0,0.0,0.0,0.0,0.0,0.0,0.0,0.0,0.0,0.0,0.0,0.0,0.0,0.0,0.0,0.0,0.0,0.0,0.0,0.0,0.0,0.0,0.0,0.0,0.0,0.0,0.0,0.0,0.0,0.0,0.0,0.0,0.0,0.0,0.0,0.0,0.0,0.0,0.0,0.0,0.0,0.0,0.0,0.0,0.0,0.0,0.0,0.0,0.0,0.0,0.0,0.0,0.0,0.0,0.0,0.0,0.0,0.0,0.0,0.0,0.0,0.0,0.0,0.0,0.0,0.0,0.0,0.0,0.0,0.0,0.0,0.0,0.0,0.0,0.0,0.0,0.0,0.0,0.0,0.0,0.0,0.0,0.0,0.0,0.0,0.0,0.0,0.0,0.0,0.0,0.0,0.0,0.0,0.0,0.0,0.0,0.0,0.0,0.0,0.0,0.0,0.0,0.0,0.0,0.0,0.0,0.0,0.0,0.0,0.0,0.0,0.0,0.0,0.0,0.0,0.0,0.0,0.0,0.0,0.0,0.0,0.0,0.0,0.0,0.0,0.0,0.0,0.0,0.0,0.0,0.0,0.0,0.0,0.0,0.0,0.0,0.0,0.0,0.0,0.0,0.0,0.0,0.0,0.0,0.0,0.0,0.0,0.0,0.0,0.0,0.0,0.0,0.0,0.0,0.0,0.0,0.0,0.0,0.0,0.0,0.0,0.0,0.0,0.0,0.0,0.0,0.0,0.0,0.0,0.0,0.0,0.0,0.0,0.0,0.0,0.0,0.0,0.0,0.0,0.0,0.0,0.0,0.0,0.0,0.0,0.0,0.0,0.0,0.0,0.0,0.0,0.0,0.0,0.0,0.0,0.0,0.0,0.0,0.0,0.0,0.0,0.0,0.0,0.0,0.0,0.0,0.0,0.0,0.0,0.0,0.0,0.0,0.0,0.0,0.0,0.0,0.0,0.0,0.0,0.0,0.0,0.0,0.0,0.0,0.0,0.0,0.0,0.0,0.0,0.0,0.0,0.0,0.0,0.0,0.0,0.0,0.0,0.0,0.0,0.0,0.0,0.0,0.0,0.0,0.0,0.0,0.0,0.0,0.0,0.0,0.0,0.0,0.0,0.0,0.0,0.0,0.0,0.0,0.0,0.0,0.0,0.0,0.0,0.0,0.0,0.0,0.0,0.0,0.0,0.0,0.0,0.0,0.0,0.0,0.0,0.0,0.0,0.0,0.0,0.0,0.0,0.0,0.0,0.0,0.0,0.0,0.0,0.0,0.0,0.0,0.0,0.0,0.0,0.0,0.0,0.0,0.0,0.0,0.0,0.0,0.0,0.0,0.0,0.0,0.0,0.0,0.0,0.0,0.0,0.0,0.0,0.0,0.0,0.0,0.0,0.0,0.0,0.0,0.0,0.0,0.0,0.0,0.0,0.0,0.0,0.0,0.0,0.0,0.0,0.0,0.0,0.0,0.0,0.0,0.0,0.0,0.0,0.0,0.0,0.0,0.0,0.0,0.0,0.0,0.0,0.0,0.0,0.0,0.0,0.0,0.0,0.0,0.0,0.0,0.0,0.0,0.0,0.0,0.0,0.0,0.0,0.0,0.0,0.0,0.0,0.0,0.0,0.0,0.0,0.0,0.0,0.0,0.0,0.0,0.0,0.0,0.0,0.0,0.0,0.0,0.0,0.0,0.0,0.0,0.0,0.0,0.0,0.0,0.0,0.0,0.0,0.0,0.0,0.0,0.0,0.0,0.0,0.0,0.0,0.0,0.0,0.0,0.0,0.0,0.0,0.0,0.0,0.0,0.0,0.0,0.0,0.0,0.0,0.0,0.0,0.0,0.0,0.0,0.0,0.0,0.0,0.0,0.0,0.0,0.0,0.0,0.0,0.0,0.0,0.0,0.0,0.0,0.0,0.0,0.0,0.0,0.0,0.0,0.0,0.0,0.0,0.0,0.0,0.0,0.0,0.0,0.0,0.0,0.0,0.0,0.0,0.0,0.0,0.0,0.0,0.0,0.0,0.0,0.0,0.0,0.0,0.0,0.0,0.0,0.0,0.0,0.0,0.0,0.0,0.0,0.0,0.0,0.0,0.0,0.0,0.0,0.0,0.0,0.0,0.0,0.0,0.0,0.0,0.0,0.0,0.0,0.0,0.0,0.0,0.0,0.0,0.0,0.0,0.0,0.0,0.0,0.0,0.0,0.0,0.0,0.0,0.0,0.0,0.0,0.0,0.0,0.0,0.0,0.0,0.0,0.0,0.0,0.0,0.0,0.0,0.0,0.0,0.0,0.0,0.0,0.0,0.0,0.0,0.0,0.0,0.0,0.0,0.0,0.0,0.0,0.0,0.0,0.0,0.0,0.0,0.0,0.0,0.0,0.0,0.0,0.0,0.0,0.0,0.0,0.0,0.0,0.0,0.0,0.0,0.0,0.0,0.0,0.0,0.0,0.0,0.0,0.0,0.0,0.0,0.0,0.0,0.0,0.0,0.0,0.0,0.0,0.0,0.0,0.0,0.0,0.0,0.0,0.0,0.0,0.0,0.0,0.0,0.0,0.0,0.0,0.0,0.0,0.0,0.0,0.0,0.0,0.0,0.0,0.0,0.0,0.0,0.0,0.0,0.0,0.0,0.0,0.0,0.0,0.0,0.0,0.0,0.0,0.0,0.0,0.0,0.0,0.0,0.0,0.0,0.0,0.0,0.0,0.0,0.0,0.0,0.0,0.0,0.0,0.0,0.0,0.0,0.0,0.0,0.0,0.0,0.0,0.0,0.0,0.0,0.0,0.0,0.0,0.0,0.0,0.0,0.0,0.0,0.0,0.0,0.0,0.0,0.0,0.0,0.0,0.0,0.0,0.0,0.0,0.0,0.0,0.0,0.0,0.0,0.0,0.0,0.0,0.0,0.0,0.0,0.0,0.0,0.0,0.0,0.0,0.0,0.0,0.0,0.0,0.0,0.0,0.0,0.0,0.0,0.0,0.0,0.0,0.0,0.0,0.0,0.0,0.0,0.0,0.0,0.0,0.0,0.0,0.0,0.0,0.0,0.0,0.0,0.0,0.0,0.0,0.0,0.0,0.0,0.0,0.0,0.0,0.0,0.0,0.0,0.0,0.0,0.0,0.0,0.0,0.0,0.0,0.0,0.0,0.0,0.0,0.0,0.0,0.0,0.0,0.0,0.0,0.0,0.0,0.0,0.0,0.0,0.0,0.0,0.0,0.0,0.0,0.0,0.0,0.0,0.0,0.0,0.0,0.0,0.0,0.0,0.0,0.0,0.0,0.0,0.0,0.0,0.0,0.0,0.0,0.0,0.0,0.0,0.0,0.0,0.0,0.0,0.0,0.0,0.0,0.0,0.0,0.0,0.0,0.0,0.0,0.0,0.0,0.0,0.0,0.0,0.0,0.0,0.0,0.0,0.0,0.0,0.0,0.0,0.0,0.0,0.0,0.0,0.0,0.0,0.0,0.0,0.0,0.0,0.0,0.0,0.0,0.0,0.0,0.0,0.0,0.0,0.0,0.0,0.0,0.0,0.0,0.0,0.0,0.0,0.0,0.0,0.0,0.0,0.0,0.0,0.0,0.0,0.0,0.0,0.0,0.0,0.0,0.0,0.0,0.0,0.0,0.0,0.0,0.0,0.0,0.0,0.0,0.0,0.0,0.0,0.0,0.0,0.0,0.0,0.0,0.0,0.0,0.0,0.0,0.0,0.0,0.0,0.0,0.0,0.0,0.0,0.0,0.0,0.0,0.0,0.0,0.0,0.0,0.0,0.0,0.0,0.0,0.0,0.0,0.0,0.0,-1.4285,0.0,0.0,0.0,0.0,0.0,0.0,0.0,0.0,0.0,0.0,0.0,0.0,0.0,0.0,0.0,0.0,0.0,0.0,0.0,0.0,0.0,0.0,0.0,0.0,-0.7435,-0.8025,-0.8087,-0.8094,-0.8094,-0.8094,0.0,0.0,0.0,0.0,0.0,-0.8203,-0.8209,-0.84,-0.8792,-0.8792,-0.9503,-1.0899,-1.1002,-1.0616,-0.9812,0.0,0.0,0.0,0.0,0.0,0.0,0.0,0.0,0.0,0.0,0.0,0.0,0.0,0.0,0.0,0.0,0.0,0.0,0.0,0.0,0.0,0.0,0.0,0.0,0.0,0.0,0.0,0.0,0.0,0.0,0.0,0.0,0.0,0.0,0.0,0.0,0.0,0.0,0.0,0.0,0.0,0.0,0.0,0.0,0.0,0.0,0.0,0.0,0.0,0.0,0.0,0.0,0.0,0.0,0.0,0.0,0.0,0.0,0.0,0.0,0.0,0.0,0.0,0.0,0.0,0.0,0.0,0.0,0.0,0.0,0.0,-1.5979,0.0,0.0,0.0,0.0,0.0,0.0,0.0,0.0,0.0,0.0,0.0,0.0,0.0,0.0,0.0,0.0,0.0,0.0,0.0,0.0,0.0,-0.6446,-0.7036,-0.77,-0.8094,-0.8094,-0.8094,-0.8094,-0.8094,-0.8094,0.0,0.0,0.0,-0.8094,-0.8094,-0.8217,-0.8595,-0.9265,-0.9758,-1.0977,-1.2905,-1.3692,-1.3238,-1.1767,-1.1309,0.0,0.0,0.0,0.0,0.0,0.0,0.0,0.0,0.0,0.0,0.0,0.0,0.0,0.0,0.0,0.0,0.0,0.0,0.0,0.0,0.0,0.0,0.0,0.0,0.0,0.0,0.0,0.0,0.0,0.0,0.0,0.0,0.0,0.0,0.0,0.0,0.0,0.0,0.0,0.0,0.0,0.0,0.0,0.0,0.0,0.0,0.0,0.0,0.0,0.0,0.0,0.0,0.0,0.0,0.0,0.0,0.0,0.0,0.0,0.0,0.0,0.0,0.0,-3.0233,-3.053,-3.1087,-3.1087,-3.1087,-3.0641,-2.2495,-2.1064,-2.4537,0.0,0.0,0.0,0.0,0.0,0.0,0.0,0.0,0.0,0.0,0.0,0.0,0.0,0.0,0.0,0.0,0.0,0.0,0.0,0.0,-0.6806,-0.707,-0.77,-0.8094,-0.8094,-0.8094,-0.8094,-0.8094,-0.8094,0.0,0.0,-0.8094,-0.8094,-0.8094,-0.8672,-0.9296,-0.9973,-1.2359,-1.3975,-1.4862,-1.5538,0.0,-1.5678,-1.4201,-1.3715,-1.3861,0.0,0.0,0.0,0.0,0.0,0.0,0.0,0.0,0.0,0.0,0.0,0.0,0.0,0.0,0.0,0.0,0.0,0.0,0.0,0.0,0.0,0.0,0.0,0.0,0.0,0.0,0.0,0.0,0.0,0.0,0.0,0.0,0.0,0.0,0.0,0.0,0.0,0.0,0.0,0.0,0.0,-1.6351,-1.8091,0.0,0.0,0.0,0.0,0.0,0.0,0.0,0.0,0.0,0.0,0.0,0.0,0.0,0.0,-2.8719,-3.1533,-3.3138,-3.3566,-3.3566,-3.5052,-3.7819,-3.7819,-3.7819,-3.7745,-3.6445,0.0,-2.4723,-2.7585,0.0,0.0,0.0,0.0,0.0,0.0,0.0,0.0,0.0,0.0,0.0,0.0,0.0,0.0,0.0,0.0,0.0,0.0,0.0,0.0,0.0,-0.8488,-0.8811,-0.9188,-0.9573,-0.9465,-0.8703,0.0,0.0,-0.814,-0.8094,-0.8279,-0.8657,-0.9311,-1.0558,-1.2405,-1.4747,-1.6239,-1.6901,-1.7607,0.0,-1.8579,-1.7628,-1.646,-1.5117,-1.3592,0.0,0.0,0.0,0.0,0.0,0.0,0.0,0.0,0.0,0.0,0.0,0.0,0.0,0.0,0.0,0.0,0.0,0.0,0.0,0.0,0.0,0.0,0.0,0.0,0.0,0.0,0.0,0.0,0.0,0.0,0.0,0.0,0.0,0.0,0.0,0.0,0.0,0.0,0.0,-1.4922,-1.7749,-1.9195,-2.0982,-2.0657,0.0,0.0,0.0,0.0,0.0,0.0,0.0,0.0,0.0,-2.6654,-2.8769,-3.0641,-3.2072,-3.533,-3.6946,-3.6946,-3.6946,-3.7708,-3.9101,-3.9101,-3.9101,-3.9073,-3.8504,-3.582,-3.1873,-3.2028,-3.0177,-2.6935,0.0,0.0,0.0,0.0,-2.1327,-2.6835,0.0,0.0,0.0,0.0,0.0,0.0,0.0,0.0,0.0,0.0,0.0,0.0,-0.8973,-0.925,-0.9619,-1.0303,-1.0811,0.0,0.0,0.0,-0.9404,-0.8395,-0.8186,-0.8418,-0.9088,-1.045,-1.2487,-1.5224,-1.6915,-1.8084,0.0,0.0,0.0,0.0,0.0,0.0,0.0,0.0,0.0,0.0,0.0,0.0,0.0,0.0,0.0,0.0,0.0,0.0,0.0,0.0,0.0,0.0,0.0,0.0,0.0,0.0,0.0,0.0,0.0,0.0,0.0,0.0,0.0,0.0,0.0,0.0,0.0,0.0,0.0,0.0,0.0,0.0,0.0,0.0,0.0,0.0,0.0,-1.6476,-1.8726,-1.9939,-2.2601,-2.4027,0.0,0.0,0.0,0.0,0.0,0.0,-3.3913,-3.6515,-3.5146,-2.9721,-3.3136,-3.5069,-3.5069,-3.7489,-3.8718,-3.8718,-3.897,-3.9101,-3.9106,-3.9674,-3.9905,-3.9874,-3.9139,-3.8809,-3.8615,-3.61,-3.3813,-3.1604,-2.8916,-2.5876,-2.2997,-2.2997,-2.6235,-3.0939,0.0,0.0,0.0,0.0,0.0,0.0,0.0,0.0,0.0,0.0,0.0,-0.8101,-0.9004,0.0,-1.0318,-1.0995,-1.1087,-1.1072,0.0,0.0,-0.9119,-0.9057,-0.8441,-0.8418,-0.9088,-1.2313,-1.5316,0.0,0.0,0.0,0.0,0.0,0.0,0.0,0.0,0.0,0.0,0.0,0.0,0.0,0.0,0.0,0.0,0.0,0.0,0.0,0.0,0.0,0.0,0.0,0.0,0.0,0.0,0.0,0.0,0.0,0.0,0.0,0.0,0.0,0.0,0.0,0.0,0.0,0.0,0.0,0.0,0.0,0.0,0.0,0.0,0.0,0.0,0.0,0.0,0.0,0.0,0.0,0.0,-2.2235,-2.4148,0.0,0.0,0.0,0.0,-2.3345,-2.5759,-2.9768,-3.5508,-3.6945,-3.6267,-3.3346,-3.5957,-3.7435,-3.7435,-3.7578,-3.7685,-3.7685,-3.8643,-3.9101,-3.9166,-4.1216,-4.2139,-4.2139,-4.2096,-4.2076,-4.1826,-3.8722,-3.7905,-3.8498,-3.7383,-3.5003,-3.2232,-3.2232,-3.4309,-3.7149,0.0,0.0,0.0,-0.3693,-0.4193,-0.4738,-0.5173,-0.6034,-0.6825,-0.7376,-0.8065,-0.8943,0.0,-1.0944,-1.1831,-1.2762,0.0,-1.3363,0.0,0.0,-1.1091,-1.1091,-0.9953,-1.041,-1.278,-1.5379,-1.7364,0.0,0.0,0.0,0.0,0.0,0.0,0.0,0.0,0.0,0.0,0.0,0.0,0.0,0.0,0.0,0.0,0.0,0.0,0.0,0.0,0.0,0.0,0.0,0.0,0.0,0.0,0.0,0.0,0.0,0.0,0.0,0.0,0.0,0.0,0.0,0.0,0.0,0.0,0.0,0.0,0.0,0.0,0.0,0.0,0.0,0.0,0.0,0.0,0.0,0.0,0.0,0.0,-2.5491,-2.6809,0.0,0.0,-2.6531,-2.5998,-2.6802,-2.9568,-3.291,-3.6802,-3.7381,-3.6471,-3.4026,-3.6322,-3.8577,-4.0612,-4.063,-4.063,-4.063,-4.0996,-4.1162,-4.118,-4.1952,-4.2308,-4.2308,-4.2308,-4.2308,-4.2218,-4.1094,-4.0844,-4.0926,-3.8528,-3.6916,-3.5917,-3.5917,-3.6649,-3.7595,-0.3603,-0.3644,0.0,-0.3693,-0.4384,-0.5089,-0.5536,-0.6392,-0.7279,-0.8042,-0.8727,-0.9683,0.0,0.0,0.0,0.0,0.0,0.0,0.0,0.0,-1.2431,-1.22,-1.1653,-1.2704,-1.5588,-1.7228,-1.8476,0.0,0.0,0.0,0.0,0.0,0.0,0.0,0.0,0.0,0.0,0.0,0.0,0.0,0.0,0.0,-1.4241,0.0,0.0,0.0,0.0,0.0,0.0,0.0,0.0,0.0,0.0,0.0,0.0,0.0,0.0,0.0,0.0,0.0,0.0,0.0,0.0,0.0,0.0,0.0,0.0,0.0,0.0,0.0,0.0,0.0,0.0,0.0,0.0,0.0,0.0,0.0,-2.5755,-2.7955,-2.9099,-2.9741,-2.9807,-2.8525,-2.8373,-2.9999,-3.2845,-3.5399,-3.7488,-3.7595,-3.6908,-3.5402,-3.6815,-3.9112,-4.2272,-4.2308,-4.2308,-4.2308,-4.2308,-4.2308,-4.2308,-4.2308,-4.2308,-4.2308,-4.2308,-4.2308,-4.2308,-4.2308,-4.2308,-4.2093,-4.0005,-3.9201,-3.9201,-3.9201,-3.9201,-3.9201,-0.3594,-0.3595,-0.363,-0.3717,-0.4772,-0.5612,-0.5626,-0.6756,-0.7875,-0.8687,-0.9269,-1.0253,0.0,0.0,0.0,0.0,0.0,0.0,0.0,-1.359,-1.2939,-1.2308,-1.3485,-1.5095,-1.7105,-1.7745,0.0,0.0,0.0,0.0,0.0,0.0,0.0,0.0,0.0,0.0,0.0,0.0,0.0,0.0,0.0,0.0,-1.6162,0.0,0.0,0.0,0.0,0.0,0.0,0.0,0.0,0.0,0.0,0.0,0.0,0.0,0.0,0.0,0.0,0.0,0.0,0.0,0.0,0.0,0.0,0.0,0.0,0.0,0.0,0.0,0.0,0.0,0.0,0.0,0.0,0.0,-2.2765,-2.5046,-2.779,-2.953,-3.0969,-3.1908,-3.211,-3.124,-3.1296,-3.2846,-3.5935,-3.7755,-3.7755,-3.7755,-3.7755,-3.7755,-3.7755,-3.9219,-4.2272,-4.2308,-4.2308,-4.2308,-4.2308,-4.2308,-4.2308,-4.2308,-4.2308,-4.2308,-4.2308,-4.2308,-4.2308,-4.2308,-4.2308,-4.2308,-4.2308,-4.2308,-4.2308,-4.2308,-4.2308,-4.2308,-0.3586,-0.3595,-0.3755,-0.4272,-0.5047,-0.5746,-0.6189,-0.6942,-0.7728,-0.8483,-0.913,0.0,0.0,0.0,0.0,0.0,0.0,-1.5251,-1.5639,-1.4113,-1.3486,-1.4129,-1.6435,0.0,-1.8394,0.0,0.0,0.0,0.0,0.0,0.0,0.0,0.0,0.0,0.0,0.0,0.0,0.0,0.0,0.0,0.0,0.0,-1.8346,0.0,0.0,0.0,0.0,0.0,0.0,0.0,0.0,0.0,0.0,0.0,0.0,0.0,0.0,0.0,0.0,0.0,0.0,0.0,0.0,0.0,0.0,0.0,0.0,0.0,0.0,0.0,0.0,0.0,0.0,0.0,0.0,-3.0086,-2.6934,-2.8758,-3.1023,-3.2662,-3.3684,-3.4489,-3.5129,-3.4416,-3.4097,-3.4526,-3.8558,-4.1022,-4.1022,-4.1022,-4.1022,-4.1022,-4.1022,-4.1433,-4.2308,-4.2308,-4.2308,-4.2308,-4.2308,-4.2308,-4.2308,-4.2308,-4.2308,-4.2308,-4.2308,-4.2308,-4.2308,-4.2308,-4.2308,-4.2308,-4.2308,-4.2308,-4.2308,-4.2308,-4.2308,-4.2308,-0.3582,-0.3827,-0.4142,-0.4537,-0.537,-0.6091,-0.6449,-0.7062,-0.7836,-0.8793,-0.948,0.0,0.0,0.0,0.0,0.0,0.0,-1.4907,-1.4896,-1.435,-1.4819,-1.6589,0.0,0.0,0.0,0.0,0.0,0.0,0.0,0.0,0.0,0.0,0.0,0.0,0.0,0.0,0.0,0.0,0.0,0.0,0.0,0.0,-2.0441,-1.9454,-1.7946,-1.6391,-1.6639,-1.6331,-1.5654,-1.487,0.0,0.0,0.0,0.0,0.0,0.0,0.0,0.0,0.0,0.0,0.0,0.0,0.0,0.0,0.0,0.0,0.0,0.0,0.0,0.0,0.0,0.0,0.0,0.0,-3.1028,-3.2809,-3.2073,-3.2312,-3.3195,-3.4865,-3.5739,-3.6524,-3.7327,-3.7273,-3.7166,-3.7166,-4.036,-4.2308,-4.2308,-4.2308,-4.2308,-4.2308,-4.2308,-4.2308,-4.2308,-4.2308,-4.2308,-4.2308,-4.2308,-4.2308,-4.2308,-4.2308,-4.2308,0.0,-4.2308,-4.2308,-4.2308,-4.2308,-4.2308,0.0,0.0,0.0,0.0,0.0,-4.2308,-4.2308,-0.369,-0.418,-0.4639,-0.4788,-0.5756,-0.6519,-0.6596,-0.7163,-0.8008,-0.9215,0.0,0.0,0.0,0.0,0.0,0.0,0.0,-1.4109,0.0,0.0,0.0,-1.8967,-1.9081,0.0,0.0,0.0,0.0,0.0,0.0,0.0,0.0,0.0,0.0,0.0,0.0,0.0,0.0,0.0,0.0,0.0,0.0,0.0,-2.2255,-2.0949,-2.0397,-2.0196,-1.9362,-1.9053,-1.8715,-1.653,0.0,0.0,0.0,0.0,0.0,0.0,0.0,0.0,0.0,0.0,0.0,0.0,0.0,0.0,0.0,0.0,0.0,0.0,0.0,0.0,0.0,0.0,0.0,0.0,-3.5197,-3.5035,-3.705,-3.5558,-3.4836,-3.6488,-3.7291,-3.8058,-3.8933,-3.9538,-3.9966,-4.0144,-4.1484,-4.2308,-4.2308,0.0,0.0,0.0,0.0,-4.2308,-4.2308,-4.2308,-4.2308,-4.2308,-4.2308,-4.2308,-4.2308,-4.2308,-4.2308,-4.2308,-4.2308,-4.2308,-4.2308,-4.2308,-4.2267,-4.2225,-4.2287,-4.2308,-4.2287,-4.2166,-4.2187,-4.2308,-0.4291,-0.4435,-0.4856,-0.5946,-0.6337,-0.6667,-0.7152,-0.7344,-0.7707,-0.8435,-0.91,0.0,0.0,0.0,0.0,0.0,0.0,0.0,0.0,0.0,-1.788,0.0,0.0,0.0,0.0,0.0,0.0,0.0,0.0,0.0,0.0,0.0,0.0,0.0,0.0,0.0,0.0,0.0,0.0,0.0,0.0,0.0,-2.2978,-2.1793,-2.0901,-2.0289,-2.0087,-2.0025,-1.9948,-1.9471,-1.8561,-1.7577,-1.7316,0.0,0.0,0.0,0.0,0.0,0.0,0.0,0.0,0.0,0.0,0.0,0.0,0.0,0.0,0.0,0.0,0.0,0.0,0.0,0.0,-3.6008,-3.6059,-3.6392,-3.7871,-3.7469,-3.7356,-3.8233,-3.8469,-3.904,-4.0217,-4.0075,-4.0449,-4.1734,-4.2109,-4.2308,-4.2308,-4.2308,0.0,-4.2308,-4.2308,-4.2308,-4.2308,-4.2308,-4.2308,-4.2308,0.0,0.0,-4.2308,-4.2308,-4.2308,-4.2308,-4.2308,-4.2308,-4.2308,-4.2308,-4.2044,-4.1687,-4.2124,-4.2308,-4.2187,-4.1378,-4.1596,-4.2308,-0.5062,-0.5309,-0.5611,-0.6284,-0.6708,-0.7046,-0.7357,-0.7399,-0.7601,-0.8172,-0.8575,0.0,0.0,0.0,0.0,0.0,0.0,0.0,0.0,0.0,0.0,0.0,0.0,0.0,0.0,0.0,0.0,0.0,0.0,0.0,0.0,0.0,0.0,0.0,0.0,0.0,0.0,0.0,0.0,0.0,0.0,0.0,-2.3703,-2.3159,-2.2686,-2.2135,-2.078,-2.058,-2.0888,-2.0458,-1.984,-1.9192,-1.8854,-1.7592,-1.6071,0.0,0.0,0.0,0.0,0.0,0.0,0.0,0.0,0.0,0.0,0.0,0.0,0.0,0.0,-2.0758,0.0,0.0,-3.5611,-3.6887,-3.7116,-3.7439,-3.8459,-3.8459,-3.8562,-3.9128,-3.9562,-4.0046,-4.0646,-4.0931,-4.1431,-4.2254,-4.2308,-4.2308,-4.2308,-4.2308,-4.2308,-4.2308,-4.2308,-4.2308,-4.2308,-4.2308,-4.2308,-4.2308,-4.2308,-4.2308,-4.2308,-4.2308,-4.2308,-4.2308,-4.2308,-4.1727,-4.0832,-4.1157,-4.1225,-4.1197,-4.1445,-4.1661,-4.1749,-4.1243,-4.0949,-4.0808,-0.5668,-0.6179,-0.6468,-0.649,-0.7001,-0.7399,-0.7399,-0.7399,-0.7551,-0.7998,-0.8172,-0.8446,-0.8876,-0.9208,-0.9455,0.0,0.0,0.0,0.0,0.0,0.0,0.0,0.0,0.0,0.0,0.0,0.0,0.0,0.0,0.0,0.0,0.0,0.0,0.0,0.0,0.0,0.0,0.0,0.0,0.0,0.0,0.0,-2.4193,-2.4076,-2.4148,-2.3979,-2.1458,-2.0903,-2.1239,-2.0533,-2.0304,-2.0212,-1.9657,-1.9008,-1.8192,-1.7115,-1.6223,0.0,0.0,0.0,0.0,0.0,0.0,0.0,0.0,0.0,-2.6319,-2.9587,-2.9619,-2.9541,-3.1162,-3.3128,-3.5218,-3.7271,-3.784,-3.8212,-3.8768,-3.8842,-3.9077,-3.9775,-4.04,-4.0828,-4.0902,-4.1749,-4.2308,-4.2308,-4.2308,-4.2308,-4.2308,-4.2308,-4.2308,-4.2308,-4.2308,-4.2308,-4.2308,-4.2308,-4.2308,-4.2308,-4.2308,-4.2308,-4.2308,-4.2308,-4.2308,-4.2287,-4.2103,-4.1088,-3.9635,-4.0045,-4.04,-4.0642,-4.0642,-4.0761,-4.0926,-4.1001,-4.0375,-3.9468,-0.5695,-0.6419,-0.7044,-0.7172,-0.7301,-0.7399,-0.7399,-0.7399,-0.742,-0.7482,-0.7913,-0.8226,-0.8286,-0.8964,-0.9755,0.0,0.0,0.0,0.0,0.0,0.0,0.0,0.0,0.0,0.0,0.0,0.0,0.0,0.0,0.0,0.0,0.0,0.0,0.0,0.0,0.0,0.0,0.0,0.0,0.0,0.0,0.0,-2.4131,-2.3405,-2.363,-2.4056,-2.2147,-2.1008,-2.0426,-2.0335,-2.0304,-2.0289,-2.0212,-1.9718,-1.9148,-1.8994,0.0,-1.7085,-1.7608,-1.7989,0.0,-2.2078,-2.2114,-2.2388,0.0,0.0,-3.1367,-3.2412,-3.4057,-3.5352,-3.5594,-3.5852,-3.6146,-3.6422,-3.7629,-3.8548,-3.8622,-3.8622,-3.9162,-4.0597,-4.0793,-4.1011,-4.1623,-4.2053,-4.2308,-4.2308,-4.2308,-4.2308,-4.2308,-4.2308,-4.2308,-4.2308,-4.2308,-4.2308,-4.2308,-4.2308,-4.2308,-4.2308,-4.2308,-4.2308,-4.2308,-4.2308,-4.2308,-4.2246,-4.1356,-4.0849,-4.0611,-4.0203,-4.0053,-4.0103,-4.0103,-3.9859,-3.9582,-3.9995,-4.0153,-4.0095,-0.5965,-0.6398,-0.6752,-0.6929,-0.7201,-0.7345,-0.7195,-0.7264,-0.731,-0.7179,-0.7403,-0.755,-0.7508,-0.7803,-0.8456,-0.9579,-1.0601,0.0,-1.4402,0.0,0.0,0.0,0.0,0.0,0.0,0.0,0.0,0.0,0.0,0.0,0.0,0.0,0.0,0.0,0.0,0.0,0.0,0.0,0.0,0.0,0.0,0.0,-2.3513,-2.3153,-2.3049,-2.2932,-2.1411,-2.0949,0.0,0.0,-2.0304,-2.0304,-2.0304,-1.9842,-1.9302,-1.9302,-1.9147,0.0,-2.0918,0.0,0.0,0.0,-2.5461,-2.6189,-2.8466,-3.0011,-3.1456,-3.3032,-3.4396,-3.5433,-3.583,-3.611,-3.6594,0.0,-3.8163,-3.8927,-3.9825,-3.9945,-3.9963,-4.0014,-4.0532,-4.1103,-4.1731,-4.1801,-4.1776,-4.1776,-4.1776,-4.1866,-4.2061,-4.2061,-4.2145,-4.2287,-4.2308,-4.2308,-4.2308,-4.2308,-4.2751,-4.3643,-4.3643,-4.3643,-4.3607,-4.2697,-4.2455,-4.2661,-4.1597,-4.1348,-4.1563,-4.1033,-4.0585,-4.0244,-4.0244,-3.9834,-3.9352,-3.9817,-3.9868,-3.9687,-0.6201,-0.6381,-0.6479,-0.6578,-0.6993,-0.7251,-0.7058,-0.7182,-0.7252,-0.7096,-0.708,-0.705,-0.7001,-0.6977,-0.7402,-0.8468,-0.9705,-1.1294,0.0,-1.5084,0.0,0.0,0.0,0.0,0.0,0.0,0.0,0.0,0.0,0.0,0.0,0.0,0.0,0.0,0.0,0.0,0.0,0.0,0.0,0.0,0.0,0.0,-2.2986,-2.2787,-2.2502,-2.2072,-2.0988,-2.0637,0.0,0.0,-1.9625,-1.9702,-1.9501,-1.9239,-1.907,-1.9456,-2.0181,-2.1265,-2.3129,0.0,0.0,-2.6778,-2.835,-2.9734,-3.0577,-3.0918,-3.1571,-3.3357,-3.4239,-3.4835,-3.5317,-3.5893,0.0,-3.7767,-3.8663,-3.9635,-4.0739,-4.017,-3.9439,-3.8905,-3.9806,-4.0724,-4.1333,-4.1426,-4.142,-4.1353,-4.1398,-4.1577,-4.1805,-4.187,-4.1998,-4.2166,-4.2267,-4.2314,-4.2384,-4.2617,-4.3286,-4.441,-4.4999,-4.5094,-4.4751,-4.3307,-4.2694,-4.2746,-4.1972,-4.1766,-4.1946,-4.1577,-4.111,-4.0663,-4.0663,-4.0332,-3.9889,-4.0038,-3.9776,-3.9299,-0.629,-0.6455,-0.6538,-0.6351,-0.6761,-0.7107,-0.7099,-0.7214,-0.7306,-0.7298,-0.7126,-0.7001,-0.6993,-0.6936,-0.7183,-0.7867,-0.8909,-1.0258,-1.1942,-1.3687,0.0,0.0,0.0,0.0,0.0,0.0,0.0,0.0,0.0,0.0,0.0,0.0,0.0,0.0,0.0,0.0,0.0,0.0,0.0,0.0,0.0,0.0,-2.2757,-2.2228,-2.2028,-2.1937,-2.1527,0.0,0.0,0.0,-1.7946,-1.8146,-1.75,-1.7731,0.0,-1.9871,-2.1196,0.0,0.0,0.0,-2.443,-2.8478,-3.0377,-3.1526,-3.2748,-3.3008,-3.3218,-3.3947,-3.4513,-3.489,-3.4923,-3.5694,-3.6318,-3.6353,-3.887,-4.086,-4.0894,-3.8318,-3.6674,-3.739,-3.8638,-3.9686,0.0,-4.1088,-4.1475,-4.1232,-4.1453,-4.1604,-4.1604,-4.1784,-4.1895,-4.1895,-4.2166,-4.2378,-4.2582,-4.3446,-4.3878,-4.395,-4.5967,-4.6341,-4.5234,-4.4085,-4.3057,-4.2216,-4.2187,-4.1889,-4.1409,-4.1409,-4.1409,-4.1375,-4.1375,-4.1375,-4.1276,-4.0608,-3.9928,-3.9299,-0.6102,-0.6153,-0.6189,-0.6165,-0.65,-0.6782,-0.6833,-0.7023,-0.7145,-0.7104,-0.7006,0.0,0.0,0.0,0.0,0.0,-0.884,-1.0062,-1.1383,-1.3422,0.0,0.0,0.0,0.0,0.0,0.0,0.0,0.0,0.0,0.0,0.0,0.0,0.0,0.0,0.0,0.0,0.0,0.0,0.0,0.0,0.0,0.0,-2.1221,-2.0735,-2.106,-2.1457,0.0,0.0,0.0,0.0,0.0,0.0,-1.85,0.0,0.0,-2.0426,0.0,0.0,0.0,0.0,-2.7556,-3.0273,-3.1558,-3.2433,-3.3501,-3.3761,-3.3696,-3.3469,-3.4234,-3.4787,-3.4423,-3.5436,-3.6973,-3.9031,-3.9737,-4.002,-4.002,-3.9132,-3.8415,-3.8166,-3.9137,0.0,0.0,0.0,0.0,-4.0614,-4.0704,-4.0789,-4.0919,-4.1436,-4.1631,-4.1458,-4.2132,-4.2546,-4.2675,-4.3444,-4.4117,-4.4647,-4.5474,-4.5537,-4.4964,-4.4552,-4.392,-4.3118,-4.3118,-4.3019,-4.2853,-4.2853,-4.2555,-4.2109,-4.2109,-4.1839,-4.1375,-4.116,-4.0613,-3.9962,-0.5998,-0.5998,-0.6018,-0.6057,-0.6351,0.0,0.0,0.0,0.0,0.0,0.0,0.0,0.0,0.0,0.0,0.0,0.0,-0.9356,-1.052,0.0,0.0,0.0,0.0,0.0,0.0,0.0,0.0,0.0,0.0,0.0,0.0,0.0,0.0,0.0,0.0,0.0,0.0,0.0,0.0,0.0,0.0,0.0,-2.0168,-1.9643,-1.9847,0.0,0.0,0.0,0.0,0.0,0.0,0.0,0.0,0.0,0.0,0.0,0.0,-2.4513,0.0,-2.8,-2.9176,-3.1591,-3.2476,-3.2956,-3.3761,-3.3705,-3.331,-3.2813,-3.2651,-3.2472,-3.2124,-3.2702,-3.4631,-3.8952,-3.9872,-3.9859,-3.9259,-3.9206,-3.9025,-3.8528,-3.9067,0.0,0.0,0.0,0.0,-4.0045,-4.0213,-4.0362,-4.0483,-4.0984,-4.1267,-4.1375,-4.1974,-4.2454,-4.2839,-4.3562,-4.4328,-4.5095,-4.5026,-4.491,-4.468,-4.4457,-4.4076,-4.3598,-4.3598,-4.3598,-4.3598,-4.3598,-4.3317,-4.2886,-4.2886,-4.2589,-4.2142,-4.1877,-4.1524,-4.1011,-0.5998,-0.5998,-0.5998,0.0,0.0,0.0,0.0,0.0,0.0,0.0,0.0,0.0,0.0,0.0,0.0,0.0,0.0,0.0,-0.9328,0.0,0.0,0.0,0.0,-1.4256,-1.5216,-1.5666,-1.6231,0.0,0.0,0.0,0.0,0.0,0.0,0.0,0.0,0.0,0.0,0.0,0.0,0.0,0.0,0.0,-1.9519,-1.8931,0.0,0.0,0.0,0.0,0.0,0.0,0.0,0.0,0.0,0.0,0.0,0.0,0.0,-2.5962,-2.8295,-2.8814,-2.9398,-3.2536,-3.3197,-3.3139,-3.3533,-3.2914,-3.2174,-3.1877,-2.995,-2.8299,0.0,0.0,-2.9868,-3.6185,-3.9122,-4.0118,-3.8639,-3.8463,-3.8496,0.0,0.0,0.0,0.0,0.0,0.0,-3.9506,0.0,-4.0213,-4.0213,-4.0476,-4.094,-4.1619,-4.1713,-4.2176,-4.3076,-4.3773,-4.4475,-4.525,-4.4691,-4.4446,-4.4418,-4.3877,-4.3598,-4.3598,-4.3598,-4.3598,-4.3598,-4.3598,-4.3598,-4.3598,-4.3598,-4.3598,-4.3515,-4.2804,-4.2522,-4.2319,0.0,0.0,0.0,0.0,0.0,0.0,0.0,0.0,0.0,0.0,0.0,0.0,0.0,0.0,0.0,0.0,0.0,0.0,0.0,0.0,0.0,0.0,0.0,0.0,0.0,-1.4436,0.0,0.0,0.0,0.0,0.0,0.0,0.0,0.0,0.0,0.0,0.0,0.0,0.0,0.0,0.0,0.0,-1.8079,0.0,0.0,0.0,0.0,0.0,0.0,0.0,0.0,0.0,0.0,0.0,-2.3748,0.0,0.0,-2.8057,-3.0176,-3.1404,-3.2388,-3.347,-3.3713,-3.3486,-3.2807,-3.2041,-3.1077,-2.9605,-2.8259,-2.6927,-2.5519,0.0,0.0,-3.3877,-3.5911,0.0,-3.8674,-3.8592,0.0,0.0,0.0,-3.8917,-3.898,-3.8996,0.0,0.0,-3.9104,-3.9345,-3.9345,-4.0364,-4.0881,-4.0662,-4.1862,-4.2673,-4.2931,-4.3765,-4.4349,-4.4708,-4.4105,-4.3848,-4.3818,-4.3687,-4.3598,-4.3598,-4.3598,-4.3598,-4.3598,-4.3598,-4.3598,-4.3598,-4.3598,-4.3598,-4.3582,-4.3383,-4.2969,-4.244,0.0,0.0,0.0,0.0,0.0,0.0,0.0,0.0,0.0,0.0,0.0,0.0,0.0,0.0,0.0,0.0,0.0,0.0,0.0,0.0,0.0,0.0,0.0,0.0,0.0,0.0,0.0,0.0,0.0,0.0,0.0,0.0,0.0,0.0,0.0,0.0,0.0,0.0,0.0,0.0,0.0,0.0,0.0,0.0,0.0,0.0,0.0,0.0,0.0,0.0,0.0,-2.1565,-2.3117,-2.4348,-2.5435,-2.6857,0.0,-3.0027,-3.1443,-3.2829,-3.3856,-3.3717,-3.3451,-3.2893,-3.1628,-3.0446,-2.9075,-2.7096,-2.5928,0.0,0.0,0.0,0.0,0.0,0.0,0.0,-3.7932,-3.8487,-3.8683,0.0,-3.8738,0.0,-3.8738,-3.9033,-3.9145,0.0,-3.924,-3.9473,-3.9473,-4.0519,-4.1106,-4.1147,-4.2026,-4.2705,-4.3194,-4.3685,-4.3989,-4.4093,-4.3759,-4.3598,-4.3598,-4.3598,-4.3598,-4.3598,0.0,-4.3598,-4.3598,-4.3598,-4.3598,-4.3598,-4.3598,-4.3598,-4.3598,-4.3598,-4.3333,-4.2969,0.0,0.0,0.0,0.0,0.0,0.0,0.0,0.0,0.0,0.0,0.0,0.0,0.0,0.0,0.0,0.0,0.0,0.0,0.0,0.0,0.0,0.0,0.0,0.0,0.0,0.0,0.0,0.0,0.0,0.0,0.0,0.0,0.0,0.0,0.0,0.0,0.0,0.0,0.0,0.0,0.0,0.0,0.0,0.0,0.0,0.0,0.0,0.0,0.0,0.0,-2.2028,-2.2289,-2.4902,-2.6173,-2.6988,-2.8396,-3.0027,-3.1609,-3.2444,-3.3581,-3.4351,-3.3706,-3.2967,-3.1952,-3.0259,-2.8467,-2.662,-2.4553,0.0,0.0,-2.1343,0.0,-2.523,-2.8308,0.0,-3.4243,-3.6913,-3.8144,-3.8679,-3.8432,-3.8391,-3.8391,-3.8391,-3.9084,-3.9505,-3.9505,-4.0013,-4.0261,-4.0163,-4.082,-4.1497,-4.2219,-4.2196,-4.2613,-4.3509,-4.3522,-4.3539,-4.3568,-4.3598,-4.3598,-4.3598,-4.3598,-4.3598,-4.3598,0.0,0.0,-4.3598,-4.3598,-4.3598,-4.3598,-4.3598,-4.3598,-4.3598,-4.3598,-4.3598,-4.3598,0.0,0.0,0.0,0.0,0.0,0.0,0.0,0.0,0.0,0.0,-0.717,-0.6908,0.0,0.0,0.0,0.0,0.0,0.0,0.0,0.0,0.0,0.0,0.0,0.0,0.0,0.0,0.0,0.0,0.0,0.0,0.0,0.0,0.0,0.0,0.0,0.0,0.0,0.0,0.0,0.0,0.0,0.0,0.0,0.0,0.0,0.0,0.0,0.0,0.0,0.0,-2.2871,-2.4995,-2.718,-2.8334,-2.9135,-3.0474,-3.1147,-3.1809,-3.3642,-3.432,-3.4474,-3.4351,-3.3365,-3.1747,-2.9249,-2.6807,0.0,0.0,0.0,-2.0463,-2.047,-2.173,0.0,-2.8126,0.0,0.0,0.0,0.0,-3.7811,0.0,0.0,0.0,0.0,0.0,0.0,0.0,0.0,0.0,-4.0453,-4.1102,-4.1833,-4.2517,-4.2502,-4.2676,-4.3023,-4.3129,-4.3265,-4.3449,-4.3539,-4.3598,-4.3598,-4.3598,-4.3598,-4.3598,-4.3598,0.0,-4.3598,-4.3598,-4.3598,-4.3598,-4.3598,-4.3598,-4.3598,-4.3598,-4.3598,-4.3598,0.0,0.0,0.0,0.0,0.0,0.0,0.0,-0.723,-0.7528,-0.8096,-0.8217,-0.8018,-0.7384,-0.7061,0.0,0.0,0.0,0.0,0.0,0.0,0.0,0.0,0.0,0.0,0.0,0.0,0.0,0.0,0.0,0.0,0.0,0.0,0.0,0.0,0.0,0.0,0.0,0.0,0.0,0.0,0.0,0.0,0.0,0.0,0.0,0.0,0.0,0.0,0.0,0.0,-2.2336,-2.4748,-2.7534,-2.8873,-2.9648,-3.1023,-3.1643,-3.2198,-3.3552,-3.4227,-3.4412,-3.3998,-3.2696,-3.081,-2.8077,0.0,0.0,0.0,0.0,-1.946,-1.9206,0.0,0.0,0.0,0.0,0.0,0.0,0.0,0.0,0.0,0.0,0.0,0.0,0.0,0.0,0.0,0.0,0.0,-4.1126,-4.1727,-4.2309,-4.2759,-4.2775,-4.2821,-4.3007,-4.319,-4.3312,-4.3402,-4.3539,-4.3598,-4.3598,-4.3598,-4.3598,-4.3598,-4.3598,0.0,-4.3598,-4.3598,-4.3598,-4.3598,-4.3598,-4.3598,-4.3598,-4.3598,-4.3598,-4.3598,0.0,0.0,0.0,0.0,0.0,0.0,0.0,-0.7611,-0.7966,-0.8706,-0.9083,-0.8939,-0.7992,-0.7515,-0.7175,0.0,0.0,0.0,0.0,0.0,0.0,0.0,0.0,0.0,0.0,0.0,0.0,0.0,0.0,0.0,0.0,0.0,0.0,0.0,0.0,0.0,0.0,0.0,0.0,0.0,0.0,0.0,0.0,0.0,0.0,0.0,0.0,0.0,0.0,0.0,-2.1011,-2.2998,-2.6103,-2.7857,-2.8987,-3.0351,-3.132,-3.2151,-3.2967,-3.3706,-3.4104,-3.3367,-3.1793,-2.9692,-2.6989,-2.4406,0.0,0.0,0.0,-1.8618,-1.8168,0.0,0.0,0.0,0.0,0.0,0.0,0.0,0.0,0.0,0.0,0.0,0.0,0.0,0.0,0.0,0.0,0.0,-4.1824,-4.2326,-4.2665,-4.2837,-4.2837,-4.2883,-4.299,-4.3204,-4.3342,-4.3342,-4.3539,-4.3598,-4.3598,-4.3598,-4.3598,-4.3598,-4.3598,0.0,0.0,-4.3598,-4.3598,-4.3598,-4.3598,-4.3598,-4.3598,-4.3598,-4.3598,-4.3598,0.0,0.0,0.0,0.0,0.0,0.0,0.0,-0.7611,-0.8119,-0.9264,-0.8991,-0.8644,-0.8526,-0.8474,-0.8028,0.0,0.0,0.0,0.0,0.0,0.0,0.0,0.0,0.0,0.0,0.0,0.0,0.0,0.0,0.0,0.0,0.0,0.0,0.0,0.0,0.0,0.0,0.0,0.0,0.0,0.0,0.0,0.0,0.0,0.0,0.0,0.0,0.0,0.0,0.0,0.0,-2.0042,-2.2197,-2.4579,-2.6865,-2.8273,0.0,0.0,-3.2136,-3.2982,-3.3336,-3.2659,-3.0982,-2.8854,-2.6268,0.0,0.0,0.0,-1.8044,-1.7468,-1.7989,0.0,0.0,0.0,0.0,0.0,0.0,0.0,0.0,0.0,0.0,0.0,0.0,0.0,0.0,0.0,0.0,0.0,0.0,-4.257,-4.2602,-4.2634,-4.2634,-4.2634,-4.2665,-4.2959,-4.3143,-4.3143,-4.3462,-4.3598,-4.3598,-4.3598,-4.3598,-4.3598,-4.3598,0.0,0.0,-4.3598,-4.3598,-4.3598,-4.3598,-4.3598,-4.3598,-4.3598,-4.3598,-4.3598,0.0,0.0,0.0,0.0,0.0,0.0,-0.7543,-0.7667,-0.8132,-0.9341,-0.958,-0.9491,-0.9174,-0.9212,-0.8624,0.0,0.0,0.0,0.0,0.0,0.0,0.0,0.0,0.0,0.0,0.0,0.0,0.0,0.0,0.0,0.0,0.0,0.0,0.0,0.0,0.0,0.0,0.0,0.0,0.0,0.0,0.0,0.0,0.0,0.0,0.0,0.0,0.0,0.0,0.0,0.0,0.0,-1.9099,-2.0824,0.0,0.0,-2.7818,-2.8981,-3.0709,-3.169,-3.2121,-3.1844,-3.0128,-2.7984,-2.6053,0.0,0.0,-1.9122,-1.7947,-1.7306,-1.7986,-1.8343,-1.9202,0.0,-2.2037,0.0,0.0,0.0,0.0,0.0,0.0,0.0,0.0,0.0,0.0,0.0,0.0,0.0,0.0,-4.2602,-4.2602,-4.2602,-4.2602,-4.2602,-4.2602,-4.2929,-4.3113,-4.3096,-4.3432,-4.3598,-4.3598,-4.3598,-4.3598,-4.3598,-4.3598,0.0,0.0,-4.3598,-4.3598,-4.3598,-4.3598,-4.3598,-4.3598,-4.3598,-4.3598,-4.3598,0.0,0.0,0.0,0.0,0.0,-0.7074,-0.7614,-0.7696,-0.807,-0.9107,-0.9555,-0.9648,-0.9266,-0.9242,-0.8709,-0.7349,0.0,0.0,0.0,0.0,0.0,0.0,0.0,0.0,0.0,0.0,0.0,0.0,0.0,0.0,0.0,0.0,0.0,0.0,0.0,0.0,0.0,0.0,0.0,0.0,0.0,0.0,0.0,0.0,0.0,0.0,0.0,0.0,0.0,0.0,0.0,0.0,0.0,0.0,0.0,0.0,-2.5808,-2.7288,-2.911,-3.0238,-3.0866,-3.0742,-2.9098,-2.7118,0.0,0.0,-1.9943,-1.9145,-1.7988,-1.7241,-1.7727,-1.8148,-1.878,0.0,-2.0515,-2.2102,-2.5435,0.0,0.0,0.0,0.0,0.0,0.0,0.0,0.0,0.0,0.0,0.0,0.0,-4.1971,-4.2166,-4.2586,-4.2602,-4.2602,-4.2602,-4.2898,-4.3052,-4.3113,-4.3402,-4.3568,-4.3598,-4.3598,-4.3598,-4.3598,0.0,0.0,0.0,-4.3598,-4.3598,-4.3598,-4.3598,-4.3598,-4.3598,-4.3598,-4.3598,-4.3598,0.0,0.0,0.0,0.0,0.0,0.0,-0.7614,-0.7696,-0.7927,-0.8539,-0.8618,-0.8618,-0.8618,-0.837,-0.8153,-0.8005,0.0,0.0,0.0,0.0,0.0,0.0,0.0,0.0,0.0,0.0,0.0,-1.2002,-1.2003,0.0,0.0,0.0,0.0,0.0,0.0,0.0,0.0,0.0,0.0,0.0,0.0,0.0,0.0,0.0,0.0,0.0,0.0,0.0,0.0,0.0,0.0,0.0,0.0,0.0,0.0,0.0,-2.3413,-2.6012,-2.7353,-2.8685,-2.9621,-2.921,-2.787,-2.6186,0.0,-2.198,-1.976,-1.9289,-1.8084,-1.7095,-1.7111,-1.8246,-1.9186,-1.9216,-2.1,-2.3381,0.0,0.0,0.0,0.0,0.0,0.0,0.0,0.0,0.0,0.0,0.0,0.0,0.0,-4.0513,-4.116,-4.2554,-4.2602,-4.2602,-4.2602,-4.2806,-4.2976,-4.3113,-4.3312,-4.3462,-4.3598,-4.3598,-4.3598,0.0,0.0,0.0,0.0,-4.3598,-4.3598,-4.3598,-4.3598,-4.3598,-4.3598,-4.3598,-4.3598,-4.3598,0.0,0.0,0.0,0.0,0.0,0.0,0.0,-0.7153,-0.7354,-0.7914,-0.7992,-0.8148,-0.8552,-0.8404,-0.8245,-0.821,0.0,0.0,0.0,0.0,0.0,0.0,0.0,0.0,0.0,0.0,-1.0659,-1.2003,-1.1998,-1.2519,0.0,0.0,0.0,0.0,0.0,0.0,0.0,0.0,0.0,0.0,0.0,0.0,0.0,0.0,0.0,0.0,0.0,0.0,0.0,0.0,0.0,0.0,0.0,0.0,0.0,-1.7346,0.0,0.0,-2.4333,-2.5397,-2.6016,-2.5415,-2.4697,-2.3784,-2.2326,-2.067,-1.923,-1.8589,-1.7727,-1.7095,-1.7095,-1.7452,-1.8392,-2.0321,0.0,0.0,0.0,0.0,0.0,0.0,0.0,0.0,0.0,0.0,0.0,0.0,0.0,0.0,0.0,-4.0496,-4.0934,-4.1873,-4.1436,-4.1646,-4.2586,-4.2302,-4.2456,-4.3113,-4.3312,-4.3462,-4.3598,-4.3598,0.0,0.0,0.0,0.0,0.0,-4.3598,-4.3598,-4.3598,-4.3598,-4.3598,-4.3598,-4.3598,-4.3598,-4.3598,0.0,0.0,0.0,0.0,0.0,0.0,0.0,-0.6908,-0.7017,-0.7358,-0.7397,-0.7638,-0.831,-0.8136,-0.807,-0.8353,0.0,0.0,0.0,0.0,0.0,0.0,0.0,0.0,0.0,-1.0093,-1.0761,-1.2081,-1.2586,-1.3037,-1.3452,-1.3621,0.0,0.0,0.0,0.0,0.0,0.0,0.0,0.0,0.0,0.0,-1.183,0.0,0.0,0.0,0.0,0.0,0.0,0.0,0.0,0.0,0.0,0.0,0.0,0.0,-1.7245,-1.9603,0.0,-2.2948,-2.3484,-2.3172,-2.2667,-2.1977,-2.0975,-1.9716,-1.8651,-1.8184,-1.7565,-1.7095,-1.7095,-1.7533,-1.8473,-2.0224,0.0,0.0,0.0,0.0,0.0,0.0,0.0,0.0,0.0,0.0,0.0,0.0,0.0,0.0,0.0,0.0,-4.0043,-4.0785,-4.0594,-4.1047,-4.2213,-4.1884,-4.2167,-4.3037,-4.3204,-4.3372,-4.3539,-4.3598,0.0,0.0,0.0,0.0,0.0,-4.3598,-4.3598,-4.3598,-4.3598,-4.3598,-4.3598,-4.3598,-4.3598,-4.3598,0.0,0.0,0.0,0.0,0.0,0.0,0.0,-0.6908,-0.6908,-0.6908,-0.6916,-0.7181,-0.7865,-0.7632,-0.7696,-0.8395,0.0,0.0,0.0,0.0,0.0,0.0,0.0,0.0,-1.0021,-1.0218,-1.0928,-1.22,-1.3529,-1.3605,-1.2539,-1.5024,-1.487,-1.2493,0.0,0.0,0.0,0.0,0.0,0.0,0.0,-1.1789,0.0,0.0,0.0,0.0,0.0,0.0,0.0,0.0,0.0,0.0,0.0,0.0,0.0,0.0,0.0,0.0,0.0,-2.0973,-2.1693,-2.194,-2.1376,-2.0671,-2.0179,-1.9058,0.0,-1.8038,-1.7533,-1.7128,-1.7225,-1.8292,-1.9216,-1.9461,0.0,0.0,0.0,0.0,0.0,0.0,0.0,0.0,0.0,0.0,0.0,0.0,0.0,0.0,0.0,0.0,-3.8699,-3.9408,-4.0011,-4.0737,-4.1515,-4.1466,-4.1931,-4.2849,-4.2986,-4.3155,-4.3402,-4.3539,0.0,0.0,0.0,0.0,0.0,-4.3598,-4.3598,-4.3598,-4.3598,-4.3598,-4.3598,-4.3598,-4.3598,-4.3598,0.0,0.0,0.0,0.0,0.0,0.0,0.0,0.0,0.0,0.0,-0.6985,-0.7137,-0.7362,-0.754,-0.7716,0.0,0.0,0.0,0.0,0.0,0.0,0.0,0.0,0.0,-0.946,-1.0073,-1.0979,-1.22,-1.3529,-1.4547,-1.527,-1.5901,-1.587,-1.5178,-1.3278,-1.2339,0.0,0.0,0.0,0.0,-1.2123,-1.2092,0.0,0.0,0.0,0.0,-1.22,-1.22,0.0,0.0,0.0,0.0,0.0,0.0,0.0,0.0,-1.3922,-1.4428,-1.577,0.0,-1.8039,-1.809,-1.8448,-1.8631,0.0,-1.7986,0.0,0.0,0.0,0.0,0.0,0.0,0.0,0.0,0.0,0.0,0.0,0.0,0.0,0.0,0.0,0.0,0.0,0.0,0.0,0.0,0.0,0.0,0.0,0.0,-3.8472,-3.8651,-3.8812,-3.9493,-4.0739,-4.0355,-4.0877,-4.2297,-4.2416,-4.2845,-4.3568,-4.3598,0.0,0.0,0.0,0.0,-4.3235,-4.3492,-4.3539,-4.3462,-4.3568,-4.3598,-4.3598,-4.3598,-4.3598,-4.3598,0.0,0.0,0.0,0.0,0.0,0.0,0.0,0.0,0.0,0.0,0.0,0.0,0.0,0.0,0.0,0.0,0.0,0.0,0.0,0.0,0.0,0.0,0.0,-0.8602,-0.9285,-0.9913,-1.0958,-1.2473,-1.3022,-1.5235,-1.9007,-1.9007,-1.868,-1.7915,-1.3956,-1.22,0.0,0.0,0.0,0.0,0.0,0.0,0.0,0.0,0.0,0.0,-1.22,-1.22,0.0,-1.22,-1.22,-1.2216,0.0,0.0,0.0,0.0,-1.3235,-1.343,-1.4143,-1.5622,-1.694,-1.6937,-1.7517,-1.7989,-1.7646,0.0,0.0,0.0,0.0,0.0,0.0,0.0,0.0,0.0,0.0,0.0,0.0,0.0,0.0,0.0,0.0,0.0,0.0,0.0,0.0,0.0,0.0,0.0,0.0,0.0,-3.8391,-3.8391,-3.8448,-3.8983,-4.0011,-3.9742,-4.0203,-4.1366,-4.153,-4.1875,-4.2413,-4.2472,-4.2485,0.0,0.0,0.0,-4.227,-4.2904,-4.2834,-4.2459,-4.2927,-4.2927,-4.2694,-4.3355,-4.3402,-4.3204,0.0,0.0,0.0,0.0,0.0,0.0,0.0,0.0,0.0,0.0,0.0,0.0,0.0,0.0,0.0,0.0,0.0,0.0,0.0,0.0,0.0,0.0,0.0,-0.8681,-0.9149,-0.9726,-1.0732,-1.2199,-1.231,-1.5548,-2.162,-2.2076,-2.12,-1.9045,-1.4306,-1.22,0.0,0.0,0.0,0.0,0.0,0.0,0.0,0.0,0.0,0.0,0.0,0.0,0.0,-1.2154,-1.22,-1.2241,-1.2445,0.0,0.0,0.0,0.0,0.0,-1.3816,-1.5616,-1.7225,-1.7128,-1.7695,-1.8265,0.0,0.0,0.0,0.0,0.0,0.0,0.0,0.0,0.0,0.0,0.0,0.0,0.0,0.0,0.0,0.0,0.0,0.0,0.0,0.0,0.0,0.0,0.0,0.0,0.0,0.0,0.0,-3.8391,-3.8504,-3.8825,-3.9372,-3.9372,-3.9713,-4.0394,-4.0574,-4.0785,-4.1041,-4.1152,-4.1267,0.0,0.0,0.0,-4.108,-4.2054,-4.1869,-4.1138,-4.2062,-4.2045,-4.1656,-4.2974,-4.3082,-4.2679,0.0,0.0,0.0,0.0,0.0,0.0,0.0,0.0,0.0,0.0,0.0,0.0,0.0,0.0,0.0,0.0,0.0,0.0,0.0,0.0,0.0,-0.8241,-0.8311,-0.8396,-0.8533,-0.9558,-0.9895,-0.9507,-1.1987,-1.5033,-1.8544,-2.1096,-1.9504,-1.4387,-1.2872,-1.22,-1.22,0.0,0.0,0.0,0.0,0.0,0.0,0.0,0.0,0.0,0.0,0.0,0.0,-1.1984,-1.22,-1.2241,-1.2445,0.0,0.0,0.0,0.0,0.0,-1.4384,-1.6322,-1.7811,-1.7241,-1.8067,-1.9037,0.0,0.0,0.0,0.0,0.0,0.0,0.0,0.0,0.0,0.0,0.0,0.0,0.0,0.0,0.0,0.0,0.0,0.0,0.0,0.0,0.0,0.0,0.0,0.0,0.0,0.0,0.0,-3.8391,-3.842,-3.8541,-3.8739,-3.8846,-3.9233,-3.9821,-3.9981,-4.0434,-4.1152,-4.1181,-4.1226,0.0,0.0,-4.104,-4.0267,-4.1265,-4.1197,-4.0509,-4.1369,-4.1591,-4.1591,-4.2443,-4.2679,-4.2679,0.0,0.0,0.0,0.0,0.0,0.0,0.0,0.0,0.0,0.0,0.0,0.0,0.0,0.0,0.0,0.0,0.0,0.0,0.0,0.0,0.0,-0.8973,-0.8657,-0.8468,-0.851,-1.072,-1.0891,-0.8897,-1.1923,-1.574,-2.0234,-1.998,-1.842,-1.5667,-1.327,-1.2433,-1.2734,-1.1108,0.0,-1.1045,0.0,0.0,0.0,0.0,0.0,0.0,0.0,0.0,0.0,0.0,-1.1709,-1.181,-1.2386,0.0,0.0,0.0,0.0,0.0,-1.3585,-1.5609,-1.7565,-1.763,-1.9299,-2.0822,0.0,0.0,0.0,0.0,0.0,0.0,0.0,0.0,0.0,0.0,0.0,0.0,0.0,0.0,0.0,0.0,0.0,0.0,0.0,0.0,0.0,0.0,0.0,0.0,0.0,0.0,-3.8391,-3.8391,-3.8476,-3.8532,-3.8588,-3.8722,-3.8902,-3.9105,-3.9161,-3.9465,-3.99,-3.99,-3.9799,-3.9646,0.0,-3.9613,-3.8513,-3.9487,-3.9352,-3.8638,-3.9546,-3.9854,-4.0007,-4.1481,-4.2491,-4.3174,0.0,0.0,0.0,0.0,0.0,0.0,0.0,0.0,0.0,0.0,0.0,0.0,0.0,0.0,0.0,0.0,0.0,0.0,0.0,0.0,-0.876,-0.9369,-0.911,-0.8998,-0.9084,-1.1237,-1.1906,-1.0984,-1.4014,-1.7456,-2.1197,-1.8882,-1.7428,-1.6629,-1.3757,-1.2421,-1.2194,-0.988,-0.9333,-0.9987,0.0,0.0,0.0,0.0,0.0,0.0,0.0,0.0,0.0,0.0,0.0,0.0,0.0,0.0,0.0,-1.2757,-1.2811,-1.2866,-1.3206,-1.5167,-1.7306,-1.8148,0.0,0.0,0.0,0.0,0.0,0.0,0.0,0.0,0.0,0.0,0.0,0.0,0.0,0.0,0.0,0.0,0.0,0.0,0.0,0.0,0.0,0.0,0.0,0.0,0.0,0.0,0.0,0.0,-3.8363,-3.8177,-3.8448,-3.8532,-3.8415,-3.8528,-3.8611,-3.8644,-3.8488,-3.8516,-3.8623,-3.8467,-3.8282,-3.8112,-3.8689,-3.8174,-3.7007,-3.7874,-3.7737,-3.7054,-3.7919,-3.8409,-3.8856,-4.0422,-4.2013,-4.3372,0.0,0.0,0.0,0.0,0.0,0.0,0.0,0.0,0.0,0.0,0.0,0.0,0.0,0.0,0.0,0.0,0.0,0.0,0.0,0.0,-0.8569,-0.8756,-0.9547,-1.0166,-1.055,-0.9681,-1.1831,-1.7157,-2.0183,-2.0454,-1.8121,-1.7901,-1.6339,-1.3692,-1.3421,-1.1793,-0.9219,-0.8999,-0.9214,-0.9718,-0.9701,0.0,0.0,0.0,0.0,0.0,0.0,0.0,0.0,0.0,0.0,0.0,0.0,0.0,-1.262,-1.2757,-1.2811,-1.3093,-1.44,-1.5901,-1.7419,-1.8778,0.0,0.0,0.0,0.0,0.0,0.0,0.0,0.0,0.0,0.0,0.0,0.0,0.0,0.0,0.0,0.0,0.0,0.0,0.0,0.0,0.0,0.0,0.0,0.0,0.0,0.0,0.0,0.0,0.0,-3.7506,-3.8205,-3.8359,-3.7851,-3.7927,-3.823,-3.8777,-3.823,-3.803,-3.8144,-3.7517,-3.7294,-3.7458,-3.7535,-3.7119,-3.6491,-3.7199,-3.7119,-3.6611,-3.7214,-3.8273,-3.9444,-3.9591,-4.0907,-4.2679,0.0,0.0,0.0,0.0,0.0,0.0,0.0,0.0,0.0,0.0,0.0,0.0,0.0,0.0,0.0,0.0,0.0,0.0,0.0,-0.8744,-0.8978,-0.9484,-0.941,-1.0303,-1.2322,-1.1928,-1.3709,-1.78,-1.8932,-1.8915,-1.7766,-1.5917,-1.4471,-1.3328,-1.1432,-1.1008,-1.156,-0.9509,-0.9111,-0.9775,-0.9104,-0.8693,0.0,0.0,0.0,0.0,0.0,0.0,0.0,0.0,-1.0469,-1.1031,0.0,0.0,0.0,0.0,-1.2811,-1.2924,-1.3439,-1.5609,-1.7857,-1.8392,0.0,0.0,0.0,0.0,0.0,0.0,0.0,0.0,0.0,0.0,0.0,0.0,0.0,0.0,0.0,0.0,0.0,0.0,0.0,0.0,0.0,0.0,0.0,0.0,0.0,0.0,0.0,0.0,0.0,-3.6982,-3.7326,-3.7504,-3.7354,-3.7399,-3.7576,-3.794,-3.7576,-3.7429,-3.7458,-3.7221,-3.6981,-3.6784,-3.6784,-3.643,-3.5876,-3.6118,-3.6077,-3.5938,-3.6582,-3.741,-3.8357,-3.9188,-4.0527,-4.2048,0.0,0.0,0.0,0.0,0.0,0.0,0.0,0.0,0.0,0.0,0.0,0.0,0.0,0.0,0.0,0.0,0.0,0.0,-0.888,-0.8897,-0.9128,-0.9641,-0.9162,-0.9863,-1.1923,-1.1974,-1.3896,-1.78,-1.78,-1.731,-1.6373,-1.4336,-1.3396,-1.3278,-1.0253,-1.0232,-1.2348,-1.0128,-0.9387,-0.9624,-0.8684,-0.8223,0.0,0.0,0.0,0.0,0.0,0.0,0.0,0.0,-0.9807,-1.0446,0.0,0.0,0.0,0.0,-1.3109,-1.3456,-1.3456,-1.5723,-1.8213,0.0,0.0,0.0,0.0,0.0,0.0,0.0,0.0,0.0,0.0,0.0,0.0,0.0,0.0,0.0,0.0,0.0,0.0,0.0,0.0,0.0,0.0,0.0,0.0,0.0,0.0,0.0,0.0,0.0,0.0,0.0,-3.6753,-3.692,-3.6814,-3.6814,-3.6906,-3.7071,-3.6753,-3.6692,-3.686,-3.6692,-3.643,-3.6116,-3.6116,-3.5878,-3.5504,-3.5504,-3.5504,-3.5549,-3.5998,-3.6597,-3.7296,-3.8211,-3.9447,-4.075,0.0,0.0,0.0,0.0,0.0,0.0,0.0,0.0,0.0,0.0,0.0,0.0,0.0,0.0,0.0,0.0,0.0,0.0,-0.888,-0.8897,-0.8897,-0.8897,-0.8897,-0.8897,-0.8897,-0.8931,-1.1848,-1.7766,-1.7766,-1.6255,-1.3396,-1.3396,-1.3396,-1.3278,-1.032,-0.9547,-1.0511,-1.0645,-1.0163,-0.9245,-0.8587,-0.8223,-0.8094,0.0,0.0,0.0,0.0,0.0,0.0,0.0,-0.9545,-0.9854,0.0,0.0,0.0,0.0,-1.3796,-1.4907,-1.4907,-1.6471,0.0,0.0,0.0,0.0,0.0,0.0,0.0,0.0,0.0,0.0,0.0,0.0,0.0,0.0,0.0,0.0,0.0,0.0,0.0,0.0,0.0,0.0,0.0,0.0,0.0,0.0,0.0,0.0,0.0,0.0,0.0,0.0,-3.6585,-3.6814,-3.6196,-3.6196,-3.6258,-3.6368,-3.5797,-3.5829,-3.6368,-3.5765,-3.5504,-3.5504,-3.5504,-3.5504,-3.5504,-3.5504,-3.5504,-3.5504,-3.5504,-3.5908,-3.6477,-3.6492,-3.7319,-3.867,0.0,0.0,0.0,0.0,0.0,0.0,0.0,0.0,0.0,0.0,0.0,0.0,0.0,0.0,0.0,0.0,0.0,0.0,-0.8869,-0.8897,-0.8897,-0.8897,-0.8897,-0.8897,-0.8897,-1.0974,-1.2939,-1.4708,-1.4708,-1.4251,-1.3396,-1.3396,-1.3396,-1.3447,-1.4631,-1.3476,-1.0613,-1.0382,-0.9923,-0.9352,-0.8992,-0.8562,-0.8156,0.0,0.0,0.0,0.0,0.0,0.0,0.0,0.0,0.0,0.0,0.0,0.0,-1.2892,-1.4152,-1.5565,-1.5036,0.0,0.0,0.0,0.0,0.0,0.0,0.0,0.0,0.0,0.0,0.0,0.0,0.0,0.0,0.0,0.0,0.0,0.0,0.0,0.0,0.0,0.0,0.0,0.0,0.0,0.0,0.0,0.0,0.0,0.0,0.0,0.0,0.0,-3.5671,-3.5878,-3.5716,-3.5716,-3.5733,-3.5765,-3.5602,-3.5587,-3.5765,-3.5587,-3.5504,-3.5504,-3.5504,-3.5504,-3.5504,-3.5504,-3.5504,-3.5504,-3.5504,-3.5624,-3.5848,-3.6312,-3.7049,-3.7912,0.0,0.0,0.0,0.0,0.0,0.0,0.0,0.0,0.0,0.0,0.0,-0.8094,0.0,0.0,0.0,0.0,0.0,0.0,0.0,-0.8732,-0.8795,-0.8891,-0.8897,-0.8897,-0.8897,-1.067,-1.1601,-1.1601,-1.1601,-1.1601,-1.1628,-1.2513,-1.3122,-1.3547,-1.5278,-1.3972,-1.0415,-0.9639,-0.9444,-0.964,-0.9305,-0.8925,-0.8593,0.0,0.0,0.0,0.0,0.0,0.0,0.0,0.0,0.0,0.0,0.0,0.0,-1.3021,-1.4573,-1.6191,-1.6889,0.0,0.0,0.0,0.0,0.0,0.0,0.0,0.0,0.0,0.0,0.0,0.0,0.0,0.0,0.0,0.0,0.0,0.0,0.0,0.0,0.0,0.0,0.0,0.0,0.0,0.0,0.0,0.0,0.0,0.0,0.0,0.0,0.0,-3.5326,-3.5504,-3.5504,-3.5504,-3.5504,-3.5504,-3.5504,-3.5504,-3.5504,-3.5504,-3.5504,-3.5504,-3.5504,-3.5504,-3.5504,-3.5504,-3.5504,-3.5504,-3.5504,-3.5504,-3.5549,-3.5953,-3.6353,-3.6851,0.0,0.0,-0.6381,-0.6568,0.0,0.0,0.0,0.0,0.0,0.0,-0.8026,-0.8094,0.0,0.0,0.0,-0.8094,0.0,0.0,0.0,0.0,-0.8607,-0.8852,-0.8886,-0.8897,-0.8897,-0.8897,-0.8875,-0.8829,-0.8875,-0.8897,-0.8948,-1.1251,-1.2769,-1.3565,-1.3379,-1.217,-1.0204,-0.8719,-0.8803,-0.9882,-0.9468,-0.9226,-0.9133,-0.9324,0.0,0.0,0.0,0.0,0.0,0.0,0.0,0.0,0.0,0.0,0.0,-1.2924,-1.4892,-1.6783,0.0,0.0,0.0,0.0,0.0,0.0,0.0,0.0,0.0,0.0,0.0,0.0,0.0,0.0,0.0,0.0,0.0,0.0,0.0,0.0,0.0,0.0,0.0,0.0,0.0,0.0,0.0,0.0,0.0,0.0,0.0,0.0,0.0,0.0,-3.5392,-3.5504,-3.5504,-3.5504,-3.5504,0.0,-3.5504,-3.5504,-3.5504,-3.5504,-3.5504,-3.5504,-3.5504,-3.5504,-3.5504,-3.5504,-3.5504,-3.5504,-3.5504,-3.5504,-3.5504,-3.5504,-3.5504,-3.5677,0.0,0.0,-0.6645,-0.725,0.0,0.0,0.0,0.0,-0.7827,-0.8033,-0.8089,-0.8094,-0.8094,-0.8094,0.0,-0.8094,-0.8209,0.0,0.0,0.0,-0.8528,-0.8583,-0.8795,-0.8897,-0.8897,-0.8897,-0.8691,-0.8267,-0.8691,-0.8897,-0.8959,-1.1813,-1.3252,-1.3404,-1.2747,-1.2197,-1.1584,-0.9142,-0.8305,-0.8641,-0.9055,-0.8936,-0.856,-0.9119,-0.8924,0.0,0.0,0.0,0.0,0.0,0.0,0.0,-0.9361,-1.0355,-1.1367,-1.1982,-1.4442,0.0,0.0,0.0,0.0,0.0,0.0,0.0,0.0,0.0,0.0,0.0,0.0,0.0,0.0,0.0,0.0,0.0,0.0,0.0,0.0,0.0,0.0,0.0,0.0,0.0,0.0,0.0,0.0,0.0,0.0,0.0,0.0,0.0,0.0,-3.518,-3.5392,-3.5504,-3.5504,-3.5504,-3.5504,0.0,-3.5504,-3.5504,-3.5504,-3.5504,-3.5504,-3.5504,-3.5504,-3.5504,-3.5504,-3.5504,-3.5504,-3.5504,-3.5504,-3.5504,-3.5504,-3.5504,-3.5504,-3.5519,0.0,0.0,0.0,0.0,0.0,0.0,0.0,0.0,-0.7724,-0.8053,-0.8094,-0.8094,-0.8094,-0.8094,0.0,0.0,-0.8094,-0.8155,0.0,0.0,-0.8332,-0.8403,-0.8715,-0.8858,-0.8761,-0.8601,-0.8503,-0.8485,-0.8503,-0.8516,-0.8593,-1.1934,-1.3261,-1.282,-1.2399,-1.1538,-1.0322,-0.8835,-0.8411,-0.8759,-0.9174,-0.914,-0.889,-0.9434,-0.9149,-0.8448,-0.8448,0.0,0.0,0.0,0.0,0.0,0.0,0.0,-1.0889,-1.1926,-1.3886,-1.6249,0.0,0.0,0.0,0.0,0.0,0.0,0.0,0.0,0.0,0.0,0.0,0.0,0.0,0.0,0.0,0.0,0.0,0.0,0.0,0.0,0.0,0.0,0.0,0.0,0.0,0.0,0.0,0.0,0.0,0.0,0.0,-3.5162,-3.5359,-3.5326,-3.5439,-3.5504,-3.5504,-3.5504,-3.5504,-3.5504,-3.5504,-3.5504,-3.5504,-3.5504,-3.5504,-3.5504,-3.5504,-3.5504,-3.5504,-3.5504,-3.5504,-3.5504,-3.5504,-3.5504,-3.5504,-3.5504,-3.5504,-3.5504,0.0,0.0,0.0,0.0,0.0,0.0,0.0,0.0,0.0,-0.8046,-0.8094,-0.8094,-0.8094,-0.8094,-0.8094,0.0,0.0,0.0,-0.8415,0.0,0.0,-0.8325,-0.865,-0.8749,-0.8585,-0.8267,-0.8332,-0.8829,-0.8393,-0.8178,0.0,-1.1801,-1.3264,-1.2862,-1.2484,-1.0898,-0.8495,-0.8543,-0.879,-0.9171,-0.9265,-0.9279,-0.9274,-0.9606,-0.9223,-0.8502,-0.8502,-0.8502,-0.8518,-0.8653,0.0,0.0,0.0,0.0,-0.9951,-1.174,-1.3044,-1.4739,0.0,0.0,0.0,0.0,0.0,0.0,0.0,0.0,0.0,0.0,0.0,0.0,0.0,0.0,0.0,0.0,0.0,0.0,0.0,0.0,0.0,0.0,0.0,0.0,0.0,0.0,0.0,0.0,0.0,0.0,-3.4563,-3.4878,-3.5115,-3.5325,-3.5444,-3.5504,-3.5504,-3.5504,-3.5504,-3.5504,-3.5504,-3.5504,-3.5504,-3.5504,-3.5504,-3.5504,-3.5504,-3.5504,-3.5504,-3.5504,-3.5504,-3.5504,-3.5504,-3.5504,-3.5504,-3.5504,-3.5504,-3.5504,0.0,0.0,0.0,0.0,0.0,0.0,0.0,0.0,0.0,0.0,-0.8094,-0.8094,-0.8094,-0.8094,-0.8094,-0.8094,-0.8094,-0.8108,0.0,0.0,0.0,-0.8466,-0.8522,-0.854,-0.8516,-0.8249,-0.8243,-0.8548,-0.8489,0.0,0.0,0.0,0.0,-1.5575,-1.36,-1.1155,-0.8544,-0.9279,-0.9215,-0.8599,-0.8566,-0.8579,-0.8634,-0.8679,-0.8621,-0.8502,-0.8502,-0.8502,-0.8599,-0.9241,-0.9523,0.0,0.0,0.0,0.0,0.0,0.0,0.0,0.0,0.0,0.0,0.0,0.0,0.0,0.0,0.0,0.0,0.0,0.0,0.0,0.0,0.0,0.0,0.0,0.0,0.0,0.0,0.0,0.0,0.0,0.0,0.0,0.0,0.0,0.0,0.0,0.0,0.0,-3.3269,-3.3945,-3.4433,-3.4622,-3.519,-3.5504,-3.5504,-3.5504,-3.5504,-3.5504,-3.5504,-3.5504,-3.5504,-3.5504,-3.5504,-3.5504,-3.5504,-3.5504,-3.5504,-3.5504,-3.5504,-3.5504,-3.5504,-3.5504,-3.5504,-3.5504,-3.5504,-3.5504,0.0,0.0,0.0,0.0,0.0,0.0,0.0,0.0,0.0,0.0,0.0,-0.8094,-0.8094,-0.8094,-0.8094,-0.8094,-0.8094,0.0,0.0,0.0,0.0,-0.8267,-0.8267,-0.8267,-0.8267,-0.8302,-0.8377,-0.8502,0.0,0.0,0.0,-1.4724,-1.8097,0.0,0.0,0.0,-1.1625,0.0,-0.9599,-0.908,-0.8644,-0.8483,-0.8502,-0.8502,-0.8502,-0.8502,-0.8502,-0.8502,-0.8615,-0.9345,-0.987,-1.0136,0.0,0.0,0.0,0.0,0.0,0.0,0.0,0.0,0.0,0.0,0.0,0.0,0.0,0.0,0.0,0.0,0.0,0.0,0.0,0.0,0.0,0.0,0.0,0.0,0.0,0.0,0.0,0.0,0.0,0.0,0.0,0.0,0.0,0.0,0.0,-3.3004,-3.3004,-3.3332,-3.3637,-3.3918,-3.4218,-3.4562,-3.4921,-3.4936,-3.513,-3.5504,-3.5504,-3.5504,-3.5504,-3.5504,-3.5504,-3.5504,-3.5504,-3.5504,-3.5504,-3.5504,-3.5504,-3.5504,-3.5504,-3.5504,-3.5504,-3.5504,-3.5504,-3.5504,0.0,0.0,0.0,0.0,0.0,0.0,0.0,0.0,0.0,0.0,0.0,-0.8094,-0.8094,0.0,0.0,0.0,-0.8135,0.0,0.0,0.0,0.0,0.0,0.0,-0.8128,-0.8128,-0.837,-0.8502,-0.8502,0.0,0.0,-1.0825,-1.6931,-2.0192,0.0,-1.6241,-1.4087,0.0,0.0,0.0,-1.0048,-0.8944,-0.8502,-0.8502,-0.8502,-0.8502,-0.855,-0.8928,0.0,0.0,0.0,0.0,0.0,0.0,0.0,0.0,0.0,0.0,0.0,0.0,0.0,0.0,0.0,0.0,0.0,0.0,0.0,0.0,0.0,0.0,0.0,0.0,0.0,0.0,0.0,0.0,0.0,0.0,0.0,0.0,0.0,0.0,0.0,0.0,0.0,0.0,0.0,0.0,-3.2533,-3.2517,-3.271,-3.2954,-3.3199,-3.3379,-3.3724,-3.4249,-3.4414,-3.4741,-3.525,-3.5429,-3.5504,-3.5504,-3.5504,-3.5504,-3.5504,-3.5504,-3.5504,-3.5504,-3.5504,-3.5504,-3.5504,-3.5504,-3.5504,-3.5504,-3.5504,-3.5504,-3.5504,0.0,0.0,0.0,0.0,0.0,0.0,0.0,0.0,0.0,0.0,0.0,-0.8094,-0.8094,-0.8325,-0.8483,-0.8483,-0.8252,0.0,0.0,0.0,0.0,0.0,0.0,0.0,-0.8191,-0.8403,-0.8502,0.0,0.0,0.0,-1.6633,-1.5926,-1.7181,-1.9931,-1.8734,-1.6224,-1.285,0.0,0.0,-1.1407,-0.9338,-0.8502,-0.8502,-0.8502,-0.8502,-0.8686,0.0,0.0,0.0,0.0,0.0,0.0,0.0,0.0,0.0,0.0,0.0,0.0,0.0,0.0,0.0,0.0,0.0,0.0,0.0,0.0,0.0,0.0,0.0,0.0,0.0,0.0,0.0,0.0,0.0,0.0,0.0,0.0,0.0,0.0,0.0,0.0,0.0,0.0,0.0,0.0,0.0,-3.1338,-3.122,-3.193,-3.2347,-3.2362,-3.3079,-3.3514,-3.3544,-3.4158,-3.4533,-3.4563,-3.519,-3.5504,-3.5504,-3.5504,-3.5504,-3.5504,-3.5504,-3.5504,-3.5504,-3.5504,-3.5504,-3.5504,-3.5504,-3.5504,-3.5504,-3.5504,-3.5504,-3.5504,0.0,0.0,0.0,0.0,0.0,0.0,0.0,0.0,0.0,0.0,0.0,0.0,0.0,-0.8451,-0.8502,-0.8502,-0.8258,0.0,0.0,0.0,0.0,0.0,0.0,0.0,0.0,-0.8269,0.0,0.0,0.0,-0.9463,-1.1372,-1.3577,-1.4472,-1.4282,-1.503,-1.5574,-1.579,-1.3193,0.0,-1.2298,-0.958,-0.986,-1.2151,-1.4428,-1.5298,-1.5372,0.0,0.0,0.0,0.0,0.0,0.0,0.0,-1.0937,-1.0416,-0.9,0.0,0.0,0.0,0.0,0.0,0.0,0.0,0.0,0.0,0.0,0.0,0.0,0.0,0.0,0.0,0.0,0.0,0.0,0.0,0.0,0.0,0.0,0.0,0.0,0.0,0.0,0.0,0.0,0.0,0.0,0.0,0.0,-3.1234,-3.1412,-3.1605,-3.1781,-3.2064,-3.2407,-3.2856,-3.3514,-3.4053,-3.4503,-3.4726,-3.507,-3.5504,-3.5504,-3.5504,-3.5504,-3.5504,-3.5504,-3.5504,-3.5504,-3.5504,-3.5504,-3.5504,-3.5504,-3.5504,-3.5504,-3.5504,-3.5504,0.0,0.0,0.0,-0.7399,0.0,-0.7399,-0.7399,-0.7545,-0.7605,-0.7422,0.0,0.0,0.0,0.0,-0.8325,-0.8203,-0.8135,-0.8059,-0.7968,-0.7984,0.0,0.0,0.0,0.0,0.0,0.0,0.0,0.0,0.0,0.0,0.0,-1.1643,-1.2506,-1.1905,-1.2432,-1.4323,0.0,0.0,0.0,-1.3613,0.0,0.0,-1.4199,0.0,-1.9101,0.0,0.0,0.0,0.0,0.0,0.0,0.0,0.0,-1.1122,-0.9988,-0.8794,0.0,0.0,0.0,0.0,0.0,0.0,0.0,0.0,0.0,0.0,0.0,0.0,0.0,0.0,0.0,0.0,0.0,0.0,0.0,0.0,0.0,0.0,0.0,0.0,0.0,0.0,0.0,0.0,0.0,0.0,0.0,0.0,-3.1307,-3.1278,-3.1307,-3.1511,-3.1511,-3.1705,-3.2153,-3.2841,-3.338,-3.3829,-3.4038,-3.4382,-3.4846,-3.5055,-3.516,-3.5175,-3.54,-3.5504,-3.5504,-3.5504,-3.5504,-3.5504,-3.5504,-3.5504,-3.5504,-3.5504,-3.5504,-3.5504,-0.7399,-0.7399,-0.7399,-0.7399,-0.7399,-0.7399,-0.7399,-0.7399,-0.7399,-0.7399,0.0,0.0,0.0,0.0,0.0,-0.762,-0.7898,-0.8032,-0.7897,-0.7949,0.0,0.0,0.0,0.0,0.0,0.0,0.0,0.0,0.0,0.0,0.0,0.0,-1.1292,-1.324,-1.1556,-1.2702,-1.5854,0.0,-1.5185,-1.5339,0.0,-1.2712,-1.4231,0.0,0.0,0.0,-1.913,-1.9116,0.0,0.0,0.0,0.0,0.0,-1.1385,-0.9224,-0.8566,-0.8861,0.0,0.0,0.0,0.0,0.0,0.0,0.0,0.0,0.0,0.0,0.0,0.0,0.0,0.0,0.0,0.0,0.0,0.0,0.0,0.0,0.0,0.0,0.0,0.0,0.0,0.0,0.0,0.0,0.0,0.0,-3.1378,-3.1247,-3.1408,-3.1481,-3.1511,-3.1511,-3.1511,-3.1511,-3.2138,-3.2497,-3.2497,-3.3155,-3.3469,-3.3514,-3.4189,-3.4488,-3.4548,-3.519,-3.5489,-3.5504,-3.5504,-3.5504,-3.5504,-3.5504,-3.5504,-3.5504,-3.5504,-3.5504,-3.5504,-0.7399,-0.7399,-0.7399,-0.7399,-0.7399,-0.7399,-0.7399,-0.7476,-0.7507,0.0,0.0,0.0,-0.7724,-0.7731,-0.7695,-0.7612,-0.768,-0.7724,-0.7679,-0.779,-0.782,-0.7746,-0.7856,-0.7935,-0.7964,0.0,0.0,0.0,0.0,-0.8213,-0.872,-0.923,-1.0005,0.0,-1.0844,-1.1769,-1.332,-1.2069,0.0,0.0,-1.3691,-1.4019,0.0,0.0,0.0,0.0,0.0,-1.9696,0.0,0.0,-1.7604,-1.6458,0.0,0.0,-1.0559,-1.0321,-1.0724,-1.1055,-1.0194,0.0,0.0,0.0,0.0,0.0,0.0,0.0,0.0,0.0,0.0,0.0,0.0,0.0,0.0,0.0,0.0,0.0,0.0,0.0,0.0,0.0,0.0,0.0,0.0,0.0,0.0,0.0,-2.9839,-2.9909,-2.9937,-3.0453,-3.0987,-3.1481,-3.1511,-3.1511,-3.1511,-3.169,-3.2019,-3.2512,-3.2706,-3.3036,-3.3499,-3.3679,-3.4054,-3.4518,-3.4713,-3.504,-3.5504,-3.5504,-3.5504,-3.5504,-3.5504,-3.5504,-3.5504,-3.5504,-3.5504,-3.5504,-0.7399,-0.7399,-0.7399,-0.7399,-0.7399,-0.7399,-0.7399,-0.7461,-0.7484,0.0,0.0,0.0,-0.7507,-0.756,-0.7605,-0.7605,-0.7605,-0.7597,-0.7596,-0.7679,-0.7672,-0.7611,-0.7716,-0.7768,-0.7768,-0.7768,-0.7812,0.0,0.0,-0.7768,-0.779,-0.8297,-0.8696,-0.9007,-0.9321,-1.0007,-1.0868,-0.9632,0.0,0.0,-1.4894,0.0,0.0,-1.8129,-2.001,0.0,0.0,0.0,-2.162,-2.0553,-1.9159,0.0,0.0,-1.3522,-1.2468,-1.1581,-1.2009,0.0,-1.1751,0.0,0.0,0.0,0.0,0.0,0.0,0.0,0.0,0.0,0.0,0.0,0.0,0.0,0.0,0.0,0.0,0.0,0.0,0.0,0.0,0.0,0.0,0.0,0.0,0.0,0.0,-2.9195,-2.9277,-2.9374,-2.9483,-2.9896,-3.0417,-3.1062,-3.1077,-3.1212,-3.1511,-3.1511,-3.1705,-3.2079,-3.2079,-3.2273,-3.2691,-3.2961,-3.3305,-3.3694,-3.4279,-3.4728,-3.51,-3.5385,-3.5504,-3.5504,-3.5504,-3.5504,-3.5504,-3.5504,-3.5504,-3.5504,0.0,-0.7399,-0.7399,-0.7399,-0.7399,-0.7498,-0.7766,-0.7832,-0.7742,0.0,-0.7522,-0.7768,-0.8234,-0.7874,-0.7662,-0.7815,-0.7684,-0.7633,-0.7713,-0.7633,-0.7605,-0.7605,-0.7605,-0.7605,-0.7605,-0.7605,-0.7605,0.0,-0.7605,-0.7605,-0.7605,-0.7605,-0.7605,-0.7605,-0.7605,-0.8025,-0.8723,-0.8243,0.0,-1.3316,-1.5785,-1.6445,0.0,0.0,-1.9522,0.0,-2.2098,-2.2888,-2.2772,-2.1989,-2.0332,0.0,0.0,-1.5062,-1.4725,-1.2873,-1.3172,0.0,-1.4036,-1.4513,0.0,0.0,0.0,0.0,-1.6876,-1.6144,0.0,0.0,0.0,0.0,0.0,0.0,0.0,0.0,0.0,0.0,0.0,0.0,0.0,0.0,0.0,0.0,0.0,-2.8419,-2.8748,-2.9,-2.9097,-2.925,-2.9475,-2.9502,-2.9759,-3.0372,-3.0402,-3.0731,-3.1376,-3.1391,-3.1436,-3.1511,-3.1511,-3.1511,-3.1525,-3.2108,-3.2437,-3.2557,-3.3829,-3.4444,-3.4563,-3.522,-3.5504,-3.5504,-3.5504,-3.5504,-3.5504,-3.5504,-3.5504,-3.5504,-0.7399,-0.7399,-0.7399,-0.7399,-0.7399,-0.8067,-1.007,-1.0563,-0.9942,-0.7834,-0.7589,-0.9166,-1.3301,-1.0062,-0.804,-0.911,-0.8214,-0.7837,-0.8369,-0.7895,-0.7605,-0.7605,-0.7605,-0.7605,-0.7605,-0.7605,-0.7605,-0.7605,0.0,0.0,0.0,0.0,0.0,-0.7605,-0.7605,-0.7699,-0.7974,-0.9923,0.0,-1.1982,-1.3522,0.0,-2.0059,-2.1576,-2.2149,-2.2207,-2.2714,-2.2888,-2.2786,0.0,-2.0965,-1.9594,0.0,0.0,0.0,0.0,0.0,-1.5965,-1.553,-1.5859,-1.6144,-1.5352,0.0,0.0,0.0,-1.586,0.0,0.0,0.0,0.0,0.0,0.0,0.0,0.0,0.0,0.0,0.0,0.0,0.0,0.0,0.0,0.0,0.0,-2.6946,-2.7168,-2.743,-2.7565,-2.7984,-2.8757,-2.8801,-2.9086,-2.9744,-2.9786,-3.0058,-3.0702,-3.0717,-3.0957,-3.1511,-3.1511,-3.1511,-3.1511,-3.1645,-3.1989,-3.2527,-3.335,-3.3978,-3.4563,-3.522,-3.5504,-3.5504,-3.5504,-3.5504,-3.5504,-3.5504,-3.5504,-3.5504,-0.7399,-0.7399,-0.7399,-0.7399,-0.8419,-0.9662,-1.0914,-1.133,-1.1038,-0.971,-1.0658,-1.2427,-1.5022,-1.2992,-1.0662,-0.8767,-0.9188,-0.913,-0.8172,-0.8099,-0.7946,-0.7619,-0.7605,-0.7605,-0.7605,-0.7605,-0.7605,-0.7605,0.0,0.0,0.0,-0.7605,0.0,0.0,-0.8232,-0.8149,-0.8338,0.0,-1.1067,-1.2607,-1.431,0.0,-2.1133,-2.2417,-2.2888,-2.2888,-2.2888,-2.2888,-2.2728,-2.1598,-2.0971,0.0,0.0,-1.9046,-1.8682,0.0,-1.7774,-1.7926,0.0,0.0,-1.7624,-1.7311,0.0,0.0,0.0,0.0,0.0,0.0,0.0,0.0,0.0,0.0,0.0,0.0,0.0,0.0,0.0,0.0,0.0,0.0,0.0,0.0,0.0,-2.5747,-2.6125,-2.6665,-2.6771,-2.7179,-2.8053,-2.8109,-2.8423,-2.9071,-2.9086,-2.94,-3.0043,-3.0357,-3.0672,-3.1002,-3.1346,-3.1511,-3.1511,-3.1511,-3.169,-3.2034,-3.2721,-3.3185,-3.3574,-3.4577,-3.4996,-3.5026,-3.537,-3.5504,-3.5504,-3.5504,-3.5504,-3.5504,-0.7213,-0.7306,-0.7399,-0.7399,-0.9461,-1.112,-1.1167,-1.1365,-1.1678,-1.2172,-1.4021,-1.5298,-1.5298,-1.5298,-1.3427,-0.8764,-1.0286,-1.0585,-0.8405,-0.8309,-0.8165,-0.7772,-0.7616,-0.7552,-0.7605,-0.7605,-0.7605,-0.7605,0.0,0.0,0.0,-0.7605,-0.8222,-0.9362,0.0,0.0,0.0,0.0,0.0,-1.3918,0.0,-1.7885,-2.0335,-2.2026,-2.2757,-2.2888,-2.2888,-2.2888,-2.2671,-2.1199,0.0,-2.1146,-1.9807,-1.9913,0.0,0.0,0.0,0.0,0.0,0.0,0.0,0.0,0.0,-1.8476,0.0,0.0,0.0,-1.8238,0.0,0.0,0.0,0.0,0.0,0.0,0.0,0.0,0.0,0.0,0.0,0.0,0.0,0.0,0.0,-2.4674,-2.5239,-2.6169,-2.5976,-2.6286,-2.736,-2.7405,-2.772,-2.8382,-2.8412,-2.8727,-2.9412,-3.0013,-3.0387,-3.0507,-3.1182,-3.1511,-3.1511,-3.1511,-3.1511,-3.154,-3.2198,-3.2512,-3.2572,-3.3799,-3.4399,-3.4578,-3.5235,-3.5504,-3.5504,-3.5504,-3.5504,-3.5504,-0.6553,-0.6955,-0.7399,-0.7399,-0.9461,-1.1192,-1.1421,-1.1478,-1.2306,-1.4573,-1.5109,-1.5298,-1.5298,0.0,0.0,0.0,0.0,0.0,-1.0644,0.0,-0.7704,-0.8286,-0.7687,-0.7415,-0.7605,-0.7605,-0.7605,-0.7605,-0.7605,0.0,0.0,-0.7605,-0.8061,-0.8942,-1.0412,0.0,0.0,0.0,-1.2918,0.0,-1.5341,-1.6111,0.0,-2.0631,-2.2294,-2.2888,-2.2888,-2.2888,-2.2786,0.0,-2.1894,-2.1754,0.0,-2.0502,0.0,0.0,0.0,0.0,0.0,0.0,0.0,0.0,-2.0468,0.0,0.0,0.0,-1.8972,-1.8012,0.0,0.0,0.0,0.0,0.0,0.0,0.0,0.0,0.0,0.0,0.0,0.0,0.0,0.0,0.0,0.0,-2.4171,-2.5583,-2.4469,-2.4602,-2.6602,-2.6692,-2.7031,-2.769,-2.7705,-2.8049,-2.8712,-2.9355,-2.9968,-3.0507,-3.1182,-3.1511,-3.1511,-3.1511,-3.1511,-3.154,-3.2198,-3.2512,-3.2572,-3.3305,-3.3948,-3.4578,-3.5235,-3.5504,-3.5504,-3.5504,-3.5504,-3.5504,-0.6914,-0.7181,-0.7399,-0.7399,-0.8264,-0.9536,-1.1249,-1.1489,-1.1882,-1.296,-1.4384,-1.5487,0.0,0.0,0.0,0.0,0.0,-1.3742,0.0,0.0,-0.9076,-0.9046,-0.8776,-0.8313,-0.7619,-0.7605,-0.7407,-0.7018,-0.7018,0.0,0.0,0.0,-0.8488,-1.0724,-1.0868,0.0,-1.2825,0.0,0.0,0.0,0.0,0.0,0.0,-1.9308,-2.0611,-2.2025,-2.2025,-2.2025,-2.1941,0.0,-2.107,0.0,0.0,0.0,0.0,0.0,0.0,0.0,0.0,0.0,0.0,0.0,0.0,0.0,0.0,0.0,-1.9076,0.0,0.0,0.0,0.0,0.0,0.0,0.0,0.0,0.0,0.0,0.0,0.0,0.0,0.0,0.0,0.0,0.0,0.0,0.0,0.0,-2.3555,-2.529,-2.6144,-2.6746,-2.7016,-2.7405,-2.7735,-2.8034,-2.8667,-2.934,-2.9983,-3.0627,-3.1122,-3.1511,-3.1511,-3.1511,-3.1525,-3.1795,-3.1914,-3.1974,-3.2647,-3.3155,-3.3604,-3.4427,-3.5055,-3.5504,-3.5504,-3.5504,-3.5504,-0.6996,0.0,0.0,-0.7101,-0.7274,-0.8331,-1.1075,-1.1489,-1.1998,-1.3396,0.0,0.0,-1.71,-1.6795,0.0,0.0,0.0,-1.5624,0.0,0.0,-1.0703,-0.9661,-0.9659,0.0,0.0,-0.7632,-0.7083,-0.6599,-0.6599,-0.7153,0.0,0.0,-0.8549,-1.1196,0.0,-1.1933,-1.3487,0.0,0.0,-1.3617,-1.3857,-1.631,-1.9687,-1.8807,-1.9702,-2.1417,-2.1503,-2.1551,-2.1459,-2.088,-2.0575,0.0,-2.0667,0.0,0.0,0.0,0.0,0.0,-2.1109,0.0,0.0,0.0,0.0,0.0,0.0,0.0,0.0,0.0,0.0,0.0,0.0,0.0,0.0,0.0,0.0,0.0,0.0,0.0,0.0,0.0,0.0,0.0,0.0,0.0,0.0,0.0,0.0,0.0,-2.4149,-2.5412,-2.6213,-2.6572,-2.7255,-2.76,-2.76,-2.8248,-2.8846,-2.9352,-3.0118,-3.0761,-3.1227,-3.1421,-3.1511,-3.1511,-3.1511,-3.1511,-3.154,-3.2019,-3.2407,-3.2796,-3.3514,-3.4367,-3.5175,-3.5415,-3.5504,-3.5504,-0.6331,-0.6331,0.0,0.0,0.0,-0.8331,-1.1075,-1.1489,-1.3265,-1.8201,0.0,0.0,0.0,0.0,0.0,0.0,0.0,-1.5976,-1.6357,0.0,-1.2153,0.0,0.0,-0.9868,0.0,0.0,-0.6625,-0.6599,-0.6599,-0.7708,0.0,0.0,0.0,0.0,0.0,-1.2019,-1.2048,-1.3206,-1.5678,-1.8679,-1.6509,-1.7295,-1.9775,0.0,-2.0265,-2.1441,-2.1769,0.0,0.0,-2.1476,-2.1135,0.0,0.0,0.0,0.0,0.0,0.0,0.0,0.0,0.0,0.0,-2.1824,0.0,0.0,0.0,0.0,-2.0468,0.0,0.0,0.0,0.0,0.0,-1.8463,-1.7818,0.0,0.0,0.0,0.0,0.0,0.0,0.0,0.0,0.0,0.0,0.0,0.0,0.0,0.0,-2.346,-2.4291,-2.5247,-2.6557,-2.7255,-2.76,-2.76,-2.8248,-2.8607,-2.8652,-2.9909,-3.0507,-3.0552,-3.1197,-3.1511,-3.1511,-3.1511,-3.1511,-3.1511,-3.1525,-3.1914,-3.2512,-3.2766,-3.3409,-3.4337,-3.519,-3.5504,-3.5504,0.0,0.0,0.0,0.0,0.0,-0.8424,-1.1085,-1.2129,-1.3229,0.0,0.0,0.0,0.0,0.0,-1.8694,0.0,0.0,-1.6328,-1.65,-1.5798,0.0,0.0,0.0,-1.2071,0.0,0.0,-0.8062,-0.6599,-0.6599,0.0,0.0,0.0,0.0,0.0,0.0,-1.1314,0.0,0.0,0.0,0.0,0.0,-1.8964,-1.9786,0.0,0.0,-2.0371,-2.0472,-2.0497,0.0,-2.0396,-2.027,-2.0117,-1.9776,-1.979,-2.004,-2.0583,-2.073,0.0,0.0,0.0,-2.2237,-2.2239,0.0,0.0,0.0,0.0,0.0,0.0,0.0,0.0,0.0,0.0,-1.8627,-1.8386,-1.7624,0.0,0.0,0.0,0.0,0.0,0.0,0.0,0.0,0.0,0.0,0.0,0.0,0.0,0.0,-2.3074,-2.4358,-2.5247,-2.6363,-2.7151,-2.76,-2.7824,-2.8169,-2.8607,-2.949,-3.0103,-3.0522,-3.1182,-3.1511,-3.1511,-3.1511,-3.1511,-3.1511,-3.1511,-3.163,-3.1899,-3.2557,-3.3723,-3.51,-3.54,-3.5504,-3.5504,-0.7485,0.0,0.0,0.0,0.0,0.0,0.0,0.0,0.0,0.0,-1.6129,0.0,-1.7643,0.0,-1.9798,0.0,-1.8505,-1.7666,-1.7666,-1.7574,0.0,-1.643,-1.4757,0.0,0.0,0.0,-1.0784,-0.8953,0.0,-0.8162,0.0,0.0,0.0,0.0,0.0,0.0,0.0,0.0,-1.7149,0.0,0.0,-1.9798,0.0,0.0,-1.9798,-1.9798,0.0,-1.9798,-1.9798,-1.9798,-1.9798,-1.9798,-1.9798,-1.9749,-1.9824,-2.0576,-2.0651,-2.0629,-2.1335,-2.1845,0.0,-2.2155,-2.1909,0.0,-2.0801,0.0,0.0,0.0,0.0,0.0,0.0,0.0,-1.8685,-1.8651,-1.7547,-1.6174,0.0,0.0,0.0,0.0,0.0,0.0,0.0,0.0,-1.6377,-1.7785,0.0,0.0,0.0,0.0,-2.3684,-2.4575,-2.5899,-2.6926,-2.7585,-2.76,-2.7824,-2.8248,-2.9172,-2.9789,-3.0208,-3.1092,-3.1511,-3.1511,-3.1511,-3.1511,-3.1511,-3.1511,-3.1511,-3.1585,-3.2467,-3.3603,-3.4846,-3.5325,-3.5504,-3.5504,0.0,0.0,0.0,0.0,-0.9091,0.0,0.0,0.0,-1.6538,0.0,-1.8032,-1.9225,-1.9747,-1.9798,-1.9798,-1.9798,-1.9798,0.0,-1.9798,-1.9465,0.0,0.0,-1.6786,-1.5477,-1.6154,0.0,0.0,0.0,0.0,0.0,0.0,0.0,0.0,0.0,-1.0383,0.0,-1.2379,-1.5982,-1.8392,-1.9761,-1.9798,-1.9798,-1.9798,-1.9798,-1.9798,-1.9798,-1.9798,-1.9798,-1.9798,-1.9798,-1.9798,-1.9798,-1.9798,-1.9798,-1.9901,-2.0409,-2.0585,-2.0734,-2.1369,-2.1894,-2.2126,-2.1636,0.0,0.0,0.0,0.0,-2.1346,0.0,0.0,0.0,0.0,0.0,0.0,-1.8577,-1.7543,-1.6099,0.0,0.0,0.0,0.0,0.0,0.0,0.0,0.0,-1.564,-1.8257,-1.7396,0.0,0.0,0.0,-2.3191,-2.4515,-2.5854,-2.6896,-2.7585,-2.76,-2.76,-2.7615,-2.8933,-2.9577,-2.9651,-3.0868,-3.1466,-3.1511,-3.1511,-3.1511,-3.1511,-3.1511,-3.1511,-3.1585,-3.2452,-3.308,-3.3709,-3.5026,-3.5504,-3.5504,-0.9402,-0.9723,-1.0298,0.0,-1.2083,-1.3221,0.0,0.0,0.0,0.0,-1.9077,-1.9643,-1.9773,-1.9798,-1.9798,-1.9798,-1.9798,0.0,0.0,0.0,0.0,-1.9151,-1.7836,-1.6713,-1.5915,-1.5045,0.0,-1.4469,0.0,0.0,-0.9893,0.0,0.0,0.0,0.0,0.0,-1.3065,-1.5266,-1.7363,-1.9233,-1.9648,-1.9798,0.0,0.0,-1.9798,-1.9798,-1.9798,-1.9798,-1.9798,-1.9798,-1.9798,-1.9798,-1.9798,-1.9798,-1.9824,-1.9952,-2.0283,-2.0635,-2.0795,-2.1248,-2.1615,-2.1582,-2.1589,-2.1548,0.0,0.0,0.0,0.0,0.0,0.0,0.0,0.0,0.0,-1.9456,-1.8295,-1.71,0.0,0.0,0.0,0.0,0.0,0.0,0.0,-1.4959,-1.5639,-1.6397,-1.7054,0.0,0.0,0.0,0.0,-2.3804,-2.5166,-2.6408,-2.7585,-2.76,-2.76,-2.76,-2.8442,-2.9101,-2.9636,-3.0402,-3.1017,-3.1511,-3.1511,-3.1511,-3.1511,-3.1511,-3.1511,-3.157,-3.2288,-3.326,-3.4354,-3.519,-3.5504,-3.5504,-0.951,0.0,0.0,-1.3969,0.0,0.0,-1.5021,0.0,0.0,-1.9087,-1.9618,0.0,-1.9798,-1.9798,-1.9798,-1.9798,-1.9798,0.0,0.0,0.0,0.0,-1.8965,-1.8576,-1.7848,-1.6879,-1.569,0.0,-1.4543,0.0,0.0,-0.9905,0.0,0.0,0.0,0.0,-1.2203,0.0,-1.5781,-1.7652,-1.9045,-1.9597,0.0,0.0,-1.9798,-1.9798,-1.9798,-1.9798,-1.9798,-1.9798,-1.9798,-1.9798,-1.9798,-1.9798,-1.9798,-1.9798,-1.9798,-2.0003,-2.0258,-2.0258,-2.0646,-2.1115,-2.1441,-2.1634,-2.1753,-2.1765,-2.201,-2.2115,0.0,0.0,0.0,0.0,0.0,0.0,0.0,0.0,0.0,0.0,0.0,0.0,0.0,0.0,0.0,0.0,-1.4642,-1.5356,-1.5711,-1.6443,0.0,0.0,0.0,0.0,-2.3146,-2.4492,-2.5809,-2.7151,-2.745,-2.76,-2.76,-2.8263,-2.8951,-2.9636,-3.0223,-3.0881,-3.1511,-3.1511,-3.1511,-3.1511,-3.1511,-3.1511,-3.1585,-3.2333,-3.3395,-3.4593,-3.525,-3.5504,-3.5504,0.0,0.0,0.0,0.0,0.0,0.0,0.0,-1.5698,0.0,-1.9158,0.0,-1.9484,-1.9773,-1.9798,-1.9798,-1.9798,0.0,-1.9708,-1.9708,-1.9708,-1.95,-1.9013,-1.8987,-1.8776,-1.8312,-1.6808,0.0,0.0,0.0,0.0,-0.9905,0.0,0.0,0.0,0.0,0.0,0.0,-1.6864,-1.8506,0.0,-1.9597,-1.9798,-1.9798,-1.9798,-1.9798,-1.9798,-1.9798,-1.9798,-1.9798,-1.9798,-1.9798,-1.9798,-1.9798,-1.9798,-1.9798,-1.9798,-1.9798,-1.9798,-1.9798,-2.0131,-2.061,-2.1077,-2.1599,-2.1983,-2.1929,-2.1953,-2.1997,-2.1997,-2.1648,-2.1569,0.0,0.0,0.0,0.0,0.0,0.0,0.0,0.0,0.0,0.0,0.0,0.0,0.0,-1.4488,-1.504,-1.55,0.0,0.0,0.0,0.0,0.0,-2.2643,-2.3954,0.0,-2.6572,0.0,-2.76,-2.76,-2.8173,-2.8861,-2.9636,-3.0133,-3.0806,-3.1511,-3.1511,-3.1511,-3.1511,-3.1511,-3.1511,-3.16,-3.2527,-3.3514,-3.4474,-3.522,-3.5504,-3.5504,0.0,0.0,0.0,0.0,0.0,-1.6977,-1.843,-1.8982,-1.8719,-1.7265,-1.7064,-1.7777,-1.9597,-1.9798,-1.9798,-1.9798,-1.9396,0.0,0.0,0.0,0.0,-1.8987,-1.8987,-1.8953,-1.8859,-1.7712,-1.6074,0.0,-1.256,-1.1199,-0.9905,0.0,0.0,0.0,0.0,0.0,-1.5392,-1.7363,0.0,-1.9045,-1.9597,-1.9798,-1.9798,-1.9798,-1.9798,-1.9798,-1.9798,-1.9798,-1.9798,-1.9798,-1.9798,-1.9798,-1.9798,-1.9798,-1.9798,-1.9798,-1.9798,-1.9798,-1.9798,-1.9875,-1.9952,-2.0055,-2.0472,-2.0881,-2.086,-2.122,-2.1515,-2.1515,-2.1433,-2.1305,-2.1052,0.0,0.0,0.0,0.0,0.0,0.0,0.0,0.0,0.0,0.0,0.0,0.0,0.0,-1.52,0.0,0.0,0.0,0.0,0.0,0.0,0.0,-2.3954,0.0,0.0,0.0,-2.76,-2.76,-2.772,-2.8423,-2.9606,-2.9726,-3.0402,-3.1511,-3.1511,-3.1511,-3.1511,-3.1511,-3.1511,-3.163,-3.2901,-3.3499,-3.3814,-3.5055,-3.5504,-3.5504,0.0,0.0,0.0,0.0,0.0,0.0,0.0,-2.1262,0.0,-2.0009,-1.9923,-2.0324,-2.139,-2.1221,-2.0609,-1.9468,-2.0164,-2.0658,-2.0658,-2.0658,-2.0294,-1.9445,-1.9422,0.0,-1.9013,-1.8764,-1.7491,-1.5086,-1.3205,-1.1756,-1.0773,0.0,0.0,0.0,0.0,-1.4676,0.0,0.0,0.0,-1.9045,-1.9597,-1.9798,-1.9836,-2.0137,-2.0062,-1.9874,-2.0464,-2.0489,-2.0277,-2.0277,-2.0049,-1.9899,-2.0489,-2.0275,-1.9861,-2.0162,-2.0037,-1.9798,-1.9798,-1.9798,-1.9875,-2.0156,-2.0409,-2.0684,-2.0944,-2.1199,-2.1393,-2.1393,-2.1393,-2.124,-2.0712,-2.055,0.0,0.0,0.0,0.0,0.0,0.0,0.0,0.0,0.0,0.0,0.0,0.0,0.0,0.0,0.0,0.0,0.0,0.0,0.0,0.0,0.0,0.0,0.0,0.0,0.0,-2.76,-2.76,-2.8304,-2.9606,-2.9606,-3.0298,-3.1511,-3.1511,-3.1511,-3.1511,-3.1511,-3.1511,-3.163,-3.2976,-3.3499,-3.3664,-3.5011,-3.5504,-3.5504,0.0,-1.7714,0.0,0.0,-1.643,0.0,-2.2303,-2.2604,-2.2543,-2.3047,-2.2598,-2.2414,-2.2866,-2.2482,-2.1512,-1.9817,-2.1211,-2.2197,-2.2197,-2.2309,-2.1844,-2.0562,-2.0514,-2.03,-1.9879,-1.9814,-1.8809,0.0,0.0,0.0,0.0,-1.0759,-1.0998,-1.2219,0.0,0.0,0.0,0.0,-1.8869,-1.9396,-1.9949,-2.0162,-2.0213,-2.0691,-2.0578,-2.0275,-2.1167,-2.1232,-2.088,-2.1006,-2.0666,-2.0313,-2.1204,-2.0878,-2.025,-2.0729,-2.0514,-2.0162,-2.0162,-2.0075,-2.009,-2.0527,-2.0525,-2.0535,-2.0955,-2.1053,-2.1053,-2.1053,-2.1053,-2.0914,-2.0502,-2.0483,0.0,0.0,0.0,0.0,0.0,0.0,0.0,0.0,0.0,0.0,0.0,0.0,0.0,0.0,0.0,0.0,0.0,0.0,0.0,0.0,0.0,-2.4044,-2.5367,0.0,-2.7465,0.0,-2.76,-2.8304,-2.9606,-2.9606,-3.0298,-3.1511,-3.1511,-3.1511,-3.1511,-3.1511,-3.1511,-3.163,-3.2826,-3.3365,-3.3649,-3.4846,-3.5385,-3.5504,0.0,0.0,0.0,0.0,0.0,0.0,0.0,-2.2696,-2.3047,-2.3078,-2.0974,-2.0193,-2.208,-2.2216,-2.2113,-2.1909,-2.2077,-2.2197,-2.2197,-2.2714,-2.2947,-2.2807,-2.2794,-2.2765,-2.2705,-2.0813,-1.9453,0.0,0.0,0.0,0.0,-1.1795,-1.2605,-1.3927,0.0,0.0,0.0,-1.8982,-1.9987,-2.0591,-2.1104,-2.133,-2.1343,-2.1393,-2.138,-2.1343,-2.1443,-2.1455,-2.1493,-2.1995,-2.1794,-2.1343,-2.1455,-2.1446,-2.1343,-2.1393,-2.1408,-2.133,-2.133,-2.0993,-2.0643,-2.0696,-2.0292,-1.9901,-1.9952,-1.9952,-1.9952,-1.9952,-1.9952,-1.9927,-1.9876,-2.0272,-2.0555,0.0,0.0,0.0,0.0,0.0,0.0,0.0,0.0,0.0,0.0,0.0,0.0,0.0,0.0,0.0,0.0,0.0,0.0,-2.0688,0.0,-2.3385,-2.4679,-2.6019,-2.7001,-2.76,-2.76,-2.8304,-2.9606,-2.9606,-3.0298,-3.1511,-3.1511,-3.1511,-3.1511,-3.1511,-3.1511,-3.157,-3.2303,-3.2961,-3.3589,-3.4307,-3.4966,-3.5504,0.0,0.0,0.0,0.0,0.0,0.0,0.0,-2.0182,-2.0031,-2.0031,-2.0581,-2.1285,-2.2092,-2.2197,-2.234,-2.2726,-2.2757,-2.2757,-2.2757,-2.2957,-2.2175,-2.0128,-2.0031,-2.0031,-2.0031,-2.0847,-2.0499,0.0,0.0,0.0,0.0,0.0,0.0,0.0,0.0,-1.7589,-1.8907,-1.9925,-2.0679,-2.1207,-2.1393,-2.1493,-2.1559,-2.1857,-2.1782,-2.1581,-2.2234,-2.2259,-2.2071,-2.2594,-2.2221,-2.1606,-2.2272,-2.202,-2.1556,-2.1882,-2.1744,-2.1493,-2.1493,-2.1358,-2.1106,-2.0779,-2.0515,-2.0251,-1.9874,-1.9798,-1.9798,-1.9798,-1.9798,-1.9812,-1.9812,-1.9982,-2.012,0.0,0.0,0.0,0.0,0.0,0.0,0.0,0.0,0.0,0.0,0.0,0.0,0.0,0.0,-1.2792,-1.508,0.0,0.0,-2.0004,0.0,-2.3634,-2.459,-2.6318,-2.733,-2.76,-2.76,-2.8094,-2.9011,-2.9427,-3.0298,-3.1511,-3.1511,-3.1511,-3.1511,-3.1511,-3.1511,-3.157,-3.2228,-3.2916,-3.3574,-3.4264,-3.4906,-3.5504,-1.9209,0.0,-1.8008,0.0,-1.9639,-2.0463,-1.8998,-1.8337,-1.8008,-1.8008,-1.9911,-2.16,-2.2389,-2.2451,-2.2635,-2.3078,-2.3108,-2.275,-2.197,-2.2659,-2.1561,-1.8134,-1.8008,0.0,-1.8596,-2.0976,-2.1452,-1.9937,-1.7784,0.0,0.0,-1.5572,0.0,0.0,-1.7766,-1.8932,-2.01,-2.0867,-2.1408,-2.1744,-2.1907,-2.197,-2.202,-2.2397,-2.2309,-2.2071,-2.2832,-2.2857,-2.2581,-2.297,-2.2594,-2.2108,-2.2857,-2.2569,-2.2046,-2.2406,-2.2284,-2.197,-2.197,-2.1857,-2.1631,-2.1282,-2.093,-2.0591,-2.015,-1.9924,-1.9798,-1.9798,-1.9798,-1.9798,-1.9798,-1.9812,-1.9805,-1.98,0.0,0.0,0.0,0.0,0.0,0.0,0.0,-1.7287,0.0,0.0,0.0,0.0,0.0,-1.3414,-1.5503,0.0,0.0,0.0,0.0,0.0,0.0,-2.6359,-2.7355,-2.76,-2.76,-2.7959,-2.8622,-2.9475,-3.0462,-3.1511,-3.1511,-3.1511,-3.1511,-3.1511,-3.1511,-3.1555,-3.2019,-3.2751,-3.3529,-3.3873,-3.4637,-3.5504,-1.8012,-1.7998,-1.8008,-1.8008,-1.8042,-1.8042,-1.8008,-1.8008,-1.8008,-1.8008,-1.8674,-2.015,-2.2793,-2.3078,-2.3078,-2.3108,-2.3108,-2.197,-1.933,-2.1647,-2.1561,0.0,0.0,-1.8664,-2.0031,-2.1474,-2.2173,-2.2149,0.0,0.0,-1.655,-1.8719,-1.9736,-1.9748,-1.9773,-2.01,-2.0754,-2.1832,-2.2297,-2.2347,-2.2869,-2.3083,-2.3083,-2.3095,-2.3095,-2.3083,-2.3095,-2.3095,-2.3095,-2.3108,-2.3095,-2.3083,-2.3095,-2.3095,-2.3083,-2.3095,-2.3095,-2.3083,-2.3083,-2.2681,-2.2297,-2.2297,-2.1468,-2.0691,-2.0679,-2.0239,-1.9798,-1.9798,-1.9798,-1.9798,-1.9798,-1.9798,-1.9788,-1.9804,0.0,0.0,0.0,0.0,0.0,0.0,-1.7237,-1.7192,-1.8436,0.0,0.0,0.0,0.0,0.0,0.0,0.0,0.0,-2.0332,-2.2287,0.0,-2.4498,-2.5782,-2.6822,-2.76,-2.76,-2.7959,-2.8637,-2.9909,-3.0866,-3.1511,-3.1511,-3.1511,-3.1511,-3.1511,-3.1511,-3.1511,-3.1511,-3.2318,-3.344,-3.299,-3.3947,-3.5504,-1.8008,-1.8008,-1.8008,-1.8008,-1.8008,-1.8008,-1.8008,-1.8008,-1.8008,-1.8008,-1.864,-1.9419,-2.0279,-2.199,-2.2372,0.0,-1.9911,-1.9266,0.0,-1.9144,-1.9133,-1.8042,-1.8008,-1.8664,-2.0063,-2.0528,-2.0302,-1.9353,0.0,0.0,0.0,-2.0573,-2.1428,-2.1458,-2.1882,-2.1879,-2.1628,-2.2481,-2.2844,-2.2857,-2.3032,-2.3108,-2.3108,-2.3108,-2.3108,-2.3108,-2.3108,-2.3108,-2.3108,-2.3108,-2.3108,-2.3108,-2.3108,-2.3108,-2.3108,-2.3108,-2.3108,-2.3108,-2.3108,-2.2982,-2.2757,-2.2397,-2.1769,-2.1157,-2.0779,-2.0239,-1.9798,-1.9798,-1.9798,-1.9798,-1.9798,-1.9798,-1.9799,-1.98,-1.903,0.0,0.0,0.0,0.0,0.0,0.0,-1.6714,0.0,-1.5928,0.0,0.0,0.0,0.0,0.0,0.0,0.0,0.0,-2.166,0.0,-2.3955,-2.5535,-2.6766,-2.76,-2.7514,-2.8096,-2.928,-2.9684,-3.0477,-3.1511,-3.1511,-3.1511,-3.1511,-3.1511,-3.1511,-3.1511,-3.1511,-3.2123,-3.3005,-3.2856,-3.3947,-3.5504,-1.8008,-1.8008,-1.8008,-1.8008,-1.8008,-1.8008,-1.8008,-1.8008,-1.811,-1.8371,-1.8808,-1.9008,-1.8707,-2.0171,0.0,-1.8831,-1.8279,-1.8008,-1.8008,-1.8008,-1.8008,-1.8008,-1.8008,-1.8405,-1.9287,0.0,0.0,-1.9584,-2.1336,-2.168,-2.0705,-2.174,-2.2309,-2.2543,-2.2927,-2.2844,-2.2443,-2.2907,-2.3108,-2.3108,-2.3108,-2.3108,-2.3108,-2.3108,-2.3108,-2.3108,-2.3108,-2.3108,-2.3108,-2.3108,-2.3108,-2.3108,-2.3108,-2.3108,-2.3108,-2.3108,-2.3108,-2.3108,-2.3108,-2.3108,-2.302,-2.2681,-2.2209,-2.1594,-2.0867,-2.0239,-1.9798,-1.9798,-1.9798,-1.9798,-1.9798,-1.9798,-1.9736,-1.9547,-1.8781,-1.8129,-1.7928,0.0,0.0,0.0,0.0,0.0,0.0,-1.669,0.0,0.0,0.0,0.0,0.0,0.0,0.0,-1.8889,-2.1693,0.0,-2.3879,-2.5214,-2.6322,-2.7203,-2.7639,-2.8442,-2.9498,-2.9791,-3.0479,-3.1438,-3.1467,-3.1511,-3.1511,-3.1511,-3.1511,-3.1511,-3.1511,-3.2034,-3.2766,-3.2437,-3.3663,-3.5504,-1.8008,-1.8008,0.0,0.0,-1.8105,0.0,-1.8193,-1.8086,-1.8285,-1.9106,-1.9184,-1.8958,-1.8252,-1.8193,-1.8193,-1.8193,0.0,0.0,0.0,-1.8008,-1.8008,-1.8008,-1.8008,-1.8008,-1.8008,-1.9704,-2.1071,-2.2061,-2.2154,-2.2197,-2.2197,-2.2197,-2.2512,-2.3108,-2.3108,-2.3108,-2.3108,-2.3108,-2.3108,-2.3108,-2.3108,-2.3108,-2.3108,-2.3108,-2.3108,-2.3108,-2.3108,-2.3108,-2.3108,-2.3108,-2.3108,-2.3108,-2.3108,-2.3108,-2.3108,-2.3108,-2.3108,-2.3108,-2.3108,-2.3108,-2.3108,-2.3108,-2.2694,-2.202,-2.0943,-2.0277,-1.9849,-1.9811,-1.9798,-1.9798,-1.9798,-1.9798,-1.9623,-1.9096,-1.8544,-1.8016,-1.7486,0.0,0.0,0.0,0.0,0.0,0.0,-1.8204,-1.8392,0.0,0.0,0.0,0.0,0.0,-1.9336,-2.0328,-2.2163,-2.3458,-2.415,-2.4805,-2.5563,-2.6498,-2.7856,-2.8735,-2.9237,-2.9985,-3.0667,-3.1219,-3.1307,-3.1409,-3.1511,-3.1453,-3.1438,-3.1511,-3.1467,-3.1974,-3.2617,-3.1809,-3.3185,-3.5472,0.0,0.0,-1.8008,-1.8008,-1.9092,-1.9999,-1.9999,-1.8857,-1.8546,-2.0046,-2.0252,-2.0177,-1.9999,-1.9999,-1.9999,-1.9999,-1.8769,-1.8008,-1.8008,-1.8008,-1.8008,-1.8008,-1.8008,-1.8008,-1.8008,-1.8428,-1.932,-2.0592,-2.1663,-2.2197,-2.2197,-2.2197,-2.2512,-2.3108,-2.3108,-2.3108,-2.3108,-2.3108,-2.3108,-2.3108,-2.3108,-2.3108,-2.3108,-2.3108,-2.3108,-2.3108,-2.3108,-2.3108,-2.3108,-2.3108,-2.3108,-2.3108,-2.3108,-2.3108,-2.3108,-2.3108,-2.3108,-2.3108,-2.3108,-2.3108,-2.3108,-2.3108,-2.2694,-2.202,-2.0943,-2.0591,-2.0365,-1.9899,-1.9798,-1.9798,-1.9798,-1.9798,-1.9623,-1.9096,-1.8544,-1.8016,-1.7486,-1.7285,0.0,0.0,-1.7847,-1.8116,-1.7987,-1.8192,-1.8198,0.0,0.0,0.0,0.0,-1.8977,-1.9671,-1.9939,-2.1616,-2.2855,-2.359,-2.4089,-2.4979,-2.6203,-2.7062,-2.7777,-2.8383,-2.8547,-2.9291,-3.0524,-3.004,-3.0448,-3.1438,-3.0836,-3.0955,-3.1467,-3.1322,-3.1499,-3.178,-3.1585,-3.3185,-3.5148,-1.8008,-1.8008,-1.8262,-1.9043,-1.9989,-2.0605,-2.0605,-1.9813,-1.9512,-2.0478,-2.0605,-2.0605,-2.0605,-2.0605,-2.0605,-2.0605,-1.8994,-1.8008,-1.8008,-1.8008,-1.8008,-1.8008,-1.8008,-1.8379,-1.916,-1.8408,-1.8697,-2.0096,-2.1506,-2.2197,-2.2197,-2.234,-2.2678,-2.3108,-2.3108,-2.3108,-2.3108,-2.3108,-2.3108,-2.3108,-2.3108,-2.3108,-2.3108,-2.3108,-2.3108,-2.3108,-2.3108,-2.3108,-2.3108,-2.3108,-2.3108,-2.3108,-2.3108,-2.3108,-2.3108,-2.3108,-2.3108,-2.3108,-2.3108,-2.3108,-2.3108,-2.3108,-2.2694,-2.2159,-2.1556,-2.1056,-2.0603,-2.0289,-1.9987,-1.9798,-1.9798,-1.961,-1.9246,-1.8719,-1.8191,-1.7639,-1.7074,-1.7234,0.0,-1.741,-1.8091,-1.8456,-1.8229,-1.8643,-1.8779,-1.8435,0.0,0.0,-1.9186,-1.9838,-2.02,-2.02,-2.1582,-2.2593,-2.3248,-2.3874,-2.4567,-2.53,-2.6552,-2.7297,-2.7559,-2.8166,-2.8886,-2.9594,-2.9282,-2.9656,-3.0448,-3.0023,-3.0267,-3.0866,-3.0389,-3.0748,-3.1307,-2.9797,-3.0782,-3.2648,-1.8008,-1.8223,-1.8857,-2.0351,-2.0605,-2.0605,-2.0605,-2.0605,-2.0605,-2.0605,-2.0605,-2.0605,-2.0605,-2.0605,-2.0605,-2.0605,-1.9238,-1.8389,-1.8389,-1.8389,-1.8389,-1.8389,-1.8389,-1.9082,-2.0576,-1.9141,-1.8835,-1.977,-2.0976,-2.1769,-2.2197,-2.2329,-2.2638,-2.3078,-2.2984,-2.3002,-2.3108,-2.3221,-2.3271,-2.3283,-2.3333,-2.3358,-2.3358,-2.3358,-2.3358,-2.3358,-2.3358,-2.3358,-2.3358,-2.3358,-2.3296,-2.3233,-2.3233,-2.317,-2.3108,-2.3108,-2.3108,-2.3108,-2.3108,-2.3108,-2.3108,-2.3108,-2.2757,-2.241,-2.2334,-2.1594,-2.0918,-2.083,-2.0365,-1.9936,-1.9936,-1.9497,-1.892,-1.8304,-1.789,-1.7375,-1.66,0.0,-1.7624,-1.7536,-1.848,-1.8933,-1.8493,-1.9271,-1.966,-1.9271,-1.9685,-2.0175,0.0,-2.0893,-2.0943,-2.0943,-2.1832,-2.2543,-2.3095,-2.3884,-2.4263,-2.4276,-2.6099,-2.6879,-2.6769,-2.8044,-2.8634,-2.8629,-2.8634,-2.8889,-2.9233,-2.9107,-2.9407,-2.9889,-2.9192,-2.9659,-3.0389,-2.7537,-2.7907,-2.9792,-1.8008,-1.918,-2.0292,-2.0556,-2.0605,-2.0605,-2.0605,-2.0605,-2.0605,-2.0605,-2.0605,-2.0605,-2.0605,-2.0605,-2.0605,-2.0605,-2.0361,-2.0204,-2.0204,-2.0204,-2.0204,-2.0204,-2.0204,-2.0331,-2.0595,-2.0341,-1.9563,-1.8337,-1.8529,-1.9868,-2.2171,-2.1332,-2.1719,-2.3085,-2.2379,-2.2448,-2.3145,-2.376,-2.4067,-2.4148,-2.4431,-2.4525,-2.4525,-2.4525,-2.4525,-2.4525,-2.4525,-2.4525,-2.4525,-2.4525,-2.4255,-2.3866,-2.3866,-2.3496,-2.3108,-2.3108,-2.3108,-2.3108,-2.3108,-2.3108,-2.3108,-2.3108,-2.3045,-2.2857,-2.2393,-2.2184,-2.192,-2.1455,-2.0943,-2.0553,-2.0553,-2.0075,-1.9359,-1.8367,-1.8506,-1.8218,-1.6701,0.0,-1.8569,-1.8129,-1.9032,-1.9648,-1.956,-1.9698,-1.9974,-2.0402,-2.0515,-2.0805,-2.1358,-2.1807,-2.2058,-2.2058,-2.2221,-2.2543,-2.3095,-2.378,-2.4118,-2.4144,-2.5345,-2.5928,-2.5905,-2.658,-2.7263,-2.7835,-2.7284,-2.7802,-2.8985,-2.8306,-2.8338,-2.8748,-2.862,-2.8051,-2.7196,-2.6679,-2.7907,-2.9869,-1.9385,-2.0067,-2.0605,-2.0605,-2.0605,-2.0605,-2.0605,-2.0605,-2.0605,-2.0605,-2.0605,-2.0605,-2.0605,-2.0605,-2.0605,-2.0605,-2.0605,-2.0605,-2.0605,-2.0605,-2.0605,-2.0605,-2.0605,-2.0605,-2.0605,-2.0605,-2.0214,-1.9385,-1.9385,-2.0056,-2.1341,-2.082,-2.1012,-2.1779,-2.2329,-2.2679,-2.2984,-2.4705,-2.4842,-2.3953,-2.4539,-2.4788,-2.4788,-2.4788,-2.4788,-2.4788,-2.4788,-2.4788,-2.4788,-2.4788,-2.4657,-2.4393,-2.4092,-2.3816,-2.3509,-2.3195,-2.3108,-2.3108,-2.3108,-2.3108,-2.3108,-2.3108,-2.3108,-2.3045,-2.2782,-2.2493,-2.2234,-2.1983,-2.1493,-2.1043,-2.0742,-2.0214,-1.9648,-1.9145,-1.877,0.0,0.0,-1.8506,-1.8907,-1.8657,-1.9321,-1.9798,-1.9798,-2.0087,-2.0402,-2.0679,-2.0968,-2.1383,-2.1895,-2.2171,-2.2418,-2.2719,-2.2732,-2.2844,-2.3108,-2.3395,-2.3573,-2.3586,-2.4387,-2.4949,-2.5237,-2.5757,-2.6388,-2.704,-2.6714,-2.704,-2.7736,-2.7364,-2.7364,-2.7571,-2.7571,-2.7129,-2.6499,-2.6499,-2.7153,-2.8096,-2.0605,-2.0605,-2.0605,-2.0605,-2.0605,-2.0605,-2.0605,-2.0605,-2.0605,-2.0605,-2.0605,-2.0605,-2.0605,-2.0605,-2.0605,-2.0605,-2.0605,-2.0605,-2.0605,-2.0605,-2.0605,-2.0605,-2.0605,-2.0605,-2.0605,-2.0605,-2.0605,-2.0605,-2.0605,-2.0605,-2.0605,-2.0605,-2.0605,-2.0653,-2.1924,-2.2406,-2.2355,-2.4506,-2.4957,-2.4341,-2.4954,-2.5209,-2.5209,-2.5209,-2.5209,-2.5209,-2.5209,-2.5209,-2.5209,-2.5209,-2.5109,-2.4888,-2.4506,-2.4293,-2.4079,-2.3471,-2.3208,-2.3108,-2.3108,-2.3108,-2.3108,-2.3108,-2.3108,-2.3108,-2.3108,-2.2782,-2.2498,-2.2498,-2.2071,-2.1556,-2.1157,-2.0577,-2.0112,-1.9849,0.0,0.0,0.0,-1.9146,-1.9334,-1.9196,-1.9786,-2.0188,-2.0188,-2.0616,-2.0943,-2.1069,-2.1443,-2.192,-2.2443,-2.2498,-2.2669,-2.3095,-2.3108,-2.3108,-2.3108,-2.3108,-2.3108,-2.3108,-2.3715,-2.4293,-2.4813,-2.536,-2.5912,-2.6499,-2.6499,-2.6555,-2.6658,-2.6658,-2.6692,-2.6714,-2.6714,-2.6658,-2.6499,-2.6499,-2.66,-2.6826,-2.0605,-2.0605,-2.0605,-2.0605,-2.0605,-2.0605,-2.0605,-2.0605,-2.0605,-2.0605,-2.0605,-2.0605,-2.0605,-2.0605,-2.0605,-2.0605,-2.0605,-2.0605,-2.0605,-2.0605,-2.0605,-2.0605,-2.0605,-2.0605,-2.0605,-2.0605,-2.0605,-2.0605,-2.0605,-2.0605,-2.0605,-2.0605,-2.0605,-2.0595,-2.0728,-2.0765,-2.0814,-2.1745,-2.3759,-2.6305,-2.6339,-2.6373,-2.6373,-2.6373,-2.6373,-2.6373,-2.6373,-2.6373,-2.6373,-2.6373,-2.6021,-2.5536,-2.5485,-2.5146,-2.4612,-2.4092,-2.3521,-2.3108,-2.3108,-2.3108,-2.3108,-2.3108,-2.3108,-2.3108,-2.3108,-2.307,-2.3045,-2.3045,-2.2606,-2.2234,-2.2196,-2.1732,-2.1029,-1.9974,0.0,0.0,-1.848,-1.961,-2.0377,-1.9811,-2.0702,-2.1355,-2.1355,-2.1405,-2.1644,-2.2146,-2.2234,-2.2498,-2.3007,-2.3045,-2.3058,-2.3108,-2.3108,-2.3108,-2.3108,-2.3108,-2.3108,-2.3108,-2.3715,-2.4293,-2.4813,-2.536,-2.5912,-2.6499,-2.6499,-2.6499,-2.6499,-2.6499,-2.6521,-2.6521,-2.6521,-2.6499,-2.6499,-2.6499,-2.6927,-2.7517,-2.0605,-2.0605,-2.0605,-2.0605,-2.0605,-2.0605,-2.0605,-2.0605,-2.0605,-2.0605,-2.0605,-2.0605,-2.0605,-2.0605,-2.0605,-2.0605,-2.0605,-2.0605,-2.0605,-2.0605,-2.0605,-2.0605,-2.0605,-2.0605,-2.0605,-2.0605,-2.0605,-2.0605,-2.0605,-2.0605,-2.0605,-2.0605,-2.0605,-2.0605,-2.0605,-2.0605,-2.0605,-2.0915,-2.2031,-2.3694,-2.4981,-2.5523,-2.5523,-2.5699,-2.5781,-2.5816,-2.6314,-2.6499,-2.6499,-2.6499,-2.6348,-2.6097,-2.5711,-2.546,-2.5134,-2.4255,-2.3841,-2.3498,-2.2684,-2.2781,-2.3108,-2.3108,-2.3108,-2.3108,-2.3108,-2.3108,-2.3108,-2.3108,-2.2945,-2.2681,-2.2343,-2.2133,-2.1857,-2.143,0.0,-2.1079,-2.079,-2.0991,-2.1119,-2.0878,-2.123,-2.1493,-2.1493,-2.1794,-2.2083,-2.2297,-2.2606,-2.2882,-2.3095,-2.3108,-2.3108,-2.3108,-2.3108,-2.3108,-2.3108,-2.3108,-2.3108,-2.3108,-2.3333,-2.3722,-2.433,-2.487,-2.541,-2.5971,-2.6336,-2.6499,-2.6499,-2.6499,-2.6499,-2.6499,-2.6499,-2.6499,-2.6499,-2.6499,-2.6675,-2.6914,-2.0605,-2.0605,-2.0605,-2.0605,-2.0605,-2.0605,-2.0605,-2.0605,-2.0605,-2.0605,-2.0605,-2.0605,-2.0605,-2.0605,-2.0605,-2.0605,-2.0605,-2.0605,-2.0605,-2.0605,-2.0605,-2.0605,-2.0605,-2.0605,-2.0605,-2.0605,-2.0605,-2.0605,-2.0605,-2.0605,-2.0605,-2.0605,-2.0605,-2.0605,-2.0605,-2.0605,-2.0605,-2.0876,-2.13,-2.1911,-2.3338,-2.4143,-2.4479,-2.4981,-2.5241,-2.5418,-2.6211,-2.6499,-2.6452,-2.6211,-2.628,-2.6389,-2.5704,-2.5569,-2.5448,-2.472,-2.4129,-2.3516,-2.2631,-2.2444,-2.2506,-2.272,-2.2781,-2.2781,-2.2781,-2.2628,-2.2537,-2.275,-2.2781,-2.2729,-2.2577,-2.2543,-2.2493,-2.2334,-2.1995,-2.182,-2.202,-2.1882,-2.1744,-2.1744,-2.1895,-2.2008,-2.2008,-2.2347,-2.2543,-2.2543,-2.2895,-2.3108,-2.3108,-2.3108,-2.3108,-2.3108,-2.3108,-2.3108,-2.3108,-2.3108,-2.3108,-2.3108,-2.3108,-2.3409,-2.4017,-2.4569,-2.5109,-2.5624,-2.6248,-2.6499,-2.6499,-2.6499,-2.6499,-2.6499,-2.6499,-2.6499,-2.6499,-2.6499,-2.6499,-2.6499,-2.0605,-2.0605,-2.0605,-2.0605,-2.0605,-2.0605,-2.0605,-2.0605,-2.0605,-2.0605,-2.0605,-2.0605,-2.0605,-2.0605,-2.0605,-2.0605,-2.0605,-2.0605,-2.0605,-2.0605,-2.0605,-2.0605,-2.0605,-2.0605,-2.0605,-2.0605,-2.0605,-2.0605,-2.0605,-2.0605,-2.0605,-2.0605,-2.0605,-2.0605,-2.0605,-2.0605,-2.0644,-2.1454,-2.1807,-2.1807,-2.1807,-2.2429,-2.3508,-2.4479,-2.5052,-2.5382,-2.6211,-2.6499,-2.6349,-2.5558,-2.5851,-2.6349,-2.5523,-2.5424,-2.5598,-2.5598,-2.4353,-2.2995,-2.2995,-2.2059,-2.125,-2.1928,-2.2082,-2.2082,-2.2082,-2.1585,-2.1282,-2.1959,-2.2082,-2.2298,-2.2944,-2.3065,-2.292,-2.238,-2.2293,-2.2092,-2.1581,-2.197,-2.2322,-2.2322,-2.2782,-2.3108,-2.3108,-2.3108,-2.3108,-2.3108,-2.3108,-2.3108,-2.3108,-2.3108,-2.3108,-2.3108,-2.3108,-2.3108,-2.3108,-2.3108,-2.3108,-2.3108,-2.3108,-2.3409,-2.4017,-2.4537,-2.5109,-2.5624,-2.6248,-2.6499,-2.6499,-2.6499,-2.6499,-2.6499,-2.6499,-2.6499,-2.6499,-2.6499,-2.6499,-2.6499,-2.0605,-2.0605,-2.0605,-2.0605,-2.0605,-2.0605,-2.0605,-2.0605,-2.0605,-2.0605,-2.0605,-2.0605,-2.0605,-2.0605,-2.0605,-2.0605,-2.0605,-2.0605,-2.0605,-2.0605,-2.0605,-2.0605,-2.0605,-2.0605,-2.0605,-2.0605,-2.0605,-2.0605,-2.0605,-2.0605,-2.0605,-2.0605,-2.0605,-2.0605,-2.0605,-2.0605,-2.0644,-2.1454,-2.1807,-2.1807,-2.1807,-2.1987,-2.2327,-2.2617,-2.3128,-2.3863,-2.5194,-2.53,-2.4886,-2.5194,-2.5075,-2.4767,-2.4516,-2.4483,-2.446,-2.4095,-2.3382,-2.254,-2.1675,-2.1287,-2.1155,-2.1345,-2.1408,-2.1408,-2.1408,-2.125,-2.1155,-2.1376,-2.1408,-2.1471,-2.1659,-2.169,-2.1799,-2.2092,-2.2159,-2.2261,-2.2572,-2.2757,-2.2857,-2.2857,-2.3007,-2.3108,-2.3108,-2.3108,-2.3108,-2.3108,-2.3108,-2.3108,-2.3108,-2.3108,-2.3108,-2.3108,-2.3108,-2.3108,-2.3108,-2.3108,-2.3108,-2.3108,-2.3108,-2.3195,-2.3396,-2.4349,-2.4876,-2.5109,-2.6084,-2.6499,-2.6499,-2.6499,-2.6499,-2.6499,-2.6499,-2.6499,-2.6499,-2.6499,-2.6499,-2.6499,-2.0605,-2.0605,-2.0605,-2.0605,-2.0605,-2.0605,-2.0605,-2.0605,-2.0605,-2.0605,-2.0605,-2.0605,-2.0605,-2.0605,-2.0605,-2.0605,-2.0605,-2.0605,-2.0605,-2.0605,-2.0605,-2.0605,-2.0605,-2.0605,-2.0605,-2.0605,-2.0605,-2.0605,-2.0605,-2.0605,-2.0605,-2.0605,-2.0605,-2.0605,-2.0605,-2.0605,-2.0644,-2.1108,-2.1339,-2.1339,-2.1683,-2.1807,-2.1807,-2.1807,-2.2289,-2.3139,-2.4396,-2.4516,-2.412,-2.4324,-2.407,-2.3731,-2.4011,-2.4108,-2.4051,-2.3705,-2.3094,-2.2328,-2.1576,-2.1005,-2.0588,-2.0479,-2.0596,-2.0709,-2.0709,-2.0484,-2.0387,-2.0645,-2.0709,-2.0773,-2.106,-2.1092,-2.1313,-2.199,-2.2101,-2.2329,-2.3017,-2.3108,-2.3108,-2.3108,-2.3108,-2.3108,-2.3108,-2.3108,-2.3108,-2.3108,-2.3108,-2.3108,-2.3108,-2.3108,-2.3108,-2.3108,-2.3108,-2.3108,-2.3108,-2.3108,-2.3108,-2.3108,-2.3108,-2.3108,-2.3145,-2.4274,-2.4788,-2.485,-2.6021,-2.6499,-2.6499,-2.6499,-2.6499,-2.6499,-2.6499,-2.6499,-2.6499,-2.6499,-2.6499,-2.6499,-2.0605,-2.0605,-2.0605,-2.0605,-2.0605,-2.0605,-2.0605,-2.0605,-2.0605,-2.0605,-2.0605,-2.0605,-2.0605,-2.0605,-2.0605,-2.0605,-2.0605,-2.0605,-2.0605,-2.0605,-2.0605,-2.0605,-2.0605,-2.0605,-2.0605,-2.0605,-2.0605,-2.0605,-2.0605,-2.0605,-2.0605,-2.0605,-2.0605,-2.0605,-2.0605,-2.0605,-2.0605,-2.0605,-2.0605,-2.0644,-2.1415,-2.1693,-2.1731,-2.1769,-2.2214,-2.2964,-2.3731,-2.3975,-2.3793,-2.3139,-2.2889,-2.299,-2.3694,-2.3891,-2.3891,-2.3891,-2.3092,-2.2197,-2.2197,-2.1041,-1.981,-1.9571,-1.9775,-2.002,-1.9977,-1.9485,-1.9231,-1.9835,-1.9977,-2.0161,-2.0773,-2.0901,-2.1155,-2.1865,-2.2021,-2.2267,-2.2975,-2.3078,-2.3108,-2.3108,-2.3108,-2.3108,-2.3108,-2.3108,-2.3108,-2.3108,-2.3108,-2.3108,-2.3108,-2.3108,-2.3108,-2.3108,-2.3108,-2.3108,-2.3108,-2.3108,-2.3108,-2.3108,-2.3108,-2.3108,-2.3145,-2.4274,-2.4775,-2.48,-2.5996,-2.6499,-2.6499,-2.6499,-2.6499,-2.6499,-2.6499,-2.6499,-2.6499,-2.6499,-2.6499,-2.6499,-2.0605,-2.0605,-2.0605,-2.0605,-2.0605,-2.0605,-2.0605,-2.0605,-2.0605,-2.0605,-2.0605,-2.0605,-2.0605,-2.0605,-2.0605,-2.0605,-2.0605,-2.0605,-2.0605,-2.0605,-2.0605,-2.0605,-2.0605,-2.0605,-2.0605,-2.0605,-2.0605,-2.0605,-2.0605,-2.0605,-2.0605,-2.0605,-2.0605,-2.0605,-2.0605,-2.0605,-2.0605,-2.0605,-2.0605,-2.0605,-2.0799,-2.1002,-2.1195,-2.1415,-2.1645,-2.1959,-2.2916,-2.283,-2.2279,-2.2101,-2.2073,-2.2101,-2.2241,-2.2317,-2.2317,-2.2317,-2.1839,-2.1371,-2.1371,-2.0819,-2.0168,-1.9643,-1.9582,-1.9476,-1.8957,-1.8875,-1.8875,-1.8841,-1.8965,-1.9131,-1.9264,-1.9297,-1.9715,-2.0944,-2.1262,-2.169,-2.2775,-2.3017,-2.3108,-2.3108,-2.3108,-2.3108,-2.3108,-2.3108,-2.3108,-2.3108,-2.3108,-2.3108,-2.3108,-2.3108,-2.3108,-2.3108,-2.3108,-2.3108,-2.3108,-2.3108,-2.3108,-2.3108,-2.3108,-2.3108,-2.3145,-2.4274,-2.4625,-2.4399,-2.5883,-2.6499,-2.6499,-2.6499,-2.6499,-2.6499,-2.6499,-2.6499,-2.6499,-2.6499,-2.6499,-2.6499,-1.8037,-1.8118,-1.8118,-1.8118,-1.9481,-2.0605,-2.0605,-2.0605,-2.0605,-2.0605,-2.0605,-2.0605,-2.0605,-2.0605,-2.0605,-2.0605,-2.0605,-2.0605,-2.0605,-2.0605,-2.0605,-2.0605,-2.0605,-2.0605,-2.0605,-2.0605,-2.0605,-2.0605,-2.0605,-2.0605,-2.0605,-2.0605,-2.0605,-2.0605,-2.0605,-2.0605,-2.0605,-2.0605,-2.0605,-2.0605,-2.0605,-2.076,-2.1002,-2.1146,-2.1272,-2.1436,-2.2073,-2.2073,-2.1807,-2.1807,-2.1731,-2.1655,-2.1769,-2.1731,-2.1693,-2.1769,-2.1631,-2.1408,-2.1333,-2.0966,-2.0483,-1.9959,-1.9505,-1.9083,-1.8616,-1.8583,-1.8617,-1.8516,-1.8573,-1.865,-1.865,-1.865,-1.8998,-2.0096,-2.0355,-2.073,-2.1659,-2.2125,-2.2372,-2.2372,-2.2763,-2.3017,-2.3078,-2.3108,-2.3108,-2.3108,-2.3108,-2.3108,-2.3108,-2.3108,-2.3108,-2.3108,-2.3108,-2.3108,-2.3108,-2.3108,-2.3108,-2.3108,-2.3108,-2.3108,-2.3133,-2.401,-2.4324,-2.4286,-2.5845,-2.6499,-2.6499,-2.6499,-2.6499,-2.6499,-2.6499,-2.6499,-2.6499,-2.6499,-2.6499,-2.6499,-1.5055,-1.518,-1.5222,-1.5389,-1.7674,-1.955,-1.9678,-1.9717,-1.9717,-1.9717,-2.0235,-2.0605,-2.0605,-2.0605,-2.0605,-2.0605,-2.0605,-2.0605,-2.0605,-2.0605,-2.0605,-2.0605,-2.0605,-2.0605,-2.0605,-2.0605,-2.0605,-2.0605,-2.0605,-2.0605,-2.0605,-2.0605,-2.0605,-2.0605,-2.0605,-2.0605,-2.0605,-2.0605,-2.0605,-2.0605,-2.0605,-2.0722,-2.0925,-2.0964,-2.1051,-2.1177,-2.1397,-2.1578,-2.1769,-2.1769,-2.1655,-2.154,-2.1693,-2.1617,-2.1464,-2.1655,-2.1693,-2.1655,-2.1502,-2.1151,-2.0771,-2.0297,-1.9657,-1.9038,-1.86,-1.8498,-1.8448,-1.8414,-1.8448,-1.8482,-1.8482,-1.8482,-1.8707,-1.9431,-1.9595,-1.9814,-2.0462,-2.1069,-2.1428,-2.1428,-2.2075,-2.261,-2.2823,-2.2884,-2.2944,-2.3047,-2.3078,-2.3108,-2.3108,-2.3108,-2.3108,-2.3108,-2.3108,-2.3108,-2.3108,-2.3108,-2.3108,-2.3108,-2.3108,-2.3108,-2.312,-2.3728,-2.4017,-2.4098,-2.5795,-2.6499,-2.6499,-2.6499,-2.6499,-2.6499,-2.6499,-2.6499,-2.6499,-2.6499,-2.6499,-2.6499,-1.4257,-1.4299,-1.4503,-1.5264,-1.5159,-1.5235,-1.5989,-1.6113,-1.6113,-1.6113,-1.8718,-2.0605,-2.0605,-2.0605,-2.0605,-2.0605,-2.0605,-2.0605,-2.0605,-2.0605,-2.0605,-2.0605,-2.0605,-2.0605,-2.0605,-2.0605,-2.0605,-2.0605,-2.0605,-2.0605,-2.0605,-2.0605,-2.0605,-2.0605,-2.0605,-2.0605,-2.0605,-2.0605,-2.0605,-2.0605,-2.0605,-2.0605,-2.0683,-2.0858,-2.0906,-2.0984,-2.1167,-2.1359,-2.154,-2.154,-2.1512,-2.1502,-2.154,-2.1387,-2.1244,-2.1282,-2.1282,-2.1282,-2.1244,-2.1203,-2.0976,-2.0339,-2.0113,-1.9779,-1.8801,-1.8434,-1.8269,-1.811,-1.8212,-1.8337,-1.8337,-1.8337,-1.8563,-1.9243,-1.9497,-1.9759,-2.0268,-2.0558,-2.0751,-2.0751,-2.0846,-2.1144,-2.1741,-2.197,-2.2292,-2.2866,-2.3017,-2.3108,-2.3108,-2.3108,-2.3108,-2.3108,-2.3108,-2.3108,-2.3108,-2.3108,-2.3108,-2.3108,-2.3108,-2.3108,-2.312,-2.3728,-2.374,-2.3371,-2.5536,-2.6499,-2.6499,-2.6499,-2.6499,-2.6499,-2.6499,-2.6499,-2.6499,-2.6499,-2.6499,-2.6499,-1.4088,-1.4088,-1.4215,-1.4594,-1.4383,-1.4215,-1.4636,-1.4671,-1.4838,-1.5347,-1.6337,-1.7131,-1.7634,-1.7715,-1.8479,-2.044,-1.8838,-1.8399,-2.0098,-1.9854,-1.9893,-2.0411,-2.0527,-2.0605,-2.0605,-2.0605,-2.0605,-2.0605,-2.0605,-2.0605,-2.0605,-2.0605,-2.0605,-2.0605,-2.0605,-2.0605,-2.0605,-2.0605,-2.0605,-2.0605,-2.0605,-2.0605,-2.0605,-2.0693,-2.0731,-2.077,-2.1002,-2.1205,-2.1359,-2.1425,-2.131,-2.1167,-2.1282,-2.1205,-2.1061,-2.1167,-2.1205,-2.1177,-2.1061,-2.1022,-2.0924,-2.0524,-2.0239,-1.9927,-1.9434,-1.8864,-1.8395,-1.8057,-1.8076,-1.8144,-1.8144,-1.8144,-1.8236,-1.8529,-1.8654,-1.8787,-1.8977,-1.9398,-1.9879,-2.0365,-2.043,-2.059,-2.1005,-2.1101,-2.1302,-2.1585,-2.1678,-2.171,-2.171,-2.171,-2.1729,-2.1811,-2.2206,-2.2476,-2.2555,-2.2914,-2.3108,-2.3108,-2.3108,-2.3108,-2.3108,-2.3371,-2.3346,-2.3158,-2.4167,-2.531,-2.6499,-2.6499,-2.6499,-2.6499,-2.6499,-2.6499,-2.6499,-2.6499,-2.6499,-2.6499]}]]